GFSCGP_con_sbcape_000.txt.gz
CAPE
0 0 0 0 0 1 28 14 2 22 92 123 40 33 182 65 193 473 619 587 552 468 1081 1139 1517 1947 1895 2011 3401 3121 3957 4009 3961 3713 3707 3955 3526 4027 3123 3193 2956 3027 3014 2094
0 0 0 0 0 0 0 4 9 18 50 88 104 88 140 84 85 294 556 604 475 591 616 809 1018 845 1286 2653 3332 3766 4332 4473 4245 4428 4388 3654 3567 3373 3137 2799 2881 2316 2122 2474
0 0 0 0 0 0 0 0 0 17 44 8 95 159 32 111 133 146 212 445 470 482 538 989 1159 1254 1511 2157 2998 3580 4453 4129 4328 4280 4280 3982 3410 3181 2528 2526 1666 1894 1130 1281
0 0 0 0 0 0 0 0 0 1 20 20 2 4 111 65 85 162 124 170 260 310 512 698 968 1409 1547 2219 2742 3640 4280 4664 4479 3519 2768 2715 1421 814 2055 1718 1537 1066 1077 1185
0 0 0 0 0 0 0 0 0 0 0 0 3 7 121 205 61 67 107 114 148 205 269 388 602 1052 1264 1971 2276 3392 4466 4113 3282 2517 1628 1325 1400 736 1039 1056 1004 1310 1365 1484
0 0 0 0 0 0 0 0 0 0 0 7 1 39 122 176 653 16 39 127 194 201 308 331 498 873 1113 1672 1994 3219 3571 3371 2832 2142 1692 926 381 749 720 1255 955 812 912 965
0 0 0 0 0 0 0 0 4 3 9 0 6 15 100 93 92 224 164 158 185 337 518 622 447 736 1242 1684 2149 2995 2979 2973 2541 1835 1442 478 491 571 837 1250 1153 973 654 993
0 0 0 0 0 0 0 0 0 22 14 16 9 17 97 34 118 483 398 611 241 224 760 866 1036 974 1602 1901 2605 2365 2723 2645 2337 2001 1758 1226 836 1167 1361 1709 1053 670 736 867
0 0 0 0 0 0 0 0 0 1 0 0 4 7 1 0 0 0 29 0 338 256 331 836 1227 1595 1854 1966 2401 2602 2770 2758 2362 1821 2651 2167 1942 1379 1085 868 894 835 1285 548
0 0 0 0 0 0 0 0 0 0 18 26 10 1 11 114 5 1 0 0 30 555 599 544 906 1721 2284 2142 2359 2340 2638 2750 1979 1980 1916 1819 1808 1634 1549 1209 1109 1201 1429 1308
0 10 4 0 0 0 0 0 0 0 0 13 11 17 60 122 25 1 0 0 0 49 702 1006 1143 1975 2598 2024 2062 1666 1995 2231 1715 1705 1934 1437 744 881 1397 1149 1149 1209 1571 1565
0 1 17 0 0 0 0 1 8 4 45 22 34 7 8 0 0 0 0 0 0 75 443 1436 1346 2185 2564 2143 1758 1252 1065 1363 1297 1403 1830 1563 1326 957 902 1139 1025 1078 1266 1477
0 14 10 5 8 1 0 7 0 1 6 132 67 44 79 0 0 7 3 10 487 786 1893 2006 1601 1794 2459 2298 1887 1035 775 736 833 1238 918 1385 1448 1358 1446 1356 1332 1306 1303 1333
41 2 18 1 18 10 2 0 0 5 108 67 57 146 24 30 66 187 32 116 202 1123 1283 2336 1974 1922 2236 2301 1778 1308 648 451 597 631 898 1492 1605 1585 1392 1691 1835 1451 1714 1788
15 173 8 1 0 4 13 3 0 0 14 37 98 117 132 78 67 2 0 12 66 543 1361 2447 2094 2216 2396 2303 1699 1427 784 1131 661 1038 1205 1610 1861 1736 1802 1894 1714 1667 1784 1671
1 127 1 0 5 0 0 0 45 4 0 0 2 133 109 194 144 7 0 0 92 164 311 1384 2283 2105 2660 2360 1765 1076 1007 1239 1451 1008 1288 1769 1842 1724 1696 2034 2206 2072 2126 1968
224 23 133 25 0 0 47 14 13 65 68 25 112 310 321 122 0 0 0 6 132 246 332 489 2109 2009 3000 2241 1734 1095 1321 1373 1519 1719 1590 1674 1816 1852 2096 2058 2089 2068 1969 2010
450 702 243 95 289 220 10 92 55 67 53 16 127 145 212 43 0 0 0 70 42 256 322 612 976 2324 2828 2065 1560 1738 1411 1451 1915 1842 1813 1816 1966 2006 2283 2254 2220 2278 2266 2257
1 610 235 330 116 94 127 179 181 77 200 158 171 176 171 4 0 245 314 17 22 317 895 1219 519 1450 2527 2087 1920 2062 1331 1567 1790 1813 1941 1975 2008 2148 2296 2328 2136 2308 2255 1939
17 192 309 117 225 154 316 242 128 110 30 174 123 173 102 29 5 552 611 179 143 207 585 1255 1416 2012 2710 2427 2253 1963 1526 1857 1703 1723 2018 2176 2239 2470 2504 2312 2140 1785 2088 1627
166 292 148 210 173 31 123 150 62 28 2 246 270 143 61 222 371 649 445 242 213 541 788 1496 2048 2505 3046 2739 2180 1609 1591 2004 1969 1897 2125 2351 2582 2985 3003 2797 2174 1906 1175 934
567 367 183 390 349 297 330 344 208 1113 292 188 290 424 304 125 79 199 303 800 656 870 1033 1641 2622 2943 3012 3028 2733 1894 2172 2594 3456 2930 2684 2998 3211 2101 1793 2567 2244 1942 1998 1740
319 451 771 631 497 403 433 690 400 190 547 65 109 90 62 59 57 87 359 577 1036 1115 1469 1667 2441 3329 3040 2841 3413 3509 3195 2568 2631 2782 3281 3040 2480 2410 2378 2162 1876 2097 1644 1320
603 262 355 115 88 13 35 57 102 109 61 0 1 2 36 110 159 474 573 911 1666 1657 1899 1913 2656 2775 2798 3880 3706 3812 3245 3026 2488 3187 3313 3167 2672 2588 1957 1996 1642 941 1240 834
308 183 59 444 27 99 55 2 15 22 15 6 20 8 53 214 423 884 972 1804 2364 2399 1783 1855 1935 1106 574 343 126 701 1450 2320 3280 3182 2608 2696 2258 2130 1585 109 27 256 0 0
114 364 263 144 2 163 44 0 0 0 0 2 55 56 55 170 654 1198 2089 2281 2292 2153 2037 1150 976 574 51 364 1171 1597 1425 2241 2131 2211 1824 1586 1377 375 823 137 0 0 0 0

GFSCGP_con_sbcape_003.txt.gz
CAPE
0 0 0 0 0 0 0 0 10 0 0 0 6 267 358 303 323 350 549 694 715 785 1015 947 1020 950 1089 1372 1331 1617 1234 1955 1979 1953 2046 2127 1800 1721 1835 1966 1822 1553 1361 1531
0 0 0 0 0 0 0 16 4 34 1 15 0 68 99 53 193 299 476 459 633 534 1205 1209 1113 921 1099 1266 1821 2026 2169 2366 2419 2406 2327 2212 2052 2162 1914 2247 1952 1158 774 1249
0 0 0 0 0 0 0 0 27 69 55 40 20 11 10 21 18 138 448 377 377 464 754 1266 1341 1144 1256 1742 2083 2375 2600 2786 2527 1943 2458 2055 1569 1497 959 1156 1018 191 17 83
0 0 0 0 0 0 0 0 0 49 55 27 76 52 0 0 0 48 292 291 225 375 298 475 394 626 1450 1984 2178 2747 2709 2417 2670 2033 2206 1131 465 0 452 393 238 122 234 218
0 0 0 0 0 0 0 0 0 0 11 15 42 12 34 5 0 17 77 230 193 223 300 478 504 673 1134 1869 1985 1971 2460 2521 1571 57 265 0 0 0 97 103 6 0 0 156
0 0 0 0 0 0 0 0 0 0 0 0 0 5 48 4 30 53 51 32 96 143 349 427 517 791 1298 1510 2105 2652 2469 1056 292 21 0 0 0 0 0 47 0 17 14 44
0 0 0 0 0 0 0 0 0 0 0 0 0 0 64 41 46 4 4 0 16 80 227 315 466 764 1360 1360 2044 2676 1343 774 370 75 63 4 0 0 0 0 111 34 0 115
0 0 0 0 0 0 0 0 0 0 0 0 0 0 1 103 86 9 22 0 26 58 50 149 229 439 1084 1264 2031 2036 1186 1084 516 393 82 0 0 0 83 391 10 0 0 4
0 0 0 0 0 0 0 0 0 0 0 0 0 1 28 54 57 29 104 31 0 18 46 36 64 296 952 1028 2005 1678 1415 1217 772 600 194 81 81 40 168 36 0 2 142 0
0 0 0 0 0 0 0 0 0 0 0 0 2 34 12 2 43 81 91 0 15 0 76 100 58 299 968 1028 1646 1667 1568 1305 1115 859 590 536 454 196 111 50 8 78 0 106
0 0 0 0 0 0 0 0 0 0 0 0 0 0 91 24 0 0 0 1 13 63 31 226 219 495 1094 1204 1753 1719 1675 1443 1169 1089 686 568 548 255 240 112 51 125 271 371
0 0 0 0 0 0 0 0 0 0 0 0 11 16 0 0 0 0 0 0 0 25 86 185 489 912 1207 1337 1653 1671 1694 1413 780 980 740 102 2 30 160 60 54 49 30 48
0 0 0 7 0 0 0 0 0 0 0 0 20 3 3 0 0 2 0 5 21 29 102 216 653 1128 1511 1393 1257 1337 1447 1159 644 660 573 161 135 57 67 136 107 82 67 32
0 0 0 0 1 0 0 0 0 0 0 0 5 38 2 20 44 7 13 2 135 107 1188 411 1165 1597 1773 1488 1053 832 787 686 464 531 439 317 393 268 262 235 250 294 218 148
0 0 0 0 0 0 1 0 0 0 0 0 2 124 0 2 6 6 0 0 18 466 999 1102 726 1962 1962 1636 865 472 403 478 374 324 209 366 484 439 479 457 483 444 244 450
0 36 0 1 0 0 0 0 0 0 0 0 0 7 7 15 3 14 0 0 0 29 89 1517 1352 1107 1898 1783 723 447 151 164 193 173 330 726 750 633 561 461 495 407 323 451
36 40 2 0 0 0 0 0 1 0 3 0 0 26 100 74 56 0 0 0 0 0 64 91 1334 1360 1449 1520 811 368 125 361 248 264 432 572 591 553 562 604 734 946 808 557
247 230 10 5 68 3 11 14 30 98 113 65 57 84 78 3 0 0 0 0 0 0 53 69 94 1571 1507 1171 672 427 289 204 317 347 656 672 717 723 686 797 898 932 702 507
271 231 264 46 10 15 79 50 195 210 152 93 100 145 0 0 114 156 66 0 0 149 284 373 350 2014 1509 980 560 578 359 307 550 475 533 879 756 690 842 1178 1199 1088 948 745
29 228 150 32 38 112 11 208 214 127 237 172 148 49 251 1 213 171 28 142 159 208 404 618 738 1910 1403 1045 629 799 698 841 879 712 978 1074 999 1031 1269 1436 1344 1049 896 806
91 63 13 5 0 0 181 199 13 27 7 155 34 17 129 1 5 128 89 112 98 139 435 786 1030 2088 1663 1285 1367 937 709 904 976 1030 1175 1315 1309 1435 1563 1601 1235 856 702 59
215 295 6 48 1 1 146 550 698 499 276 264 280 216 41 18 0 0 0 0 156 143 552 686 1874 2594 2355 1698 1445 932 902 950 965 1122 1305 1646 1661 1769 1931 1085 959 693 584 320
243 363 691 721 389 124 14 12 48 108 48 24 18 19 2 39 12 17 60 0 17 528 658 1242 2321 2629 2300 2063 1098 591 79 77 33 856 1780 2064 2179 1407 873 630 592 601 175 296
278 55 458 315 284 16 26 0 0 0 4 60 77 65 60 98 207 228 303 360 429 967 1029 2011 1159 229 6 127 0 0 0 0 0 2 71 460 1100 1107 732 86 46 0 0 2
115 310 80 535 416 104 6 0 0 0 0 7 16 35 34 89 221 785 996 1418 1089 1170 1054 859 309 51 164 311 117 0 0 0 0 1 997 634 1134 505 0 0 0 0 0 0
187 69 150 30 61 98 0 0 0 0 0 0 0 0 17 62 718 1399 1697 1462 1138 585 475 295 264 390 366 40 31 37 0 86 477 876 473 530 554 10 0 0 0 1 0 0

GFSCGP_con_sbcape_006.txt.gz
CAPE
0 0 0 0 0 0 0 0 0 0 0 122 113 204 301 259 295 305 313 388 352 250 155 183 238 249 526 565 546 521 775 1176 1534 1487 1494 1477 1519 1155 1146 1074 1237 1172 913 1020
0 0 0 0 0 0 0 0 0 0 0 0 135 195 222 290 424 436 428 576 568 621 245 265 443 649 685 603 604 934 873 1384 1405 1480 1318 1368 1183 1192 1274 1383 1499 890 717 948
0 0 0 0 0 0 0 0 0 4 7 4 95 98 139 238 313 243 340 606 553 694 465 466 617 600 826 820 1088 1136 1359 1381 1498 1504 1587 1532 1112 773 659 737 646 137 0 10
0 0 0 0 0 0 0 0 3 28 35 9 29 47 6 67 12 50 130 256 437 588 793 765 709 516 739 1127 1481 1415 1655 1838 1801 1494 1767 1361 369 51 68 189 49 0 0 0
0 0 0 0 0 0 0 0 0 56 43 15 21 18 41 0 0 0 42 181 262 505 911 961 843 645 1002 1289 1762 1640 1789 2023 2026 1279 1429 151 0 0 5 0 0 0 0 0
0 0 0 0 0 0 0 0 0 0 0 10 14 8 0 3 13 0 0 241 182 300 835 1013 1024 575 1261 1386 1711 1968 1707 1515 725 118 0 0 0 0 0 0 0 0 0 0
0 0 0 0 0 0 0 0 0 0 0 0 0 24 0 0 7 0 0 162 179 250 344 601 561 462 1369 1527 1514 1856 1682 1158 8 0 0 0 0 0 0 0 0 0 0 0
0 0 0 0 0 0 0 0 0 0 0 0 0 0 0 3 7 0 0 124 163 170 173 268 178 297 969 1391 1445 1720 1234 765 0 0 0 0 0 0 0 0 0 0 0 0
0 0 0 0 0 0 0 0 0 0 0 0 0 0 0 7 9 1 0 3 56 116 154 192 260 368 840 1138 1495 1776 935 372 3 0 0 0 0 1 0 0 0 0 0 0
0 0 0 0 0 0 0 0 0 0 0 0 0 0 0 36 31 19 0 0 0 30 120 155 242 376 957 1032 1555 1810 915 455 65 4 0 0 0 4 0 0 0 0 0 0
0 0 0 0 0 0 0 0 0 0 0 0 0 0 0 39 16 32 12 8 0 5 28 88 188 274 874 1026 1477 1751 1086 701 188 90 0 0 26 8 3 0 0 0 0 10
0 0 0 0 0 0 0 0 0 0 0 0 0 0 0 0 0 9 41 50 0 0 14 50 63 125 580 850 1473 1624 1337 926 472 256 64 100 153 46 20 18 4 0 9 1
0 0 0 0 0 0 0 0 0 0 0 0 0 0 0 0 0 0 0 0 0 0 0 23 29 78 400 746 1337 1519 1454 1155 698 453 208 30 7 11 25 21 10 0 0 0
0 0 0 0 0 0 0 0 0 0 0 0 0 0 0 0 0 0 0 0 0 0 0 53 95 81 422 765 1312 1473 1425 1203 602 467 253 1 0 0 12 26 14 1 0 0
0 0 0 0 0 0 0 0 0 0 0 0 0 0 0 0 0 0 0 2 0 0 22 0 239 409 596 767 1192 1367 1387 950 469 443 274 31 8 0 0 12 9 0 9 5
0 0 0 0 0 0 0 0 0 0 0 0 0 0 0 0 0 0 0 2 0 36 176 238 198 673 875 1016 1126 1191 1163 855 358 289 278 77 76 46 48 97 76 46 77 30
0 0 0 0 0 0 0 0 0 0 0 0 0 0 0 0 0 0 0 0 0 0 0 124 909 924 1249 1327 1134 764 719 450 229 228 191 85 97 92 205 237 166 186 152 55
0 0 0 0 0 0 0 0 16 19 6 1 0 0 0 0 0 0 0 0 0 0 0 0 16 592 1350 1644 1184 502 153 204 200 127 151 270 244 218 306 268 252 273 325 352
14 0 5 0 0 0 16 5 20 18 19 22 8 3 0 0 9 27 0 0 0 0 0 0 15 224 859 1486 820 216 190 176 135 87 175 292 431 391 352 332 356 419 468 351
11 0 55 2 2 1 30 94 55 52 67 28 75 2 10 12 38 48 5 0 0 16 46 177 173 1113 1079 975 486 335 246 110 88 114 211 324 364 401 366 401 489 630 582 442
86 45 4 0 0 0 27 121 65 22 62 23 0 0 27 91 52 17 0 1 28 106 247 314 942 1584 999 585 528 407 166 193 141 106 99 171 468 361 389 561 772 592 384 0
145 167 1 4 3 16 4 101 346 167 18 2 2 0 0 0 0 0 0 0 0 0 18 289 729 1402 957 653 660 443 172 1 0 0 0 0 3 329 727 973 641 94 25 4
130 5 88 165 32 5 0 0 0 0 0 0 0 0 3 3 5 8 0 0 0 0 2 139 410 1270 1066 1019 284 0 0 0 0 0 0 0 0 0 0 370 307 78 11 0
45 52 79 0 0 19 7 0 0 0 0 0 0 0 0 0 3 170 235 475 863 827 703 1101 662 378 96 3 0 0 0 0 0 0 0 0 0 0 55 95 70 61 22 0
82 13 141 143 158 0 0 0 0 0 0 0 0 0 0 0 1106 1411 1104 954 624 346 353 397 330 73 0 0 0 0 0 0 0 0 0 0 0 18 0 0 0 0 0 0
25 107 48 116 69 0 0 0 0 0 0 0 0 0 0 0 153 1321 1216 918 360 237 115 140 111 31 0 0 0 0 0 0 0 0 0 2 14 21 0 0 1 0 0 0

GFSCGP_con_sbcape_009.txt.gz
CAPE
0 0 0 0 0 0 0 0 9 13 0 85 101 133 130 179 119 121 164 166 161 166 102 168 417 367 194 226 651 605 711 1065 1134 1184 1255 1280 1529 1267 1037 878 1064 1035 699 922
0 0 0 0 0 0 0 0 0 0 3 57 73 137 73 62 71 75 80 77 101 119 68 133 219 247 179 193 314 220 442 747 1196 1143 986 1052 1002 874 817 868 1192 965 761 727
0 0 0 0 0 0 0 0 0 0 0 78 119 121 167 122 120 94 120 124 119 82 74 80 121 129 257 227 266 312 311 817 1140 1154 974 1058 822 583 557 662 678 317 395 390
0 0 0 0 0 0 0 0 0 0 0 6 74 48 85 147 188 224 255 210 251 225 103 87 156 231 335 291 355 433 561 968 1085 1048 1216 1251 1176 507 23 132 132 4 0 0
0 0 0 0 0 0 0 0 0 0 0 11 17 14 48 63 143 181 213 152 359 371 173 131 181 277 396 448 675 699 890 1115 1257 1143 1325 1107 186 0 0 0 0 0 0 0
0 0 0 0 0 0 0 0 0 0 0 1 9 0 0 17 116 144 114 115 355 256 438 219 215 277 365 627 929 1132 1125 1276 1328 1142 932 630 2 0 0 0 0 0 0 0
0 0 0 0 0 0 0 0 0 0 0 0 0 0 0 0 71 89 69 25 173 212 571 487 473 385 414 737 1054 1328 1310 1306 1197 826 251 21 0 0 0 0 0 0 0 0
0 0 0 0 0 0 0 0 0 0 0 0 0 0 0 0 12 37 26 18 105 122 461 662 698 534 477 919 1120 1421 1462 1343 639 81 0 0 0 0 0 0 0 0 0 0
0 0 0 0 0 0 0 0 0 0 0 0 0 0 0 0 0 4 0 0 65 96 270 696 812 583 617 963 1141 1367 1593 1428 360 0 0 0 0 0 0 0 0 0 0 0
0 0 0 0 0 0 0 0 0 0 0 0 0 0 0 0 0 0 0 0 31 85 151 466 747 505 736 1087 1210 1265 1525 1459 476 0 0 0 0 0 0 0 0 0 0 0
0 0 0 0 0 0 0 0 0 0 0 0 0 0 0 0 0 0 0 0 6 66 110 198 386 381 401 991 1196 1283 1364 1222 457 6 0 0 0 0 0 0 0 0 0 0
0 0 0 0 0 0 0 0 0 0 0 0 0 0 0 0 0 0 0 0 0 0 60 133 179 274 271 549 897 1264 1401 975 477 55 0 0 0 0 0 0 0 0 0 0
0 0 0 0 0 0 0 0 0 0 0 0 0 0 0 0 0 0 0 0 0 0 15 87 128 174 233 491 787 1137 1506 1084 576 60 0 0 0 0 0 0 0 0 0 0
0 0 0 0 0 0 0 0 0 0 0 0 0 0 0 0 0 0 0 0 0 0 0 1 29 119 223 340 774 1091 1546 1297 763 157 42 0 2 1 2 0 0 0 0 0
0 0 0 0 0 0 0 0 0 0 0 0 0 0 0 0 0 0 0 0 0 0 0 0 0 0 36 159 578 1058 1435 1387 868 425 193 25 47 14 17 15 3 0 0 8
0 0 0 0 0 0 0 0 0 0 0 0 0 0 0 0 0 0 0 0 0 0 0 0 1 0 0 116 507 921 1341 1444 916 634 404 61 16 0 2 6 7 0 5 22
0 0 0 0 0 0 0 0 0 0 0 0 0 0 0 0 0 0 0 0 0 0 1 2 0 69 185 283 515 869 1221 1285 840 743 297 15 5 1 0 0 1 14 33 32
0 0 0 0 0 0 0 0 0 1 2 0 0 0 0 0 0 0 0 0 0 0 0 171 170 91 448 521 671 793 1031 959 716 466 67 39 25 85 15 17 51 124 140 76
0 0 0 0 0 0 6 17 5 3 13 0 0 0 0 0 0 0 0 0 0 0 0 0 25 231 398 899 946 668 661 689 561 398 78 60 16 65 70 53 137 237 132 197
0 0 0 0 0 0 0 5 7 0 20 0 0 0 0 0 10 0 0 0 0 0 0 0 0 9 359 382 933 495 318 396 423 321 96 79 127 162 119 160 268 223 280 283
42 25 0 1 3 31 0 0 0 36 4 0 0 0 0 0 0 0 0 0 0 0 0 1 30 382 662 601 489 380 234 284 136 0 0 28 89 196 158 138 176 214 112 79
22 167 117 49 5 32 0 13 64 1 0 0 0 0 0 0 0 0 0 0 0 1 0 0 26 273 701 431 404 116 86 2 0 0 0 0 0 0 0 0 0 0 22 4
27 88 111 10 1 0 0 0 0 0 0 0 0 0 0 56 58 84 95 128 198 288 372 247 118 80 538 313 109 0 1 0 0 0 0 0 0 0 0 0 0 0 5 12
1 7 0 16 10 6 0 0 0 0 0 0 0 0 0 74 347 55 19 464 530 347 457 422 428 309 62 15 0 0 0 0 0 0 0 0 0 0 0 0 0 23 14 2
1 98 77 78 56 0 0 0 0 0 0 0 0 0 0 0 0 6 266 436 552 452 36 1 0 0 1 0 0 0 0 0 0 0 0 0 0 0 0 0 1 0 0 1
2 100 156 51 55 0 0 0 0 0 0 0 0 0 0 0 0 0 196 553 247 131 8 2 0 0 0 0 0 0 0 0 0 0 0 0 0 0 0 0 0 0 0 0

GFSCGP_con_sbcape_012.txt.gz
CAPE
0 0 0 0 0 0 0 0 11 12 8 42 64 83 242 169 139 131 115 158 281 230 232 194 177 352 204 352 691 719 772 851 895 835 977 1079 1226 1130 1036 820 893 865 493 748
0 0 0 0 0 0 0 0 0 0 0 35 64 113 156 169 144 94 89 93 96 140 13 29 132 259 128 217 660 577 682 742 825 784 778 884 918 791 708 612 789 963 825 723
0 0 0 0 0 0 0 0 0 0 8 28 75 104 63 126 136 95 72 59 47 52 13 0 95 229 153 117 294 426 444 559 732 762 625 610 509 412 455 653 773 678 592 580
0 0 0 0 0 0 0 0 0 0 14 2 36 0 49 63 92 83 87 53 50 53 61 25 77 156 191 146 140 249 254 259 552 723 856 993 1005 971 304 215 480 271 65 29
0 0 0 0 0 0 0 0 0 0 0 6 36 0 0 65 54 79 97 76 77 56 61 54 52 82 112 181 144 143 141 208 580 732 974 874 633 235 0 0 121 0 0 0
0 0 0 0 0 0 0 0 0 0 0 0 0 0 0 15 128 137 146 145 141 119 87 64 41 48 77 140 173 210 241 394 635 777 833 838 611 0 0 0 0 0 0 0
0 0 0 0 0 0 0 0 0 0 0 0 0 0 0 0 71 118 134 158 180 177 164 100 60 82 109 167 244 396 398 518 799 926 888 809 404 0 0 0 0 0 0 0
0 0 0 0 0 0 0 0 0 0 0 0 0 0 0 0 1 47 70 100 100 163 247 166 106 111 134 254 346 525 614 671 920 1068 905 480 94 0 0 0 0 0 0 0
0 0 0 0 0 0 0 0 0 0 0 0 0 0 0 0 0 0 11 34 48 117 212 354 191 167 190 258 434 641 834 866 939 966 715 21 0 0 0 0 0 0 0 0
0 0 0 0 0 0 0 0 0 0 0 0 0 0 0 0 0 0 0 5 10 48 149 394 420 359 334 339 487 686 935 1018 981 827 415 11 0 0 0 0 0 0 0 0
0 0 0 0 0 0 0 0 0 0 0 0 0 0 0 0 0 0 0 0 0 1 69 280 580 613 542 480 536 709 992 1165 1096 658 123 9 0 0 0 0 0 0 0 0
0 0 0 0 0 0 0 0 0 0 0 0 0 0 0 0 0 0 0 0 0 0 46 132 542 686 694 596 641 839 1021 1233 1309 749 35 2 0 0 0 0 0 0 0 0
0 0 0 0 0 0 0 0 0 0 0 0 0 0 0 0 0 0 0 0 0 0 8 69 209 510 645 555 817 1063 1147 1214 1354 698 1 0 0 0 0 0 0 0 0 0
0 0 0 0 0 0 0 0 0 0 0 0 0 0 0 0 0 0 0 0 0 0 3 39 74 196 351 359 560 996 1209 1277 1220 514 41 0 0 0 12 0 0 0 0 0
0 0 0 0 0 0 0 0 0 0 0 0 0 0 0 0 0 0 0 0 0 0 0 2 72 105 155 219 298 578 891 1233 1156 474 186 78 19 16 21 5 0 0 0 0
0 0 0 0 0 0 0 0 0 0 0 0 0 0 0 0 0 0 0 0 0 0 0 0 0 0 18 73 150 487 782 1085 1219 651 397 285 41 29 22 0 2 20 1 0
0 0 0 0 0 0 0 0 0 0 0 0 0 0 0 0 0 0 0 0 0 0 0 0 0 0 0 0 44 375 682 1013 1152 823 614 175 0 21 8 0 0 34 6 8
0 0 0 0 0 0 0 0 0 0 0 0 0 0 0 0 0 0 0 0 0 0 0 0 0 0 0 0 58 255 597 984 1107 882 638 83 20 0 0 4 5 0 0 8
0 0 0 0 0 0 0 0 0 7 3 0 0 0 0 0 0 0 0 0 0 0 0 13 2 0 0 105 202 362 708 920 897 765 407 219 43 28 41 51 3 6 26 32
0 0 0 0 0 0 0 0 0 0 23 0 0 0 0 0 0 0 0 0 0 0 0 0 0 0 1 16 443 506 638 722 712 479 321 219 195 356 158 45 14 6 10 38
0 0 0 0 17 11 0 0 0 34 1 0 0 0 0 0 0 0 0 0 0 0 0 0 0 0 119 296 422 434 379 581 336 163 103 146 160 22 0 0 26 24 8 1
2 1 0 0 10 135 0 0 9 0 0 0 0 0 0 0 0 5 2 44 72 74 129 125 41 6 302 294 374 286 269 45 21 9 5 5 5 20 1 0 0 0 2 8
23 44 34 0 0 0 0 0 0 0 0 0 0 1 0 0 0 0 5 81 105 154 176 208 202 128 7 32 61 20 3 3 0 0 0 0 0 0 0 0 0 1 0 0
65 13 19 0 0 0 0 0 0 0 0 0 0 0 0 0 0 0 11 53 136 74 89 93 19 0 2 1 0 1 1 0 0 0 0 0 0 0 0 0 0 0 0 2
26 109 71 6 3 0 0 0 0 0 0 0 0 0 0 0 0 0 0 153 113 54 38 0 0 1 3 1 2 1 0 0 0 0 0 0 0 0 0 2 2 0 1 0
0 53 50 8 0 18 0 0 0 0 0 0 0 0 0 0 0 0 0 0 37 26 0 0 0 0 1 1 0 0 0 0 0 0 0 0 0 2 2 2 3 0 0 0

GFSCGP_con_sbcape_015.txt.gz
CAPE
0 0 0 0 0 0 3 32 88 109 67 100 123 117 375 484 474 565 815 993 915 951 1044 1208 1354 1397 1446 1568 1692 1942 2136 2369 2343 2225 2231 2191 2124 2505 2528 3023 2155 2236 2200 2065
0 0 0 0 0 0 3 26 61 37 77 90 73 112 212 469 467 449 567 798 909 949 1061 1194 1218 1112 1228 1464 1556 1927 2158 2470 2450 2243 2219 2141 2320 2340 2284 2316 2531 2368 2187 2212
0 0 0 0 0 0 0 26 36 36 35 84 125 53 123 363 453 386 373 437 517 625 771 803 895 994 1072 1207 1479 1855 2352 2496 2355 2319 2246 2213 2093 1995 2047 2142 2051 2139 2190 2098
0 0 0 0 0 0 0 0 49 57 61 27 65 33 99 263 507 477 433 378 368 404 489 501 559 825 1042 1050 1237 1930 2090 2373 2201 2315 2123 2226 2031 2048 1997 1715 1850 2166 1969 1755
0 0 0 0 0 0 0 0 1 42 86 27 67 11 21 169 328 526 526 476 401 343 374 418 437 617 875 988 1010 1290 1956 2266 2125 2231 2494 2233 2289 2205 1978 1343 1741 2161 1491 1272
0 0 0 0 0 0 0 0 0 0 22 9 4 6 0 129 283 331 337 426 430 364 366 391 427 460 687 861 956 1079 1775 2272 1972 1986 2208 2383 2460 2394 1770 1226 917 1431 980 495
0 0 0 0 0 0 0 0 0 0 0 0 0 4 28 31 143 186 224 287 333 347 325 376 498 533 844 978 1106 1289 1901 2078 1724 1808 2119 2245 2455 2598 2089 1713 1042 980 809 320
0 0 0 0 0 0 0 0 0 0 0 0 0 0 0 65 64 76 182 198 282 313 480 472 865 826 870 856 1482 1580 1893 2043 1843 1745 2342 2624 2586 2301 1931 1566 945 839 779 340
0 0 0 0 0 0 0 0 0 0 0 0 0 0 0 1 2 3 52 129 258 414 476 586 646 669 1003 1233 1504 1687 1960 2119 2131 1937 2549 2539 2658 2339 1886 1279 867 784 596 218
0 0 0 0 0 0 0 0 0 0 0 0 0 0 0 0 26 60 30 83 204 438 564 650 987 1080 1203 1239 1576 1769 1965 2128 2101 1735 2295 2292 2138 1512 1772 1102 394 547 449 299
0 0 0 0 0 0 0 0 0 0 0 0 0 0 0 0 23 46 67 40 117 376 478 840 1182 1147 1346 1272 1248 1506 1758 2155 2181 2148 2529 2604 1803 1413 860 696 309 105 427 354
0 0 0 0 0 0 0 0 0 0 0 0 0 0 0 0 0 1 17 14 13 242 398 794 989 1127 1133 1399 1201 1352 1712 1746 2154 2247 2482 2167 1353 315 721 13 103 256 172 253
0 0 0 0 0 0 0 0 0 0 0 0 0 0 0 0 0 0 0 8 34 198 372 716 921 1421 1637 1614 1876 1781 1740 1674 1835 2124 1876 1667 1088 452 207 251 81 174 201 130
0 0 0 0 0 0 0 0 0 0 0 0 0 0 0 0 0 14 11 41 77 96 315 723 939 1362 1812 2066 2137 2074 1843 1713 1776 1868 2014 1954 1376 818 485 18 25 0 19 22
0 0 0 0 0 0 0 0 0 0 0 0 0 0 0 0 24 121 260 186 138 135 292 819 854 1438 1873 2011 2267 2070 1847 2277 2222 2281 2131 1729 1138 707 273 112 23 0 0 0
0 0 0 0 0 0 0 0 0 0 0 0 0 0 0 0 0 29 131 138 205 221 283 636 941 1039 1354 1593 1551 1544 1826 2155 2336 2491 2137 1723 1174 539 315 245 187 27 0 0
121 0 0 0 0 0 0 0 0 0 0 0 0 0 0 0 0 48 319 172 351 513 437 461 832 1341 1283 1162 1356 1360 1523 1742 2209 2265 2058 1653 1110 549 511 326 120 58 0 0
109 30 0 1 0 0 0 0 0 0 0 0 0 0 0 0 14 54 115 206 316 498 596 514 337 460 763 767 898 1236 1413 1817 2101 2246 2044 1586 952 772 559 605 271 140 121 0
85 0 37 5 36 0 0 0 0 0 0 0 0 0 0 0 0 28 0 0 107 106 213 313 309 338 525 581 800 1167 1478 1780 2043 2203 2051 1448 993 909 646 639 268 67 129 165
10 88 32 8 0 0 54 24 15 10 0 0 0 1 0 0 4 111 0 0 23 107 348 524 390 541 788 971 1083 1461 1718 1874 2027 2097 1975 1483 1165 1004 825 365 263 415 492 375
231 640 334 386 121 92 4 2 64 64 16 0 2 34 0 22 30 8 25 122 232 270 300 485 683 943 1193 1210 1576 1854 1834 1970 2036 1854 1765 1309 1025 838 367 377 431 492 392 387
442 381 742 491 219 294 0 62 193 108 0 0 19 25 99 182 297 312 386 479 618 696 677 786 1133 1072 1120 1388 1795 1724 1634 1223 1285 1265 1199 980 912 862 557 448 442 468 688 732
396 435 493 452 244 36 0 0 10 109 130 126 141 98 210 118 150 252 361 403 499 635 675 791 833 978 922 1087 1484 1260 576 877 1036 943 681 777 874 994 893 834 792 807 695 168
485 335 239 385 150 3 0 0 0 0 0 0 0 23 58 138 373 694 755 750 715 585 535 542 435 321 347 579 807 518 554 772 857 908 795 847 987 817 714 546 441 191 72 33
161 300 208 182 51 16 0 0 0 0 0 0 0 0 0 0 0 142 550 636 695 659 567 611 646 574 240 336 442 577 612 618 753 774 703 835 864 664 2 3 8 8 14 10
1 80 306 107 132 209 21 0 0 0 0 0 0 0 0 0 0 0 13 182 427 569 427 396 509 412 308 391 399 477 454 368 508 400 307 252 67 1 0 0 2 1 0 0

GFSCGP_con_sbcape_018.txt.gz
CAPE
0 0 0 0 0 0 3 17 22 39 227 301 242 142 526 742 719 670 741 792 565 463 551 977 1266 1286 1338 1760 2024 2198 2269 2436 2607 2598 2267 2041 1792 1971 2236 2294 1975 2075 2271 2123
0 0 0 0 0 0 0 4 40 101 235 255 224 239 226 443 782 666 650 802 863 583 616 1020 1326 1415 1465 1769 2085 2427 2618 2751 2968 2634 2799 2105 1874 1702 1897 2178 2035 2396 2183 2175
0 0 0 0 0 0 0 1 15 87 206 244 167 273 284 211 474 664 624 543 888 791 707 814 1011 1300 1438 1686 2106 2360 2798 2920 3105 2901 2655 2708 2654 2506 2228 1871 1885 1934 2329 2280
0 0 0 0 0 0 0 0 3 82 171 165 189 112 79 135 246 548 792 603 535 854 911 840 913 1106 1380 1522 1845 2398 2742 3095 3160 3273 3101 3060 2172 1517 1069 1109 760 912 1852 1607
0 0 0 0 0 0 0 0 0 58 126 156 169 157 87 139 267 427 776 743 407 366 559 784 786 816 1129 1357 1589 2003 2744 3199 3269 3206 3668 2847 2734 1673 1442 1343 1246 1588 1784 1660
0 0 0 0 0 0 0 0 2 27 115 149 122 129 60 76 274 208 382 698 568 221 198 274 414 589 879 1145 1414 1653 2684 3862 3629 3198 3303 3387 2813 2425 1576 1750 1268 1064 1217 1650
0 0 0 0 0 0 0 0 34 52 61 72 89 65 2 5 34 86 58 461 653 285 199 220 313 428 779 1084 1300 1503 3047 3939 3434 3119 2957 3134 3150 2996 2786 2587 1403 724 755 604
0 0 0 0 0 0 0 0 15 55 38 40 38 10 1 52 33 14 38 90 499 609 265 283 408 556 758 1080 1553 2014 3076 3550 3279 2905 3038 3743 3564 2925 2692 2748 1124 665 246 395
0 0 0 0 0 0 0 0 0 43 47 44 9 4 0 19 28 9 34 96 278 695 581 336 487 678 927 1264 2161 2782 3426 3825 3512 2719 3599 3435 3749 3484 2806 2849 2508 1109 810 321
0 0 0 0 0 0 0 0 0 10 85 45 11 26 1 24 15 0 17 77 179 473 705 586 463 781 1052 1309 1727 2094 2975 3696 3068 2661 2760 2661 2776 3142 2936 3069 2583 1719 1267 807
0 0 0 0 0 0 0 0 0 5 9 29 36 1 0 0 0 0 0 49 124 212 631 821 758 750 1268 1386 1644 2032 2300 2605 2744 2932 3309 3316 2821 2666 3018 2917 2577 2149 1480 1280
0 3 0 0 0 0 0 0 0 1 2 14 29 5 4 0 0 0 0 0 2 76 268 776 986 1075 1145 1516 1633 1948 2133 2314 2532 3152 3247 3252 3033 3206 2653 3137 2377 1707 1239 1071
1 1 14 0 0 0 0 0 0 0 0 97 22 2 2 0 0 0 12 13 27 340 378 752 984 1329 1510 1616 2397 1947 2156 2196 2290 2827 2650 2941 3050 2925 2898 2755 2009 1471 817 999
0 0 0 0 0 0 0 0 0 0 0 0 3 35 19 4 0 0 3 47 71 299 592 837 1086 1420 1778 2116 2936 2853 2115 2109 2248 2375 2602 3435 3273 2903 2293 2470 1429 948 399 425
0 0 12 0 0 5 2 0 0 0 0 0 0 1 9 0 0 0 0 0 30 506 740 1003 1252 1555 2154 2403 2844 2492 2392 2523 2416 2489 2619 2942 3105 2816 2283 2046 1377 733 490 277
0 25 39 13 5 4 9 4 0 0 0 0 0 0 0 0 0 0 0 0 17 490 931 1114 1448 1699 2190 2409 2647 2599 2537 2471 2573 2642 2750 3081 3197 2781 2351 1973 1454 820 709 449
12 19 127 37 93 49 32 0 0 0 0 0 0 0 0 0 0 0 69 68 80 329 1039 1202 1433 2118 2198 2415 2636 2690 2675 2604 2751 2871 2924 3084 3203 3016 2445 1885 1291 1078 703 243
186 229 179 196 245 167 1 1 0 0 0 0 0 0 0 0 0 0 55 114 142 372 703 1203 1275 1568 2083 2031 2185 2359 2433 2695 2865 3068 3074 3110 3037 2452 2009 1603 1302 1234 546 317
29 397 230 251 257 160 59 252 123 12 0 0 0 0 0 0 0 0 71 177 397 510 857 1384 1264 1453 1846 1733 1997 2266 2222 2416 2600 2893 3068 3040 2795 2381 1914 1699 1097 1012 598 427
53 209 268 277 166 178 661 214 224 281 89 0 0 0 0 0 0 0 429 204 154 338 898 987 1036 1162 1405 1517 1707 2122 2154 2432 2648 2862 3030 2975 2693 2435 2036 1839 1463 1086 658 352
233 410 137 482 423 294 354 176 356 323 115 277 243 0 0 0 18 399 330 427 473 710 1085 1178 1276 1463 1646 1536 1850 2159 2319 2478 2560 2709 2891 2940 2537 2430 2010 1996 1495 753 315 383
448 424 247 458 430 326 269 357 568 624 617 366 230 287 144 352 317 609 720 817 881 998 1108 1256 1485 1740 1879 2192 2533 2628 2645 2841 2935 2896 2883 2544 1994 1884 1632 1566 1005 758 777 833
505 390 419 418 430 413 216 222 227 542 550 652 534 354 464 509 676 820 954 987 900 861 880 1113 1498 1833 2009 2309 2730 2869 3145 2933 2813 2669 2435 1775 1481 1357 1467 1034 1069 1222 1184 1092
869 910 746 627 379 372 283 4 0 39 229 298 516 584 558 562 580 716 815 877 914 944 1027 1264 1473 1608 1950 2203 2268 2419 2345 2221 2317 1741 1499 1202 1217 1035 1036 1197 1437 1408 1372 1357
357 852 821 588 408 390 131 0 0 0 3 31 82 118 361 777 962 1143 1229 1229 1145 1138 1069 1113 1314 1516 1710 1860 1851 1832 1859 1935 2015 1761 1554 1485 1403 952 0 0 0 301 0 0
16 175 689 538 331 567 13 0 0 0 0 0 13 35 56 67 91 115 329 583 1016 1297 1400 1441 1576 1769 1819 1969 1963 1847 1861 1962 1672 1598 1607 1382 861 412 405 342 13 0 0 0

GFSCGP_con_sbcape_021.txt.gz
CAPE
0 0 0 0 0 0 28 84 41 55 35 71 160 193 320 541 516 193 48 150 178 239 508 636 839 738 823 1019 1500 1770 2284 3668 2501 2053 2243 2265 2023 1943 1570 1762 1830 2772 2374 2226
0 0 0 0 0 0 0 48 77 41 76 45 113 185 374 549 582 509 292 110 147 149 240 528 856 782 979 1229 1747 2810 3057 3907 3344 2684 2793 2422 2072 1017 1406 2259 2963 2310 2076 2315
0 0 0 0 0 0 0 20 74 77 149 141 174 127 210 269 591 543 441 266 192 102 132 347 741 953 1095 1239 1833 3201 3975 4270 3990 3808 3195 2664 2426 1737 1658 911 1493 2240 1901 1991
0 0 0 0 0 0 0 1 26 75 108 216 71 245 222 178 205 482 631 570 297 274 177 205 635 1008 1103 1309 1759 3266 3921 4376 4072 4401 3113 3598 2359 1622 925 1008 895 897 927 1081
0 0 0 0 0 0 0 2 24 58 113 176 106 131 116 104 130 154 451 600 531 286 289 198 398 735 975 1226 1562 2251 4162 4525 4472 4391 4015 2829 2990 1282 1092 902 2193 1265 2352 1114
0 0 0 0 0 0 0 0 43 60 89 112 193 110 190 35 156 185 199 471 711 487 374 476 382 536 774 996 1316 1762 3995 4635 4723 4575 4493 4601 4497 2756 1798 1880 1401 901 1076 1023
0 0 0 0 0 0 0 0 53 79 92 63 146 133 307 151 163 138 123 141 488 793 328 353 540 549 883 1262 1645 1934 3732 4676 4831 4468 4379 4286 4542 4287 3615 2703 1608 1593 817 912
0 0 0 0 0 0 0 0 8 45 63 66 83 98 146 187 52 108 88 72 135 681 675 269 336 432 696 1178 2192 2490 3449 4502 4653 4525 4686 4734 4757 2903 2619 2952 1838 759 568 834
0 0 0 0 0 0 0 0 0 38 85 105 82 71 46 47 74 105 48 17 41 471 718 424 317 259 397 1163 2140 2686 3311 4281 4518 4413 4835 4754 4677 4472 2748 3429 3663 1831 1888 608
0 0 0 0 0 0 0 0 0 26 145 143 95 86 75 108 41 38 46 16 28 59 476 593 392 413 712 697 1591 2441 3157 4248 4404 4355 4590 4355 4501 4585 4465 4425 4256 3282 2661 1671
0 0 0 0 0 0 0 0 2 5 46 90 110 101 70 98 61 40 8 8 38 50 274 660 586 510 800 641 925 1820 2875 3817 4237 4225 4337 4321 4302 3924 4464 3965 4025 3677 3128 2669
0 0 0 0 0 0 0 0 0 150 24 38 96 88 48 23 40 26 43 60 61 39 80 291 632 644 750 1338 983 1305 1909 2382 3515 3786 4414 4384 4436 4034 3945 4150 3978 3938 3227 2895
0 0 0 0 0 0 0 0 0 0 18 166 89 20 59 24 39 34 35 9 3 20 35 69 413 829 1450 1818 1939 1843 2133 1877 2338 3576 3657 4329 4435 4240 3982 4274 4142 3920 3479 2168
3 0 0 0 0 0 0 0 0 0 11 13 16 62 104 75 46 13 8 13 21 13 150 319 180 616 1673 2102 2610 2783 2483 2058 2262 2789 3144 4034 4492 4452 4106 4248 4298 4209 3281 2541
0 1 0 0 4 14 3 0 0 0 0 1 2 63 50 81 86 55 2 19 3 36 40 588 717 642 2496 2716 3233 3124 3221 3239 2810 3519 3703 4190 4582 4558 4554 4096 4225 4024 3021 2582
0 0 3 3 0 2 11 14 0 0 0 0 0 0 29 49 73 63 6 0 5 4 0 389 1027 1167 2445 2920 3510 3723 3587 3502 3505 4062 4065 4430 4779 4604 4578 4327 4065 3767 3050 2130
0 10 14 1 21 49 56 0 0 4 4 0 0 0 0 3 29 93 400 61 5 8 188 8 1021 1853 2768 2558 3528 3642 3965 3835 3998 4324 4349 4651 4827 4761 4602 4172 3952 3547 2756 1938
12 61 41 67 126 153 0 32 18 24 28 28 26 2 0 0 0 28 46 240 198 137 145 158 780 1389 2093 2225 2538 3464 3118 4189 4410 4406 4580 4671 4886 4839 4398 3715 3567 2992 2224 2175
37 55 61 91 135 113 91 295 270 273 78 20 29 32 6 0 0 4 0 0 126 280 388 313 625 1242 2209 2665 3306 3997 3805 3707 4029 4161 4519 4612 4647 4808 4173 3492 3141 2516 2226 1984
35 152 237 217 171 267 307 600 444 416 62 48 141 121 29 0 17 0 0 0 0 28 242 342 499 1283 1843 2953 2657 3693 3913 4149 4292 4265 4171 4604 4647 4276 3477 3126 3074 2613 2127 1602
2 35 96 277 255 175 802 324 389 371 339 926 753 580 504 366 17 0 116 18 25 264 511 1104 1626 1662 3339 3235 3314 3924 3626 3560 3550 3339 3302 3810 3775 4018 3550 2743 2680 2011 1547 1369
0 23 38 242 296 336 652 492 531 1137 1103 994 1073 778 531 593 261 51 654 683 730 736 850 1255 1601 2124 2640 3365 3913 3948 3865 4015 4053 3947 3949 4085 3992 3070 2812 2624 2402 1561 1647 1188
83 39 89 159 359 1082 683 812 665 771 926 1016 1090 886 788 800 736 808 924 1104 1304 1470 1510 1712 2163 2876 2294 3443 3797 3893 4811 4621 4198 3936 3940 3633 3290 2861 2765 2409 1428 904 1174 1058
138 120 595 941 875 550 492 265 438 473 567 1090 1114 1151 1045 1285 1354 1449 1411 1315 1392 1587 1762 1961 2166 2480 2697 3795 4061 3947 3804 3756 3905 3501 2840 2431 1980 2142 1718 1261 1180 1011 1143 1215
15 92 496 1039 691 415 280 244 227 217 272 675 1033 1401 1445 1443 1355 1398 1385 1138 1101 1213 1259 1478 1783 2099 2346 2621 2709 2828 3044 3121 2843 2331 1793 1607 1237 1451 773 0 526 1343 3 464
6 8 21 511 644 739 99 6 0 25 82 193 244 370 338 514 770 774 1085 1406 1091 882 946 1138 1678 2265 2412 2530 2566 2652 2732 2606 2345 2216 2009 1804 1287 1140 1030 552 4 0 0 0

GFSCGP_con_sbcape_024.txt.gz
CAPE
0 0 0 0 0 0 0 0 0 7 1 6 161 201 29 127 115 0 62 73 82 222 394 610 652 768 901 1257 2043 2284 2897 3507 3561 3371 2591 2587 2500 2615 2446 2727 1778 2503 3229 3192
0 0 0 0 0 0 0 0 23 22 52 118 18 453 262 357 257 49 1 44 54 103 304 646 847 878 922 1395 1811 2629 2715 4054 3248 3049 3044 2543 2199 2330 1953 2124 3218 2769 3074 3204
0 0 0 0 0 0 0 0 0 16 23 18 26 29 66 261 277 230 117 37 26 59 82 626 870 888 978 1400 2172 2571 2838 3574 2972 3566 2908 2945 3158 3743 2610 2801 2389 2837 3101 3153
0 0 0 0 0 0 0 0 0 0 29 3 72 80 268 147 459 172 109 96 60 65 98 140 633 1089 1003 1407 2152 2846 3145 3180 3813 2900 3216 3099 2358 2466 2182 2655 2416 2904 2696 2720
0 0 0 0 0 0 0 0 0 0 0 120 137 29 115 236 405 403 146 106 69 122 59 51 364 788 967 1432 1880 2897 3383 3678 3518 3692 3424 3492 3413 1752 2706 2461 3098 3131 2817 2537
0 0 0 0 0 0 0 0 0 0 1 48 83 41 195 248 77 89 279 226 441 242 247 167 218 670 1036 1254 1708 2191 3622 3758 3698 3844 3633 3765 3317 2660 2766 3268 2385 2050 1925 2239
0 0 0 0 0 0 0 0 0 0 49 9 81 184 246 180 137 81 29 66 499 578 390 402 312 559 1153 1266 1569 2268 3552 3871 3931 4036 4009 3513 3941 3537 3520 4303 2245 1648 1280 1261
0 0 0 0 0 0 0 0 0 2 13 21 23 39 236 261 62 5 12 1 263 489 635 640 733 587 1198 1263 1689 2149 3452 3811 4102 3840 4248 4153 3723 3950 3285 3325 2922 1920 1678 1722
0 0 0 0 0 0 0 0 0 0 2 40 43 44 43 216 46 59 2 13 59 532 761 699 893 919 1019 1398 1670 2026 3427 3795 4089 4206 4108 4331 3943 3545 3243 3251 3054 2802 1943 2943
0 0 0 0 0 0 0 0 0 0 4 35 31 97 127 385 54 54 57 66 49 325 580 761 542 852 1089 1447 1749 2188 2810 3816 4144 4235 4199 4143 4198 3736 3288 3397 3504 2365 3355 2805
0 0 0 0 0 0 0 0 0 0 0 7 44 54 165 393 477 293 159 81 70 30 450 790 676 699 956 1177 1599 2061 2316 3661 4105 4140 4157 4249 4197 4110 3566 3343 3231 2965 2965 2804
0 0 0 0 0 0 0 0 0 0 0 0 31 51 60 136 341 437 143 100 60 49 63 391 855 806 838 903 1259 1816 2260 2563 3634 3972 4093 4250 4212 4153 4028 3338 3641 3454 3153 3256
0 0 0 0 0 0 0 0 0 0 0 13 13 0 36 219 0 9 138 69 157 212 498 506 569 898 999 957 1182 1463 1874 2175 3185 3708 3830 4181 4086 4009 3894 3867 3250 3472 3308 2791
12 0 0 0 0 0 0 0 0 0 0 0 9 38 70 273 188 254 173 136 192 644 857 515 794 892 1101 1140 1305 1366 1553 1967 2458 3409 3534 3774 3963 3937 3735 3752 3709 3579 3610 2927
1 7 0 0 0 4 0 0 0 0 0 0 0 23 34 149 315 244 317 309 281 558 973 1674 847 1221 1676 1704 1628 1566 1688 1932 2265 2957 3390 3760 4119 4082 4000 3670 3865 3526 3887 3256
18 5 0 1 0 0 11 4 0 0 0 0 0 0 12 97 265 350 24 100 304 483 498 1483 1936 1953 2455 2483 2284 1900 2000 2046 2339 2541 3225 3514 3930 4317 4203 3906 3801 3914 3809 3546
32 14 90 6 0 0 15 0 7 0 0 0 0 0 6 43 52 201 997 486 435 329 307 448 1745 2237 2316 3126 2906 2460 2323 2786 2670 3317 3235 3534 3961 4290 4278 4248 3808 3915 3723 3398
122 49 42 58 138 85 0 1 1 15 17 0 0 0 0 0 1 1 22 102 335 478 355 746 213 1550 2495 2233 2821 3522 2874 3200 3618 3484 3912 4046 4327 4474 4395 4255 4035 3647 3876 3570
54 98 46 97 47 0 0 1 21 33 46 13 1 40 5 1 0 26 5 0 22 162 725 753 204 127 1878 2056 3025 3521 3870 3426 3674 3809 4588 4328 4648 4691 4545 4456 4089 3992 3728 3169
5 231 153 74 72 49 71 54 275 275 131 262 397 143 61 164 135 100 31 14 20 21 130 639 272 131 806 2557 2851 3720 3717 4002 3741 4145 4048 4686 4921 4742 4709 4572 4335 4030 3313 2565
47 128 61 66 47 3 511 533 344 469 487 953 843 751 575 538 759 1105 762 748 49 291 44 322 1592 1939 2733 2808 3216 3867 3918 4088 4116 4429 4459 4796 4686 4856 4860 4385 3774 3428 2779 2360
58 42 89 207 205 216 543 325 192 975 1022 932 943 869 885 1022 975 834 868 1021 864 1512 631 1088 2232 3399 4100 3676 4510 4330 4308 4464 4638 4525 4537 4706 4845 4375 4025 3570 2876 2858 2423 1910
51 14 53 192 194 1066 855 1033 934 926 980 966 853 666 647 575 779 583 1333 1469 936 1285 2277 1491 2905 4757 4709 5174 4616 4422 4767 4515 4345 4207 4457 4581 4368 4004 3531 3004 2402 1957 1857 1180
156 173 22 223 910 1043 743 651 706 675 898 1549 1541 1393 1347 967 1413 1670 1724 1529 1816 2651 2917 3423 3413 3662 4071 4634 4631 4705 4288 4488 4378 4564 4236 3601 2692 2440 2030 1378 1122 1121 1156 1094
360 201 399 181 1289 606 439 410 410 868 1097 1117 935 1468 1304 1681 1694 1891 2026 2315 2572 2797 3012 3484 3655 3785 4546 4712 4554 4507 4388 4246 3881 2982 2708 2489 1989 1832 353 0 402 1018 20 404
34 145 328 870 305 477 656 372 387 248 361 518 554 679 548 333 272 335 1233 2049 1968 2102 2426 2305 2176 2560 3084 3236 3180 3315 3707 3109 2526 2009 1721 1570 1600 1027 168 0 0 0 0 0

GFSCGP_con_sbcape_027.txt.gz
CAPE
0 0 0 0 0 0 0 0 0 0 13 0 17 2 0 0 0 0 69 28 62 73 46 142 152 457 532 783 1235 756 1109 1616 1471 1630 1698 1753 1516 1663 1625 1652 1707 1475 1655 1670
0 0 0 0 0 0 0 0 0 0 1 23 83 11 0 0 0 0 0 23 32 56 28 138 154 229 491 719 1076 895 1074 2149 1525 1604 1522 1504 1086 1406 1363 1149 1346 1079 1860 1640
0 0 0 0 0 0 0 0 0 0 3 6 64 159 0 0 0 3 0 6 33 43 45 142 150 193 327 561 1104 1180 1414 2128 1862 1748 1655 1640 1518 1578 1728 1319 1459 1954 1884 1894
0 0 0 0 0 0 0 0 0 0 0 0 51 67 24 1 11 6 0 0 0 24 58 85 197 240 316 668 1093 1079 1492 2247 1616 1910 1421 1364 1314 1247 1316 1656 1139 1560 1793 1752
0 0 0 0 0 0 0 0 0 0 0 3 0 0 21 47 56 43 0 0 0 0 16 97 286 215 387 651 973 1554 1354 2214 1551 1474 1688 1434 1482 1132 928 739 1455 2008 1602 1341
0 0 0 0 0 0 0 0 0 0 0 0 0 1 0 10 73 59 46 14 0 0 0 35 134 333 342 708 1329 1693 1553 1545 2236 1229 1635 1812 1928 1333 476 1437 1635 1539 1068 1074
0 0 0 0 0 0 0 0 0 0 0 0 5 0 0 18 46 124 129 43 18 0 0 0 113 374 371 668 1144 1804 1774 1796 2027 2217 2063 2089 2204 1763 1396 1219 811 1009 692 745
0 0 0 0 0 0 0 0 0 0 0 0 0 1 2 27 33 163 38 8 0 26 0 0 0 195 483 505 1071 2109 2032 1985 2328 2253 2169 2068 1997 2669 1510 1760 1008 262 702 512
0 0 0 0 0 0 0 0 0 0 0 0 0 0 0 2 31 15 13 2 0 0 53 2 2 61 399 505 1072 1342 2373 2235 2408 2627 2447 2395 2018 2032 2721 1909 1801 812 374 652
0 0 0 0 0 0 0 0 0 0 0 0 0 0 0 11 34 6 11 15 8 1 0 22 9 49 405 581 914 1382 2601 2510 2689 2250 2824 2926 2616 2221 2245 2196 1750 1928 823 1198
0 0 0 0 0 0 0 0 0 0 0 0 0 0 0 21 75 24 7 16 6 0 85 43 96 63 522 664 881 1340 2393 2615 2882 2792 2527 2849 3123 2740 2160 2389 1968 1496 1548 1198
0 0 0 0 0 0 0 0 0 0 0 0 0 0 0 0 156 84 17 6 0 0 0 48 252 317 485 728 860 1299 2607 2643 2899 3095 2994 2741 2912 3086 2596 2124 2058 2077 1333 1522
0 0 0 0 0 0 0 0 0 0 0 0 0 0 0 0 157 68 0 0 16 0 4 287 200 418 559 936 949 1294 2119 2788 2999 3119 3291 3180 2984 3064 3058 2494 2265 2288 1923 1568
46 0 0 0 0 0 0 0 0 0 0 0 0 0 0 19 63 26 34 51 0 20 2 105 272 249 561 759 1147 1252 1536 2616 3036 3297 3239 3260 3203 3209 3197 3127 2448 2487 2399 1849
0 0 0 0 0 0 0 0 0 0 0 0 0 0 0 0 85 27 15 1 0 105 217 138 349 302 329 518 843 1174 1551 1588 2803 3170 3208 3111 3260 3319 3252 3171 3067 2328 2507 2345
0 0 0 0 0 0 0 0 0 0 0 0 0 0 0 0 210 222 128 50 73 86 390 238 267 417 394 402 680 905 1258 1611 1787 2775 3016 3039 2986 3319 3243 3171 3100 3014 2434 2706
0 0 0 0 0 0 0 0 0 0 0 0 0 0 0 0 7 208 301 92 15 0 408 455 320 875 585 591 624 875 1023 1218 1612 1958 2711 2849 2925 3155 3235 3235 2985 3088 2810 2947
0 0 0 0 13 22 0 0 0 0 0 0 0 0 0 0 0 0 0 0 3 0 48 189 655 715 1222 1063 840 887 1051 1197 1495 1848 2184 2681 2887 3155 3439 3411 3148 3047 3160 3010
0 0 0 4 1 0 0 0 0 0 0 3 0 0 0 0 0 0 0 0 0 0 0 14 421 967 1326 1953 1571 1131 1109 1537 1474 1933 2125 2690 2956 3222 3482 3556 3402 3128 3159 2843
0 0 0 9 2 0 0 0 0 221 96 479 290 244 142 3 0 25 358 293 326 33 0 0 11 49 1359 1128 2321 1882 1473 1865 1758 1781 2472 2592 2948 3268 3657 3612 3500 3213 3043 2921
3 11 1 5 0 0 7 43 35 299 172 792 646 610 564 388 553 468 338 224 410 755 253 0 1 88 561 1260 2675 2606 2076 1908 2695 2629 2994 3300 3455 3830 3817 3600 3512 3308 2773 2233
78 0 0 25 10 22 496 411 401 946 917 829 734 629 550 482 388 392 335 374 294 1145 1395 799 23 573 1221 1433 2635 2765 2996 2754 2725 3611 3676 4159 4106 4013 3883 3651 3000 2300 2066 2062
29 0 3 15 300 596 647 777 570 1051 838 930 718 1534 442 704 947 1797 1709 1490 1458 1776 3145 3646 3876 4235 4364 3525 2896 3170 3687 3864 3855 3916 4048 4026 3702 3670 3049 2479 2040 1659 1282 1266
102 101 160 241 481 120 55 321 374 1087 1157 1229 1342 1469 1190 1183 1470 1265 1348 2063 2550 2751 2933 3092 3342 3664 4037 4136 4166 4170 3975 3809 3798 3779 3230 2480 2170 1853 1673 1409 1486 1149 910 847
77 28 132 233 262 577 752 310 272 777 914 469 293 256 328 403 453 852 1229 1584 2084 2383 2822 3495 3799 3843 3798 3854 3821 3782 3594 3499 3132 2316 1760 1469 874 149 1 1 182 376 0 463
24 1 170 349 2 15 1 0 227 541 650 278 108 33 47 6 1 70 214 1126 1612 2155 2281 2222 2485 2851 3038 3105 2721 2410 2418 2296 1924 1472 1392 549 160 0 0 0 0 0 0 0

GFSCGP_con_sbcape_030.txt.gz
CAPE
0 0 0 0 0 0 0 0 0 0 0 5 1 0 0 183 292 391 345 351 281 205 155 41 532 485 264 516 798 851 777 600 468 950 1102 1068 990 1025 1223 679 934 1057 1165 1546
0 0 0 0 0 0 0 0 0 0 0 0 4 0 0 3 95 201 203 205 199 143 92 67 216 430 347 374 669 598 787 793 666 862 916 992 901 1136 1023 883 1303 1150 992 1290
0 0 0 0 0 0 0 0 0 0 0 0 13 22 0 0 3 12 55 100 134 69 31 58 89 276 407 203 590 491 686 963 836 1013 995 943 712 912 1051 932 997 829 1158 1187
0 0 0 0 0 0 0 0 0 0 0 0 5 1 0 0 0 0 0 18 64 50 15 21 81 177 272 332 454 382 524 1290 1035 1077 1147 1121 1101 965 833 1124 1225 991 1318 1344
0 0 0 0 0 0 0 0 0 0 0 0 0 0 0 5 0 0 0 13 35 32 30 0 52 73 250 255 470 584 546 1373 1361 1244 1136 1070 900 801 790 674 1024 935 1200 1182
0 0 0 0 0 0 0 0 0 0 0 0 0 0 0 0 0 0 0 0 24 8 12 0 39 46 86 278 519 654 726 1202 1373 1357 1161 1055 938 771 680 534 775 1008 1050 875
0 0 0 0 0 0 0 0 0 0 0 0 0 0 0 0 0 2 0 0 0 0 0 0 9 27 45 194 473 752 816 1125 1161 1444 1152 1013 935 871 595 316 827 1080 822 525
0 0 0 0 0 0 0 0 0 0 0 0 0 0 0 0 0 4 0 0 0 0 0 1 0 33 37 166 554 951 819 929 1184 976 1379 1324 1155 1158 1067 440 693 974 923 553
0 0 0 0 0 0 0 0 0 0 0 0 0 0 0 0 0 0 12 3 0 0 0 0 25 57 66 230 593 954 957 839 1358 1295 1032 1072 1381 1506 1585 1016 386 436 343 224
0 0 0 0 0 0 0 0 0 0 0 0 0 0 0 0 0 0 39 28 1 0 0 0 0 23 142 152 513 996 1121 1035 1168 1566 1497 1434 1227 1355 1636 1175 826 240 173 308
0 0 0 0 0 0 0 0 0 0 0 0 0 0 0 0 0 0 8 17 28 3 0 0 0 2 113 258 575 1272 1325 1199 1413 1536 1612 1616 1623 1325 1245 1785 1312 922 190 340
0 0 0 0 0 0 0 0 0 0 0 0 0 0 0 0 0 0 0 14 22 19 0 0 4 0 36 290 448 1011 1774 1533 1627 1861 1886 1784 1795 1764 1528 1387 1812 1210 1052 357
0 0 0 0 0 0 0 0 0 0 0 0 0 0 0 0 0 1 3 1 0 0 0 0 7 1 14 223 423 969 1713 1926 1879 1996 1988 2200 2217 2196 2058 1722 1593 1631 1242 956
0 0 0 0 0 0 0 0 0 0 0 0 0 0 0 0 0 3 23 14 3 0 0 0 0 6 42 334 500 816 1329 2139 2183 2316 2115 2104 2295 2581 2497 2199 1814 1701 1757 1019
0 0 0 0 0 0 0 0 0 0 0 0 0 0 0 0 0 0 0 8 4 0 0 0 0 10 52 405 578 793 1296 2012 2275 2515 2566 2385 2333 2410 2706 2630 2234 1869 1784 1860
0 0 0 0 0 0 0 0 0 0 0 0 0 0 0 0 0 0 0 0 0 0 0 0 0 46 187 467 666 861 1117 2065 2272 2574 2705 2729 2721 2592 2590 2792 2767 2186 2093 1919
0 0 0 0 0 0 0 0 0 0 0 0 0 0 0 0 0 0 0 0 11 0 0 7 10 88 285 493 785 870 1164 1723 2394 2573 2735 2791 2872 2884 2859 2852 2847 2766 2229 2104
0 0 0 0 0 0 0 0 0 0 0 0 0 0 0 0 0 0 0 0 0 0 0 13 107 128 252 417 714 1034 1214 1453 2311 2509 2713 2864 2834 2904 2927 3002 2918 2870 2678 2164
0 0 0 0 0 0 0 0 0 0 0 0 0 0 0 0 0 0 0 0 0 0 0 3 154 295 326 332 363 677 959 1429 1633 2363 2488 2730 2809 2767 3015 2996 2963 2816 2861 2499
0 0 0 0 0 0 0 0 0 0 0 113 0 0 0 0 0 0 19 0 0 0 0 0 3 421 805 712 400 546 686 1073 1472 1702 2041 2559 2692 2745 2788 3038 2962 2851 2895 2796
64 22 10 0 0 0 1 0 0 0 0 160 4 0 0 1 0 0 27 0 22 144 255 1 0 0 710 989 887 651 699 878 1119 1556 1716 1857 2519 2690 2811 3079 3115 2950 2834 2608
91 96 9 0 0 1 4 109 0 12 236 174 91 44 43 31 488 559 474 297 10 341 870 530 0 0 0 751 1493 1063 882 931 1125 1204 1369 1792 2297 2666 2875 3228 3173 2813 2669 2327
60 65 0 0 2 0 0 510 876 879 1062 953 819 641 1162 1294 1545 1965 2358 2442 2393 2550 2694 2604 1575 2507 2899 372 1929 1710 1364 1147 1469 1502 1748 2177 2473 2778 3186 3251 3009 2452 1989 1698
145 78 30 7 1 29 0 0 471 323 298 196 252 635 931 1071 1423 1771 2091 2299 2508 2599 2951 3083 3123 3028 3190 2884 1890 1857 1973 1637 2118 2218 3188 3452 3298 3311 3153 2891 2543 1896 1334 952
53 92 37 1 16 24 2 0 100 168 71 53 0 3 144 669 877 1465 1600 1943 2161 2208 2191 2483 2899 2978 2737 2778 2950 3149 3113 2954 3269 3338 3152 2660 1943 1147 15 1 551 645 194 404
13 8 18 182 39 14 7 0 0 0 0 0 0 0 0 0 20 343 553 1070 1716 2010 2105 2140 1942 1938 2013 1740 1380 1691 2476 2473 2316 1289 809 480 37 1 1 0 0 0 1 0

GFSCGP_con_sbcape_033.txt.gz
CAPE
0 0 0 0 0 0 0 0 0 0 0 0 0 0 361 288 246 184 147 275 369 512 565 505 502 487 377 268 184 434 412 556 469 496 681 566 446 400 625 441 477 503 952 1158
0 0 0 0 0 0 0 0 0 0 0 0 0 0 250 272 317 259 168 124 145 112 85 133 296 502 423 132 119 333 516 505 544 519 698 685 527 497 501 718 392 831 979 1173
0 0 0 0 0 0 0 0 0 0 0 0 0 0 37 291 374 359 298 209 141 115 89 1 195 404 409 116 213 389 498 365 479 463 390 528 422 614 687 602 707 932 828 1136
0 0 0 0 0 0 0 0 0 0 0 0 0 0 0 38 215 234 251 230 197 128 113 69 93 317 326 144 277 389 471 466 346 300 508 547 495 533 613 792 752 631 783 1036
0 0 0 0 0 0 0 0 0 0 0 0 0 0 0 0 0 4 32 70 90 103 106 78 11 150 280 210 262 390 373 522 503 493 575 586 519 501 371 493 820 756 753 903
0 0 0 0 0 0 0 0 0 0 0 0 0 0 0 0 0 0 0 17 24 21 40 35 13 29 171 246 143 404 280 583 607 576 674 692 644 514 383 266 562 553 687 779
0 0 0 0 0 0 0 0 0 0 0 0 0 0 0 0 0 0 0 0 3 1 6 2 2 22 71 195 190 365 285 621 781 742 766 752 661 490 465 296 379 526 622 518
0 0 0 0 0 0 0 0 0 0 0 0 0 0 0 0 0 0 0 0 0 0 0 0 0 0 17 87 146 299 333 540 897 958 870 799 697 615 528 271 235 502 708 734
0 0 0 0 0 0 0 0 0 0 0 0 0 0 0 0 0 0 0 0 0 0 0 0 1 0 1 11 108 309 431 481 872 986 961 872 780 717 596 279 198 428 649 735
0 0 0 0 0 0 0 0 0 0 0 0 0 0 0 0 0 0 0 0 0 0 0 1 0 0 0 8 61 218 461 542 734 977 1024 978 881 793 693 555 332 392 404 471
0 0 0 0 0 0 0 0 0 0 0 0 0 0 0 0 0 0 0 0 0 0 0 0 3 0 0 15 24 239 522 557 709 890 923 1015 1057 1022 1008 888 670 385 165 58
0 0 0 0 0 0 0 0 0 0 0 0 0 0 0 0 0 0 0 0 0 0 0 0 0 0 1 14 37 314 573 640 614 970 948 847 839 826 990 1283 1062 636 233 117
0 0 0 0 0 0 0 0 0 0 0 0 0 0 0 0 0 0 0 0 0 0 0 0 0 0 0 19 22 324 654 796 714 825 1094 1104 1063 1101 943 987 1260 1164 730 188
0 0 0 0 0 0 0 0 0 0 0 0 0 0 0 0 0 0 0 0 0 0 0 0 0 0 0 1 107 282 821 928 867 946 1096 1204 1222 1254 1274 1073 911 1276 1338 898
0 0 0 0 0 0 0 0 0 0 0 0 0 0 0 0 0 0 0 0 0 0 0 0 0 0 0 0 101 233 685 1181 1104 1145 1312 1300 1403 1404 1491 1442 1264 1098 1284 1334
0 0 0 0 0 0 0 0 0 0 0 0 0 0 0 0 0 0 0 0 0 0 0 0 0 0 0 0 79 256 651 1357 1411 1395 1570 1582 1623 1733 1793 1808 1735 1466 1329 1364
0 0 0 0 0 0 0 0 0 0 0 0 0 0 0 0 0 0 0 0 0 0 0 0 0 0 1 1 144 312 554 1015 1703 1716 1764 1778 1735 1813 1924 2087 2106 1869 1561 1440
0 0 0 0 0 0 0 0 0 0 0 0 0 0 0 0 0 0 0 0 0 0 0 0 0 0 0 27 204 394 610 961 1693 1897 1974 2097 1999 1949 1969 2042 2232 2268 1951 1676
0 0 0 0 0 0 0 0 0 0 0 0 0 0 0 0 0 0 0 0 0 0 0 0 0 0 0 40 255 504 653 920 1647 1904 2107 2229 2328 2304 2248 2203 2248 2350 2378 1954
0 0 0 0 0 0 0 0 0 0 0 0 0 0 0 0 0 0 0 0 0 0 0 0 0 0 4 135 429 693 729 982 1570 1976 2101 2281 2385 2441 2454 2430 2383 2383 2483 2419
0 4 0 0 0 0 0 0 0 0 0 0 0 0 0 0 0 0 0 0 0 0 0 0 0 25 134 157 431 766 897 1013 1209 1673 2117 2244 2426 2470 2435 2506 2513 2522 2537 2493
23 69 0 0 10 0 0 4 35 0 0 0 0 0 0 0 0 0 0 0 0 2 380 0 0 0 0 293 214 411 656 927 1171 1321 1491 2054 2133 2426 2427 2423 2594 2618 2635 2611
23 45 1 13 0 0 0 5 0 7 9 83 0 137 269 663 833 851 1132 1684 2112 2238 2357 2228 1604 1297 1547 2 475 261 307 546 681 840 1097 1199 1662 2110 2354 2449 2669 2758 2626 2599
39 84 58 170 111 0 59 0 0 0 18 14 365 731 1251 1532 1627 1790 1849 2045 2311 2297 2494 2561 2516 2292 1906 1978 1706 1028 1053 445 448 569 747 1032 1168 1716 2202 2511 2677 2754 2574 2434
7 72 38 133 68 0 103 0 0 1 0 4 1 0 239 1176 1214 1485 1638 1869 1983 2084 2094 1999 2306 2215 2041 1783 1508 1442 1760 1364 750 948 838 1229 1428 1508 929 0 1562 2657 1008 1830
15 130 47 46 21 0 0 0 0 0 0 0 0 0 0 0 18 407 610 881 1231 1340 1369 1550 1527 1611 1785 1558 1494 1320 987 1001 1758 1357 600 239 7 1 1 0 0 1 1 25

GFSCGP_con_sbcape_036.txt.gz
CAPE
0 0 0 0 0 0 0 0 0 0 0 0 0 0 134 221 263 344 415 385 342 337 293 397 438 428 376 442 286 308 319 231 215 364 338 365 392 230 216 267 475 566 654 1009
0 0 0 0 0 0 0 0 0 0 0 0 0 0 153 209 254 352 444 449 420 390 311 413 414 311 260 342 210 237 253 223 197 287 427 457 404 141 320 520 367 494 689 1048
0 0 0 0 0 0 0 0 0 0 0 0 0 0 31 214 193 192 214 409 445 418 402 394 384 323 269 254 185 173 268 227 325 253 223 145 176 328 323 386 553 476 735 1096
0 0 0 0 0 0 0 0 0 0 0 0 0 0 0 109 174 142 69 85 206 217 306 171 314 255 334 250 161 141 208 287 354 284 281 432 566 680 595 406 490 656 805 785
0 0 0 0 0 0 0 0 0 0 0 0 0 0 0 2 125 128 148 129 89 45 59 10 0 264 223 334 157 64 118 267 273 343 376 355 496 370 90 371 553 447 510 803
0 0 0 0 0 0 0 0 0 0 0 0 0 0 0 0 77 153 112 149 170 110 43 18 0 17 139 250 148 81 167 275 264 265 349 341 377 138 166 200 475 473 491 590
0 0 0 0 0 0 0 0 0 0 0 0 0 0 0 0 0 17 76 46 83 133 101 56 14 0 65 129 142 93 181 257 311 257 296 365 332 229 278 170 308 345 413 495
0 0 0 0 0 0 0 0 0 0 0 0 0 0 0 0 0 0 1 17 11 11 31 55 34 0 0 90 142 105 205 213 306 387 371 421 443 417 376 220 235 298 458 599
0 0 0 0 0 0 0 0 0 0 0 0 0 0 0 0 0 0 0 0 0 0 0 3 6 11 0 12 123 75 209 177 262 486 498 489 522 548 464 312 201 269 487 624
0 0 0 0 0 0 0 0 0 0 0 0 0 0 0 0 0 0 0 0 0 0 0 0 0 0 0 0 57 118 151 204 269 547 616 614 609 589 530 376 253 285 354 675
0 0 0 0 0 0 0 0 0 0 0 0 0 0 0 0 0 0 0 0 0 0 0 0 1 5 1 0 13 66 121 210 246 622 738 759 722 673 605 505 442 302 336 499
0 0 0 0 0 0 0 0 0 0 0 0 0 0 0 0 0 0 0 0 0 0 0 0 0 2 1 0 1 28 74 238 303 487 779 834 804 759 665 634 671 477 343 272
0 0 0 0 0 0 0 0 0 0 0 0 0 0 0 0 0 0 0 0 0 0 0 0 0 0 0 0 0 18 69 252 362 466 686 828 864 855 827 842 893 714 490 304
0 0 0 0 0 0 0 0 0 0 0 0 0 0 0 0 0 0 0 0 0 0 0 0 0 0 0 0 0 7 92 250 410 488 718 757 832 878 922 992 1078 1045 735 405
0 0 0 0 0 0 0 0 0 0 0 0 0 0 0 0 0 0 0 0 0 0 0 0 0 0 0 0 2 26 134 342 519 570 685 858 809 803 854 881 959 1126 1164 875
0 0 0 0 0 0 0 0 0 0 0 0 0 0 0 0 0 0 0 0 0 0 0 0 0 0 0 0 5 51 203 525 658 705 725 860 1035 1056 1043 1080 960 860 1133 1260
0 0 0 0 0 0 0 0 0 0 0 0 0 0 0 0 0 0 0 0 0 0 0 0 0 0 0 0 4 147 270 637 832 862 894 970 1076 1192 1209 1260 1242 1111 954 1106
0 0 0 0 0 0 0 0 0 0 0 0 0 0 0 0 0 0 0 0 0 0 0 0 0 0 0 0 0 96 242 631 1072 1058 1041 1183 1266 1309 1374 1383 1479 1440 1300 1166
0 0 0 0 0 0 0 0 0 0 0 0 0 0 0 0 0 0 0 0 0 0 0 0 0 0 0 0 0 30 253 608 1212 1314 1313 1389 1567 1523 1500 1613 1758 1771 1705 1539
0 0 0 0 0 0 0 0 0 0 0 0 0 0 0 0 0 0 0 0 0 0 0 0 0 0 0 0 0 30 262 596 1054 1565 1629 1648 1707 1703 1624 1689 1816 1944 1994 1932
0 0 0 0 0 0 0 3 6 0 0 0 0 0 0 0 0 0 0 0 0 0 0 0 0 0 0 0 0 108 286 601 980 1374 1700 1804 1902 1960 1910 1869 1860 1907 2046 2193
0 0 2 1 2 0 9 9 4 0 0 0 1 0 0 0 0 0 0 0 0 0 0 0 0 0 0 0 100 250 402 697 839 1194 1649 1879 2052 2176 2191 2228 2166 2020 2137 2353
0 0 4 0 0 0 32 0 0 0 0 0 1 0 0 0 0 0 0 623 1282 1695 1733 1011 1170 1586 1654 353 0 9 35 227 607 897 1144 1759 2010 2215 2414 2487 2500 2469 2506 2460
17 2 73 31 0 0 97 38 0 0 0 0 0 1 18 118 463 1126 1547 1633 1192 1158 1307 1333 1662 1758 1973 1819 1472 1396 1655 1068 199 465 707 999 1423 1959 2222 2273 2410 2597 2656 2604
0 0 0 26 0 44 176 0 0 1 0 0 24 12 816 1150 1155 1393 1375 1269 1068 995 1125 1425 1535 1474 1757 1705 1739 1624 1864 935 417 553 592 1019 858 24 0 0 1 149 2 708
2 0 6 0 0 43 62 0 0 30 4 21 86 140 107 547 484 511 369 402 482 409 488 531 624 533 574 763 985 975 760 1355 623 117 20 12 1 1 5 14 0 0 0 0

GFSCGP_con_sbcape_039.txt.gz
CAPE
0 0 0 0 0 0 0 0 0 0 0 0 0 9 0 165 654 833 643 447 369 386 399 526 657 735 882 1063 1183 1170 1135 1495 1190 1001 819 697 430 521 898 1373 1649 1807 2027 2138
0 0 0 0 0 0 0 0 0 0 0 0 0 0 0 88 390 691 789 648 524 419 460 580 687 801 938 1089 1200 1358 1496 1664 1341 1102 1256 864 1010 825 1223 1594 1699 1813 1953 2207
0 0 0 0 0 0 0 0 0 0 0 0 0 0 0 180 323 499 734 759 671 664 596 646 704 853 934 1094 1389 1644 1901 1831 1480 1470 1100 1119 1133 1321 1317 1389 1694 1739 1882 2111
0 0 0 0 0 0 0 0 0 0 0 0 0 0 0 29 405 462 586 755 779 808 728 688 712 898 957 1265 1231 1550 1588 1787 1512 1709 1357 1637 954 1089 1128 1312 1614 1637 1952 2025
0 0 0 0 0 0 0 0 0 0 0 0 0 0 0 4 258 461 537 604 708 775 754 744 786 1065 985 1063 1030 1230 1642 1874 1826 1846 1753 1432 1501 1179 1305 1415 2109 2583 2302 2127
0 0 0 0 0 0 0 0 0 0 0 0 0 0 0 0 77 351 490 533 499 662 686 769 852 897 889 857 897 902 1477 1742 1848 1862 1818 1998 1978 1833 1412 1519 1491 1544 1533 1557
0 0 0 0 0 0 0 0 0 0 0 0 0 0 0 0 0 1 323 509 502 423 461 599 754 731 1205 1107 1198 1206 1497 1652 1862 1819 1834 1901 2002 2210 2241 2042 1463 1638 1247 1453
0 0 0 0 0 0 0 0 0 0 0 0 0 0 0 0 0 0 7 208 445 534 479 432 813 678 637 1229 1394 1485 1461 1541 1662 1733 1827 1935 2062 1681 1755 1840 1371 1280 1252 1366
0 0 0 0 0 0 0 0 0 0 0 0 0 0 0 0 0 0 0 33 254 473 589 571 530 732 669 818 1246 1524 1517 1562 1660 1670 1770 1836 1961 1940 1792 2181 2228 1413 2092 1503
0 0 0 0 0 0 0 0 0 0 0 0 0 0 0 0 0 0 0 0 13 223 377 525 707 888 841 673 1038 1331 1459 1606 1646 1673 1691 1681 1780 1895 1980 2161 2142 2082 2214 1922
0 0 0 0 0 0 0 0 0 0 0 0 0 0 0 0 0 0 0 0 0 0 57 177 633 933 1005 869 623 1108 1352 1538 1623 1649 1739 1790 1795 1883 1997 2035 2144 2266 2330 2376
0 0 0 0 0 0 0 0 0 0 0 0 0 0 0 0 0 0 0 0 0 0 1 33 110 466 517 953 826 915 1177 1223 1518 1562 1763 1851 1915 1959 1998 2070 2133 2275 2301 2493
0 0 0 0 0 0 0 0 0 0 0 0 0 0 0 0 0 0 0 0 0 0 4 26 11 223 711 801 865 735 972 1032 1160 1554 1703 1938 2004 2081 2115 2151 2231 2312 2272 2360
0 0 0 0 0 0 0 0 0 0 0 0 0 0 0 0 0 0 0 0 0 0 4 80 60 218 596 813 906 873 996 1030 1153 1415 1598 1979 2135 2139 2138 2191 2289 2332 2348 2312
0 0 0 0 0 0 0 0 0 0 0 0 0 0 0 0 0 0 0 0 0 0 0 22 182 514 807 956 1101 952 947 1243 1282 1564 1582 1836 2121 2268 2276 2299 2316 2321 2411 2262
0 0 0 0 0 0 0 0 0 0 0 0 0 0 0 0 0 0 0 0 0 0 0 2 133 330 810 959 1019 1006 1104 1214 1418 1641 1727 1892 2187 2322 2297 2322 2382 2443 2474 2415
0 0 0 0 0 0 0 0 0 0 0 0 0 0 0 0 0 0 0 0 0 0 0 0 145 482 923 805 1034 1040 1200 1298 1562 1759 1872 2075 2268 2307 2340 2352 2412 2468 2536 2601
0 0 0 0 0 0 0 0 0 0 0 0 0 0 0 0 0 0 0 0 0 0 0 0 0 12 490 433 374 1067 1100 1499 1745 1884 2062 2212 2329 2330 2341 2374 2370 2425 2445 2596
0 0 0 0 0 0 0 0 0 0 0 0 0 0 0 0 0 0 0 0 0 0 0 0 0 0 268 573 720 1092 1389 1573 1854 2017 2168 2205 2285 2371 2469 2452 2449 2486 2427 2409
0 0 0 0 0 0 0 0 0 0 0 0 0 0 0 0 0 0 0 0 0 0 0 0 0 0 0 692 256 1075 1450 1733 1970 2182 2249 2354 2405 2276 2423 2550 2565 2611 2682 2556
3 2 0 0 0 0 0 0 31 0 0 0 0 0 0 0 0 0 0 0 0 0 0 0 0 0 59 38 1000 1280 1530 1864 1978 2022 2151 2736 2684 2721 2637 2526 2529 2251 2544 2852
0 2 3 0 0 0 0 0 0 24 2 0 0 0 0 0 9 52 0 0 0 0 0 0 0 21 191 390 1295 1865 2043 1983 1765 2025 2366 3030 3068 2518 2199 2798 2367 2168 2304 2726
15 0 28 0 0 0 0 0 0 0 0 0 6 0 0 0 2 135 39 0 311 948 921 0 788 1603 1461 758 1107 1446 1804 1857 2003 2058 2441 2753 2976 2880 3092 2888 1949 2612 2348 2519
9 52 74 28 0 0 0 0 0 0 0 36 48 26 3 4 168 585 0 736 2366 2100 1608 2074 2520 2245 2294 1981 2003 1836 1818 1778 2339 2460 2644 2854 2970 2976 3014 2921 2954 2792 2964 2859
9 29 22 4 0 0 0 0 0 0 0 1 74 87 49 353 1205 444 835 1796 2104 2087 2057 2205 2608 2494 2783 2736 2228 2914 2795 2259 1833 1997 2202 2450 1880 945 333 324 1421 1521 369 2200
7 8 13 0 0 9 1 29 29 27 24 18 88 10 319 1037 1004 1388 1185 1025 1225 1163 1131 1304 1270 1175 1191 1400 1586 1545 1622 1617 1251 794 881 584 550 622 932 460 3 1 1 1

GFSCGP_con_sbcape_042.txt.gz
CAPE
0 0 0 0 0 0 0 0 0 0 0 0 29 72 93 107 580 665 1056 1033 954 795 580 537 607 538 604 804 974 1184 1231 1964 1414 1255 1082 770 452 336 218 512 1079 1988 2608 2621
0 0 0 0 0 0 0 0 0 0 0 0 0 0 6 7 203 490 846 1053 1038 885 670 621 666 610 659 908 1191 1544 1544 2065 1971 1416 1360 722 436 241 346 928 1831 2501 2545 2834
0 0 0 0 0 0 0 0 0 0 0 0 0 0 0 0 8 125 459 880 967 968 792 699 607 683 640 876 1322 1709 2155 2106 2192 2289 1324 1128 654 715 706 1327 1969 2372 2394 2490
0 0 0 0 0 0 0 0 0 0 0 0 0 9 26 13 33 171 273 726 960 1002 942 743 608 604 711 999 1368 1775 2173 2406 2304 2155 1807 2434 973 644 831 1507 1472 1779 2277 2255
0 0 0 0 0 0 0 0 0 0 0 0 0 0 0 0 1 133 367 489 913 1009 1053 906 743 602 642 889 1242 1633 2190 2806 2894 2624 2608 1869 1936 572 1085 1235 2626 3133 2879 2426
0 0 0 0 0 0 0 0 0 0 0 0 0 0 0 0 0 15 196 383 781 893 1003 1113 1031 613 757 831 1152 1557 2476 3520 3243 2657 2333 3381 2854 1806 1452 2131 1793 1759 1745 1762
0 0 0 0 0 0 0 0 0 0 0 0 0 0 0 0 0 0 17 257 593 977 969 1082 1192 1092 760 875 1189 1616 3110 3651 3271 2650 2740 2816 3209 3009 3297 2967 2065 2474 1381 1433
0 0 0 0 0 0 0 0 0 0 0 0 0 0 0 0 0 0 0 2 440 747 963 1007 1231 1333 1249 1044 1687 2143 3079 3358 2759 2747 3517 3672 3795 2061 2059 2794 2047 1784 1417 1278
0 0 0 0 0 0 0 0 0 0 0 0 0 0 0 0 0 0 0 0 0 435 820 959 1085 1260 1467 1597 2189 2624 3207 3596 3564 2892 3814 3824 3603 3405 2315 3209 3621 2197 2868 1468
0 0 0 0 0 0 0 0 0 0 0 0 0 0 0 0 0 0 0 0 0 81 646 883 899 1083 1270 1506 1845 2475 3242 3586 3469 2673 3112 2958 3422 3564 3555 3642 3678 3456 3225 2735
0 0 0 0 0 0 0 0 0 0 0 0 0 0 0 0 0 0 0 0 0 92 459 877 1015 1000 1155 1307 1379 1976 2583 3105 3012 3124 3324 3466 3429 3056 3299 2981 3608 3755 3582 3663
0 0 0 0 0 0 0 0 0 0 0 0 0 0 0 0 0 0 0 0 0 1 119 368 477 790 1005 1259 1339 1495 1830 2109 2401 2869 3427 3474 3571 3485 3125 3510 3509 3408 3792 3813
0 0 0 0 0 0 0 0 0 0 0 0 0 0 0 0 0 0 0 0 0 0 0 47 115 327 814 1166 2021 1353 1476 1640 1863 2568 2327 3012 3378 3283 3533 3676 3624 3636 3818 3939
0 0 0 0 0 0 0 0 0 0 0 0 0 0 0 0 0 0 0 0 0 0 0 0 43 210 383 1138 2201 2577 1606 1367 1583 1807 2170 2970 3436 3475 3473 3609 3768 3810 3870 4069
0 0 0 0 0 0 0 0 0 0 0 0 0 0 0 0 0 0 0 0 0 0 0 1 119 124 228 796 2142 2401 1916 2149 1853 2553 2556 2921 3361 3591 3715 3727 3794 3823 3908 3924
0 0 0 0 0 0 0 0 0 0 0 0 0 0 0 0 0 0 0 0 0 0 0 0 5 333 617 1031 1440 1615 2207 2080 2240 2837 2758 3103 3460 3790 3781 3845 3885 3988 3934 4046
0 0 0 0 0 0 0 0 0 0 0 0 0 0 0 0 0 0 0 0 0 0 0 0 0 137 494 539 1154 1735 2304 1898 2423 2727 3032 3295 3527 3756 3920 3764 3812 4081 4136 3977
0 0 0 0 0 0 0 0 0 0 0 0 0 0 0 0 0 0 0 0 0 0 0 0 0 0 208 492 161 1267 1423 2513 2713 3033 3112 3407 3589 3707 3797 4012 3943 4140 4123 4107
0 0 0 0 0 0 0 0 0 0 0 0 0 0 0 0 0 0 0 0 0 0 0 0 0 0 0 0 74 685 1519 1650 2189 3144 3257 3453 3576 3611 3891 4048 3985 3559 3609 3541
0 0 0 0 0 0 0 0 0 0 0 0 0 0 0 0 0 0 0 0 0 0 0 0 0 0 0 0 13 380 1516 2197 2996 3177 3279 3264 3635 3934 3977 3671 3766 3425 3279 3175
3 1 0 0 0 0 0 0 6 0 30 5 0 0 0 89 50 201 198 81 0 0 0 0 0 0 155 112 471 1042 1451 2220 2948 2324 2457 2983 3572 4111 3673 3937 3907 3874 3705 3596
45 18 0 0 0 0 0 0 0 0 0 0 0 0 0 0 0 1 22 195 355 180 0 0 0 0 130 973 1166 2711 2962 2753 2845 2719 2538 3131 3582 3138 2836 4053 3914 3948 4089 3926
18 10 12 0 0 0 0 0 0 0 0 0 0 0 0 0 0 0 14 321 651 669 13 80 338 121 1136 1514 1632 2210 3674 3507 2813 2781 3270 3445 3597 3399 3755 3898 3795 3332 3597 3146
18 22 39 32 0 0 7 0 0 0 0 0 0 0 0 0 0 0 59 519 1245 504 1174 1681 1267 1610 2165 2322 2403 2257 2700 2906 3002 2989 3279 3419 3612 3589 3379 3285 3355 3204 3076 3091
32 61 50 26 16 12 12 9 0 0 0 0 0 0 0 0 0 0 33 1317 1587 1009 2061 2155 2457 2583 3073 2896 2865 2706 2637 2901 3017 3300 3359 3499 3516 3541 3659 3388 1893 3191 3617 1419
4 5 16 14 7 30 13 15 15 0 6 1 0 0 0 0 0 0 594 1822 1966 2193 2345 2876 3022 2603 2544 2105 2083 3467 3382 2796 2924 3068 3058 3010 3123 3360 3280 2812 773 1 0 0

GFSCGP_con_sbcape_045.txt.gz
CAPE
0 0 0 0 0 0 0 0 0 28 42 31 101 76 135 437 596 487 973 1130 981 661 505 522 508 405 470 653 904 1503 1953 2803 1943 1270 1163 927 507 590 251 222 991 1262 1729 2199
0 0 0 0 0 0 0 0 0 0 25 47 90 145 171 135 419 517 651 1065 1005 913 606 434 487 450 461 694 1512 2267 2582 3396 2788 1615 1806 940 1005 204 158 164 1745 1580 2031 2725
0 0 0 0 0 0 0 0 0 0 1 60 25 89 74 88 136 402 321 1000 945 1086 931 531 482 476 417 703 1668 2107 2941 3238 2901 2479 1969 1900 1265 1013 277 396 789 1870 2256 2529
0 0 0 0 0 0 0 0 0 0 7 33 0 65 54 38 73 76 182 646 973 1038 1130 832 503 479 446 663 998 2305 3216 3414 3257 3387 1941 2172 900 437 201 593 687 1762 2597 2479
0 0 0 0 0 0 0 0 0 0 0 8 6 34 67 44 31 54 117 145 692 890 1062 966 682 434 433 378 620 1576 3321 3636 3355 3369 2950 1949 1910 579 431 525 2232 2673 3707 3194
0 0 0 0 0 0 0 0 0 0 0 0 0 9 35 35 62 86 148 150 242 829 940 990 921 497 379 306 446 1163 3422 4112 3996 3974 3588 3755 2701 1988 564 1269 1389 1414 1448 2253
0 0 0 0 0 0 0 0 0 0 0 0 0 0 0 7 23 38 52 175 213 643 947 1044 976 743 712 621 974 1360 3350 4243 4300 4152 3709 3356 3806 3423 3184 3199 1652 2156 1199 1140
0 0 0 0 0 0 0 0 0 0 0 0 0 0 0 0 1 17 39 64 217 457 884 1061 1105 1022 864 1118 1550 1990 3266 4132 4308 4152 4199 4141 4063 2376 2083 2389 1857 1497 1345 1196
0 0 0 0 0 0 0 0 0 0 0 0 0 0 0 0 0 0 0 0 144 304 690 979 1186 1092 1009 1334 1969 2286 3245 4117 4341 4144 4372 4397 4221 3848 2572 2670 3418 2157 2931 1389
0 0 0 0 0 0 0 0 0 0 0 0 0 0 0 0 0 0 0 0 0 223 591 898 1099 1279 1449 1215 1789 2485 2986 4082 4138 4134 4244 4274 4362 4332 3903 3704 3900 3269 3218 3872
0 0 0 0 0 0 0 0 0 0 0 0 0 0 0 0 0 0 0 0 0 20 369 658 941 1174 1553 1395 1389 2072 2934 3503 4226 4177 4144 4285 4294 4274 4385 3970 4011 3960 4336 4555
0 0 0 0 0 0 0 0 0 0 0 0 0 0 0 0 0 0 0 0 0 3 127 412 744 1057 1227 1664 1520 1809 2279 2607 3774 3952 4069 4226 4316 4307 4225 4256 4062 4244 4293 4456
0 0 0 1 0 0 0 0 0 0 0 0 0 0 0 0 0 0 0 0 0 0 80 211 562 980 1107 1542 2297 2326 2449 2243 2445 3506 3496 4049 4206 4315 4226 4253 4354 4295 4398 4463
0 0 0 0 0 0 0 0 0 0 0 0 0 0 0 0 0 0 0 0 0 10 99 232 472 773 1109 1585 2475 2818 2153 1997 2396 2829 3200 3784 4271 4217 4196 4250 4425 4364 4484 4449
0 0 0 0 3 0 0 0 0 0 0 0 0 0 0 0 0 0 0 0 0 0 0 0 16 130 379 1453 2683 3113 2452 2657 2254 3186 3448 3719 4158 4409 4455 4364 4297 4417 4451 4439
0 0 1 0 1 0 0 0 0 0 0 0 0 0 0 0 0 0 0 0 0 0 0 0 0 82 214 881 2414 2794 3295 2728 3022 3305 3359 3840 4126 4389 4498 4489 4433 4559 4540 4576
1 0 17 8 1 0 0 0 0 0 0 0 0 0 0 0 0 0 0 0 0 0 0 0 0 5 240 485 1058 2046 3011 3318 3234 3223 3900 3857 4196 4272 4507 4591 4608 4526 4573 4620
1 4 6 15 9 3 0 0 0 0 0 0 0 0 0 0 0 0 0 0 0 0 0 0 0 0 16 160 371 1527 1324 3378 3596 3740 3354 4133 4140 4333 4524 4642 4645 4689 4702 4697
0 3 9 2 6 0 0 0 0 0 0 0 0 0 0 0 0 0 0 0 0 0 0 0 0 0 0 0 130 372 1249 2185 3479 3751 3886 3568 4290 4415 4612 4634 4729 4743 4697 4701
0 0 0 11 4 20 9 0 0 0 0 0 0 0 0 0 0 0 4 4 17 23 7 83 5 0 0 0 0 3 399 2771 3556 3789 3895 4145 4383 4540 4545 4699 4814 4788 4728 4649
1 1 1 1 5 4 0 2 2 0 132 32 10 0 1 4 221 273 151 85 92 183 332 260 153 41 222 149 432 1086 1039 1906 3175 3178 3763 4399 4471 4654 4707 4802 4847 4791 4676 4196
36 8 4 2 6 3 0 0 8 13 12 0 0 1 3 2 0 7 41 103 127 234 526 559 478 304 234 608 1693 2578 2881 2957 4107 3894 3959 4387 4634 4304 4183 4910 4886 4853 4793 4708
7 26 13 4 0 0 0 1 0 0 0 0 0 0 0 0 0 0 0 21 180 273 973 1128 636 1240 1076 1416 2008 3039 3816 4629 4447 4536 4505 4613 4755 4645 4560 4773 4979 4483 4734 3741
30 7 6 14 0 1 0 0 0 0 0 0 0 0 0 0 0 0 0 0 84 193 1127 1347 1033 1688 1751 1899 2243 3777 3780 4551 4741 4737 4793 4836 4868 4890 4630 4021 3914 3713 3524 3637
34 27 27 10 0 0 2 3 1 0 0 0 0 0 0 0 0 0 0 0 11 167 1419 1422 2141 2059 2011 2596 2972 2966 3224 3797 3896 3973 3648 4247 3820 4027 4165 3176 2006 3389 2615 1543
40 58 57 15 22 25 13 5 1 0 0 0 0 0 0 0 0 0 0 0 2 562 2006 2186 2626 3452 3558 3054 3578 4035 3238 3376 3531 3485 3378 3209 3295 3703 3709 2677 992 0 1 1

GFSCGP_con_sbcape_048.txt.gz
CAPE
0 0 0 0 0 0 0 7 0 0 13 24 2 69 60 40 44 84 480 839 382 465 536 750 658 701 873 998 1432 1386 1983 2597 1963 1938 1818 1846 1273 1623 1606 1736 1918 3177 3095 3067
0 0 0 0 0 0 0 0 0 0 10 26 24 64 269 75 38 26 565 346 843 471 499 770 749 736 770 1065 1386 1868 1986 2531 2355 1929 1791 1578 1844 1236 1074 1415 2172 2619 2669 3293
0 0 0 0 0 0 0 0 0 0 0 46 31 19 142 323 277 0 0 826 833 817 562 708 767 712 655 1075 1456 1864 2032 2906 2438 2063 2146 2603 2055 2366 1294 1023 1460 2013 2527 3382
0 0 0 0 0 0 0 0 0 2 14 15 58 48 123 73 130 232 382 773 659 893 818 567 622 639 577 974 1375 1961 2223 2466 2640 2564 1933 2094 1066 890 769 1119 1149 1817 2431 3048
0 0 0 0 0 0 0 0 0 0 3 8 11 73 54 151 85 60 317 269 737 711 902 690 567 573 627 849 1421 1786 2369 2390 2749 2154 2539 1710 1624 900 1138 887 1891 2006 3118 3314
0 0 0 0 0 0 0 0 0 0 0 2 0 21 8 54 136 51 84 71 782 742 990 1047 727 673 616 762 1180 1584 2336 2462 2692 2781 2172 3160 1720 1848 867 1181 1545 2361 2851 3049
0 0 0 0 0 0 0 0 0 0 0 0 0 0 26 86 135 38 83 55 184 945 1042 1224 1063 801 710 773 888 1328 2525 2820 2803 3056 2742 2187 3396 1996 2331 3480 1186 1920 1855 2358
0 0 0 0 0 0 0 0 0 0 0 0 0 0 0 2 32 99 96 66 134 416 1078 1258 1298 1039 825 771 894 1234 2421 2858 3165 2771 3079 2723 2709 3204 1721 2042 2192 1479 1894 1910
0 0 0 0 0 0 0 0 0 0 0 0 0 0 0 0 0 17 34 137 256 250 1048 1237 1394 1224 898 836 951 1077 2181 2990 3340 3159 3299 3367 2649 2758 2793 1851 2510 3062 2185 2206
0 0 0 0 0 0 0 0 0 0 0 0 0 0 0 0 0 0 0 17 98 399 663 1101 1313 1374 1128 841 955 1247 2069 3049 3509 3612 3420 3478 3418 2611 2459 2909 2020 2208 3003 3340
0 0 0 0 0 0 0 0 0 0 0 0 0 0 13 0 0 0 0 0 0 318 557 930 1221 1427 1412 1042 986 1320 1703 3026 3519 3617 3708 3560 3574 3394 2902 2284 2755 2440 2842 3071
0 0 0 0 0 0 0 0 0 0 0 0 0 2 0 0 0 0 0 0 0 79 640 826 1190 1501 1622 1463 1211 1336 1611 2121 3323 3746 3781 3770 3850 3903 3651 2996 2726 2970 3340 3526
0 0 0 0 2 0 0 0 0 0 0 0 0 0 0 0 0 0 0 0 58 344 648 916 971 1588 1752 1792 1606 1496 1798 1876 2538 3643 3828 3864 3924 3979 4008 3854 3206 3240 3062 3528
0 0 0 0 0 0 0 0 0 0 0 0 0 0 0 0 0 0 0 0 35 253 224 838 990 1153 1852 1932 2023 2080 1812 1965 2400 3094 3826 3864 3992 4030 4078 4044 3975 3481 3558 3252
0 0 0 0 0 10 0 0 0 0 0 0 0 1 0 0 0 0 1 58 69 361 532 1232 971 1102 1760 2306 2386 2420 2357 2349 2342 2651 3239 3692 3775 4080 4071 4132 4104 4091 3761 3764
0 0 0 0 0 0 6 0 0 0 0 0 0 8 2 0 0 13 53 20 128 177 191 363 370 353 892 2097 2819 2578 2649 2786 2746 3004 3049 3549 3719 3830 4105 4063 4104 4089 4150 3985
0 0 0 0 0 0 6 0 0 0 0 0 0 42 73 1 9 12 60 0 8 0 3 202 361 897 1400 1512 2802 3033 2767 2866 3229 2920 3593 3666 3788 3894 4031 4161 4155 4092 4181 4176
0 0 0 0 0 10 0 0 0 0 0 0 0 13 24 66 47 17 5 0 0 0 0 26 0 5 985 331 447 2768 3252 3512 3147 3680 3550 3999 4048 3970 4131 4226 4260 4230 4139 4240
0 0 0 0 0 0 5 0 0 0 0 10 8 4 15 0 0 4 0 0 0 27 17 21 0 0 450 259 537 2109 2341 3260 3852 3536 3537 3633 4139 4126 4120 4253 4312 4333 4297 4264
0 0 0 0 0 1 2 3 0 0 0 4 2 0 0 0 0 70 457 182 262 357 637 811 576 348 577 786 124 2728 2188 3428 3476 3640 3519 3965 3700 4190 4221 4195 4311 4388 4409 4298
0 0 0 0 0 0 0 0 0 0 167 62 32 42 0 110 469 370 168 70 155 308 454 846 1021 993 1432 1731 1802 2744 2670 3224 3634 3619 3944 3971 4056 3764 4313 4390 4405 4450 4449 4390
0 0 0 0 0 0 0 0 7 90 0 0 0 0 0 0 0 0 0 0 10 405 411 738 1428 1648 1907 1986 2084 2764 3219 3959 4701 4008 4209 4243 4432 3769 4085 4405 4496 4551 4539 4484
0 0 8 1 0 11 0 0 0 0 0 0 0 0 0 0 0 0 0 0 0 20 440 560 1686 2445 2532 2246 4207 4232 4035 4847 4885 5219 4693 4567 4456 4418 4184 4503 4511 4577 4612 4497
1 3 1 0 0 0 0 0 0 0 0 0 0 0 0 0 0 0 0 0 0 0 157 329 993 2233 2836 3995 4263 4302 4477 4669 4938 5205 4963 4828 4802 4652 4493 4517 4543 4507 4444 4475
0 0 0 1 0 0 0 0 0 0 0 0 0 0 0 0 0 0 0 0 0 0 215 416 1731 2886 3637 4920 4996 4476 4759 4622 4688 4936 4832 4819 4660 4443 4623 2616 2486 4045 1766 1683
1 16 28 38 9 9 1 0 0 0 0 0 0 0 0 0 0 0 0 0 0 0 180 304 2198 2122 3089 3998 3915 4342 4824 4936 4966 4742 4649 4213 3976 4525 4358 1191 160 1 0 1

GFSCGP_con_sbcape_051.txt.gz
CAPE
0 0 0 0 0 0 0 0 0 0 0 0 21 162 97 161 22 83 249 28 279 251 609 603 492 600 89 304 224 202 585 724 670 1045 858 1115 662 835 128 184 1256 1423 1612 1757
0 0 0 0 0 0 0 0 0 0 0 0 2 102 177 148 176 158 297 175 11 294 182 290 362 237 156 422 89 438 462 858 647 936 553 764 909 615 339 186 277 1858 1601 1659
0 0 0 0 0 0 0 0 0 0 0 0 4 96 70 51 77 19 194 8 0 116 210 205 121 164 151 298 296 264 560 1065 771 921 820 782 780 417 312 239 60 1409 1194 1276
0 0 0 0 0 0 0 0 0 0 0 0 3 14 104 30 112 23 72 75 89 87 136 228 130 180 249 352 568 194 951 1444 936 987 938 757 525 330 446 96 191 801 1178 1646
0 0 0 0 0 0 0 0 0 0 0 0 0 2 46 166 111 21 17 6 0 136 169 210 182 253 291 434 603 545 681 1341 1276 898 761 846 583 325 36 244 91 516 772 948
0 0 0 0 0 0 0 0 0 0 0 0 0 0 0 72 199 125 5 0 2 134 229 186 299 248 207 491 673 863 715 1197 1161 1101 1038 605 656 192 310 32 178 584 1495 1473
0 0 0 0 0 0 0 0 0 0 0 0 0 0 0 9 43 96 86 22 139 334 233 238 329 205 180 363 603 992 947 973 1560 982 812 1282 531 609 191 188 44 763 1735 1763
0 0 0 0 0 0 0 0 0 0 0 0 0 0 0 0 2 68 125 216 440 477 410 305 297 217 176 205 618 968 1213 1112 1316 1566 1092 668 1327 877 573 846 1245 243 1056 1615
0 0 0 0 0 0 0 0 0 0 0 0 0 0 0 0 0 0 0 17 494 480 576 458 291 268 136 232 517 849 1316 1236 1283 1512 1561 1138 666 1579 880 325 834 1187 566 1008
0 0 0 0 0 0 0 0 0 0 0 0 0 0 0 0 0 0 0 0 34 551 690 663 406 321 213 211 375 575 1305 1404 1486 1365 1630 1718 1310 782 1692 907 589 724 1307 1109
0 0 0 0 4 0 0 0 0 0 0 0 0 0 0 0 0 0 0 0 0 470 737 772 641 482 337 221 345 518 1063 1618 1801 1868 1556 1873 1900 1494 964 1761 1009 823 1081 1192
0 0 0 0 0 0 0 0 0 0 0 0 0 0 0 0 0 0 0 0 0 95 787 847 831 678 511 333 357 448 898 1590 1869 2091 2088 1892 2164 2217 1625 1176 1537 868 810 1616
0 0 0 0 0 0 0 0 0 0 0 0 0 0 0 0 0 0 0 0 0 35 783 864 962 843 696 452 378 460 582 1481 1922 2336 2406 2467 2370 2486 2417 1781 1246 1568 1130 1030
25 0 0 0 0 0 0 0 0 0 0 0 0 0 0 0 0 0 0 0 0 34 433 821 1024 955 890 619 432 457 595 984 2085 2333 2595 2684 2685 2680 2724 2666 2211 1545 1867 1633
0 0 0 0 0 0 0 0 0 0 0 0 0 0 0 0 0 26 0 0 0 50 340 508 902 1055 1056 878 597 523 655 863 1259 2413 2637 2753 2847 2893 2921 2880 2934 2665 1975 2313
0 0 0 0 0 0 0 0 0 0 0 0 0 0 0 0 8 0 0 35 324 204 430 438 507 1015 1122 1170 937 824 789 902 1048 1266 2609 2828 2953 3023 3082 3165 3084 3119 3037 2326
0 0 0 0 0 0 0 0 0 0 0 0 0 0 0 2 4 0 0 0 0 20 1 0 13 724 1217 1279 1404 1271 1088 1105 1296 1502 1581 2474 3007 3085 3140 3256 3277 3261 3275 3255
0 0 0 0 0 0 0 3 9 0 0 0 0 4 0 14 30 0 0 0 0 0 0 0 0 1 96 1505 1712 1525 1630 1750 1445 1588 1876 1908 2652 3113 3073 3167 3325 3366 3352 3360
0 0 0 0 0 0 0 0 1 5 0 14 162 90 39 26 172 182 42 8 107 214 294 253 127 125 45 3 100 2176 1908 2167 2323 2028 2386 2336 2806 2993 3162 3116 3273 3351 3360 3325
0 0 0 0 0 0 0 0 0 0 0 0 178 412 37 155 164 134 93 134 134 154 177 369 504 390 314 546 273 1557 2458 2295 2324 2459 2834 2996 3001 3162 3126 3338 3352 3583 3486 3436
0 0 0 0 0 0 0 0 0 4 0 0 0 0 0 0 0 0 0 0 53 143 97 117 408 997 1001 781 587 356 864 2090 2557 2394 2382 2886 3333 3396 3386 3339 3507 3590 3729 3691
11 10 1 0 2 0 0 0 0 0 0 0 0 0 0 0 0 0 0 0 0 2 40 40 101 284 440 1251 869 734 833 792 2078 2899 2930 2913 2998 3092 3488 3537 3588 3722 3772 3885
0 0 0 0 1 1 0 0 0 0 0 0 0 0 0 0 0 0 0 0 0 0 0 19 172 123 1084 1885 1634 1739 1761 3194 3273 3547 3250 3290 3183 3305 2560 3629 3743 3753 3837 3917
0 0 0 0 0 0 1 0 0 0 0 0 0 0 0 0 0 0 0 0 0 0 0 0 0 22 1068 2016 4187 3808 3060 2869 3161 2843 3450 3732 3467 3747 2956 3744 3761 4027 4094 4085
0 0 0 0 0 0 0 0 0 0 0 0 0 0 0 0 0 0 0 0 0 0 0 0 0 9 777 1321 2914 3554 3641 3916 4092 2861 3913 4421 3896 3687 3091 0 152 2630 736 1878
0 0 3 0 0 0 0 0 0 0 0 0 0 0 0 0 0 0 0 0 0 0 0 0 0 0 49 993 1712 2980 2855 3255 3612 3885 3824 4212 3980 3746 1474 0 0 1 0 1

GFSCGP_con_sbcape_057.txt.gz
CAPE
0 0 0 0 0 0 0 0 0 0 0 42 17 71 669 473 405 334 224 158 88 169 209 185 108 181 144 98 22 0 0 0 155 152 64 40 134 134 201 27 264 186 476 888
0 0 0 0 0 0 0 0 0 0 0 23 26 51 474 640 448 443 358 291 269 138 120 148 120 103 64 0 39 0 0 0 126 247 236 1 0 2 54 5 0 264 382 778
0 0 0 0 0 0 0 0 0 0 0 1 18 70 208 424 598 551 444 373 313 198 131 104 101 131 83 0 0 0 0 0 84 182 13 95 21 16 49 0 0 382 467 791
0 0 0 0 0 0 0 0 0 0 0 0 43 48 49 102 398 129 453 513 502 307 171 122 80 116 152 23 22 0 0 0 8 3 62 139 52 40 0 0 0 206 638 774
0 0 0 0 0 0 0 0 0 0 0 0 0 84 0 0 70 100 64 310 326 372 391 270 113 109 142 122 16 29 0 0 0 36 17 29 0 0 0 0 0 0 636 696
0 0 0 0 0 0 0 0 0 0 0 0 0 0 0 0 4 30 37 49 113 227 265 241 238 130 133 159 9 7 0 2 0 78 40 2 9 5 11 1 0 0 43 554
0 0 0 0 0 0 0 0 0 0 0 0 0 0 0 0 0 2 2 56 39 112 169 134 252 243 200 215 83 16 26 41 33 127 116 9 5 0 0 0 0 0 0 71
0 0 0 0 0 0 0 0 0 0 0 0 0 0 0 0 0 22 24 47 60 79 106 62 124 319 299 280 163 56 39 114 96 150 177 89 17 0 0 0 0 0 0 23
0 0 0 0 0 0 0 0 0 0 0 0 0 0 0 0 0 0 0 20 39 68 68 1 63 158 330 283 158 53 94 169 162 189 216 184 93 37 1 0 0 0 0 17
0 0 0 0 0 0 0 0 0 0 0 0 0 0 0 0 0 0 0 2 29 50 73 34 5 87 118 176 142 64 36 189 244 243 245 227 168 97 61 0 0 0 0 0
0 3 0 0 0 0 0 0 0 0 0 0 0 0 0 0 0 0 0 25 26 41 50 22 19 65 79 122 179 190 39 97 209 324 265 255 255 182 137 11 0 4 0 0
6 9 9 0 0 0 0 0 0 0 0 0 0 0 0 0 0 0 0 20 56 68 71 27 13 68 106 124 212 261 192 81 115 345 375 354 329 432 569 381 8 0 51 130
11 14 1 0 0 0 0 0 0 0 0 0 0 0 0 0 0 0 0 0 16 87 89 46 13 76 114 98 225 289 333 262 157 184 466 476 375 277 294 779 1001 218 11 0
28 24 0 0 0 0 0 0 0 0 0 0 0 0 0 0 0 0 0 0 0 31 66 63 58 130 145 144 127 275 403 441 360 316 402 605 734 704 524 234 289 1029 958 417
9 14 1 0 0 0 0 0 0 0 0 0 0 0 0 0 0 0 0 0 0 0 36 121 213 238 162 157 64 185 368 552 566 512 523 574 780 955 979 879 550 313 561 1056
13 7 2 0 0 0 0 0 0 0 0 0 0 0 0 0 0 0 0 0 0 0 112 297 401 304 222 173 84 75 314 520 695 716 719 708 723 973 1179 1269 1237 987 566 524
16 14 0 0 0 0 0 0 0 0 0 0 0 0 0 21 39 14 6 0 0 90 261 437 475 350 280 220 125 84 209 388 804 849 912 1016 1067 1024 1191 1482 1618 1613 1341 994
2 6 0 0 0 0 0 0 0 0 0 0 0 0 24 43 8 0 0 0 24 15 325 460 536 465 372 296 200 131 142 302 754 998 1146 1285 1419 1570 1471 1579 1806 1926 1958 1706
6 12 0 0 0 0 0 0 0 0 0 0 0 0 47 90 37 0 0 0 0 97 216 14 286 400 351 348 246 132 149 221 675 1009 1246 1467 1605 1704 2005 1990 1972 2109 2195 2377
4 5 17 0 1 0 0 0 0 0 0 0 0 0 0 0 0 0 0 0 0 0 287 954 429 62 78 116 234 170 207 274 404 1075 1372 1487 1777 1950 2030 2249 2317 2296 2439 2479
27 14 12 8 9 1 0 0 0 0 0 0 0 0 0 0 0 0 0 0 0 0 0 790 1385 2023 1599 73 399 362 320 390 459 519 667 1153 1869 2065 2271 2339 2413 2611 2653 2752
18 10 30 28 5 2 0 0 0 0 0 0 0 0 0 0 0 0 0 0 0 0 0 0 51 466 1361 2083 783 908 1054 542 1225 785 729 888 962 1587 2205 2387 2532 2583 2705 2825
15 8 27 0 4 0 0 1 0 0 0 0 0 0 0 0 0 0 0 0 0 0 0 0 0 0 7 787 2059 2207 2218 1998 1698 1624 1529 1438 1491 1380 1450 2018 2385 2620 2639 2703
0 2 1 0 0 0 0 0 0 0 0 0 0 0 0 0 0 0 0 0 0 0 0 0 0 0 0 0 355 1680 1820 1598 1579 1721 2095 1829 1955 2084 2195 2174 2233 2379 2589 2687
9 2 3 0 0 0 0 0 0 0 0 0 0 0 0 0 0 0 0 0 0 0 0 0 0 0 0 0 0 61 1156 1357 1443 1318 1472 1686 2228 1826 1919 1727 1416 2347 2624 2257
9 7 2 2 1 2 0 0 0 0 0 0 0 0 0 0 0 0 0 0 0 0 0 0 0 0 0 0 0 0 78 537 1090 1230 1204 1535 1953 2439 1904 311 1 1 2 2

GFSCGP_con_sbcape_060.txt.gz
CAPE
0 0 0 0 0 0 0 0 0 0 0 1 4 28 433 181 20 0 1 3 1 3 28 63 99 202 222 153 0 0 0 0 0 18 0 13 149 39 18 0 260 291 512 790
0 0 0 0 0 0 0 0 0 0 0 3 0 12 370 279 172 21 9 1 18 12 22 49 74 142 144 106 0 0 0 0 0 53 77 19 0 0 52 0 101 211 446 879
0 0 0 0 0 0 0 0 0 0 0 22 2 0 234 465 318 194 100 25 8 12 55 76 57 82 110 64 66 0 0 0 0 1 0 0 0 0 4 0 0 141 305 631
0 0 0 0 0 0 0 0 0 0 0 0 1 0 0 301 408 282 229 138 99 49 56 86 62 34 55 22 48 0 0 0 0 0 1 94 73 51 3 0 0 105 330 508
0 0 0 0 0 0 0 0 0 0 0 0 0 2 0 69 288 389 340 254 194 172 126 71 74 69 45 14 0 0 0 0 0 0 22 52 67 0 0 0 0 0 355 480
0 0 0 0 0 0 0 0 0 0 0 0 0 0 0 0 49 212 349 324 333 261 192 119 63 9 2 0 0 0 0 0 0 0 0 0 19 0 0 0 0 0 7 447
0 0 0 0 0 0 0 0 0 0 0 0 0 0 0 0 5 57 108 219 185 403 393 197 90 66 35 39 2 13 0 0 0 0 0 0 0 0 0 0 0 0 0 12
0 0 0 0 0 0 0 0 0 0 0 0 0 0 0 0 0 1 33 68 69 138 289 320 261 130 58 52 42 2 30 28 0 0 0 0 0 0 0 0 0 0 0 0
0 0 0 0 0 0 0 0 0 0 0 0 0 0 0 0 0 0 5 9 4 33 98 147 199 221 138 54 54 2 16 42 57 31 0 12 0 0 0 0 0 0 0 0
0 0 0 0 0 0 0 0 0 0 0 0 0 0 0 0 0 0 0 4 5 27 41 65 77 53 192 130 80 38 0 3 76 85 53 72 63 4 0 0 0 0 0 0
0 0 0 0 0 0 0 0 0 0 0 0 0 0 0 0 0 0 0 1 20 36 25 34 33 30 83 177 125 74 26 0 10 113 119 145 167 122 53 0 0 0 0 0
0 1 0 0 0 0 0 0 0 0 0 0 0 0 0 0 0 0 0 0 40 73 63 39 47 8 23 181 177 154 34 33 70 175 189 210 227 190 125 47 0 0 0 0
0 8 1 0 0 0 0 0 0 0 0 0 0 0 0 0 0 0 0 0 7 74 80 53 50 4 1 54 172 132 53 62 139 220 241 248 244 217 164 147 49 0 0 10
0 0 2 0 0 0 0 0 0 0 0 0 0 0 0 0 0 0 0 0 0 27 60 46 27 11 3 27 100 113 106 62 106 192 326 333 303 298 356 363 319 32 0 0
0 2 0 0 0 0 0 0 0 0 0 0 0 0 0 0 0 0 0 0 0 0 24 31 25 23 35 65 121 160 169 152 99 131 327 424 386 318 298 397 623 827 419 77
0 0 10 0 0 0 0 0 0 0 0 0 0 0 0 0 0 0 0 0 0 0 0 9 26 34 62 113 169 262 295 305 254 224 254 434 522 550 517 386 241 265 621 997
0 0 20 0 0 0 0 0 0 0 0 0 0 0 0 1 0 0 0 0 0 0 0 0 11 40 92 162 155 324 399 454 473 426 399 447 545 780 829 821 802 598 333 353
0 0 38 0 0 0 0 0 0 0 0 0 0 0 0 0 0 0 0 0 0 0 0 0 38 78 154 216 192 201 402 531 634 603 620 650 675 725 892 1042 1131 1138 1064 785
1 29 6 0 0 0 0 0 0 0 0 0 0 0 0 0 0 0 0 0 0 3 188 14 125 187 211 204 166 149 320 500 711 769 845 920 966 947 958 1100 1274 1399 1525 1450
13 0 23 16 3 84 4 0 0 0 0 0 0 0 0 0 0 0 0 0 0 0 558 208 62 54 61 98 121 109 221 380 789 947 1036 1168 1260 1369 1421 1305 1323 1571 1735 1882
17 43 4 5 46 18 1 0 0 0 0 0 0 0 0 0 0 0 0 0 0 0 0 536 1246 1095 130 136 141 132 187 340 543 841 1139 1276 1457 1542 1629 1817 1874 1863 2010 2120
15 4 24 13 48 22 8 0 0 0 0 0 0 0 0 0 0 0 0 0 0 0 0 0 136 670 1225 370 202 171 324 254 311 746 1150 1371 1513 1785 1847 1910 2084 2292 2320 2427
11 12 9 4 11 7 2 2 0 0 0 0 0 0 0 0 0 0 0 0 0 0 0 0 0 6 154 1402 1598 1647 1365 791 804 499 735 945 1518 1843 2031 2211 2279 2383 2594 2700
8 11 3 6 5 7 0 0 0 0 0 0 0 0 0 0 0 0 0 0 0 0 0 0 0 0 0 0 155 795 1080 1159 1671 1739 1586 1488 1261 1220 1442 2167 2408 2581 2680 2721
7 7 4 3 6 12 7 0 0 2 0 0 0 0 0 0 0 0 0 0 0 0 0 0 0 0 0 0 0 0 52 807 1043 1104 1390 1976 2022 1602 2054 1874 1548 2302 2500 2155
19 22 10 20 8 12 1 0 0 2 0 0 0 0 0 0 0 0 0 0 0 0 0 0 0 0 0 0 0 0 0 9 437 832 1046 1196 1880 2175 1869 1351 286 1 2 2

GFSCGP_con_sbcape_063.txt.gz
CAPE
0 0 0 0 0 0 0 0 0 0 0 0 11 56 371 302 289 205 174 153 109 88 169 215 319 521 612 524 599 600 603 667 490 478 498 640 756 1000 1080 938 1200 1549 1635 1776
0 0 0 0 0 0 0 0 0 0 0 0 0 11 85 366 319 344 187 148 92 108 182 239 284 428 584 735 677 596 641 710 653 429 685 815 1049 1078 1231 1029 1395 1577 1702 2040
0 0 0 0 0 0 0 0 0 0 0 0 1 0 88 474 393 235 211 119 27 127 168 249 296 385 499 668 798 639 811 838 858 783 759 914 1014 993 1078 1050 1155 1601 1799 1899
0 0 0 0 0 0 0 0 0 0 0 0 0 0 27 253 541 485 272 119 94 60 108 199 245 305 392 587 687 816 785 889 645 901 1005 1493 995 893 968 1220 1137 1533 1706 1643
0 0 0 0 0 0 0 0 0 0 0 0 0 0 0 46 390 637 623 460 201 118 126 170 245 302 368 507 561 609 738 1077 1080 1057 1117 1018 1338 1063 1034 965 1353 1436 1661 1679
0 0 0 0 0 0 0 0 0 0 0 0 0 0 0 0 121 508 665 706 582 347 171 236 302 324 311 385 456 506 786 1076 1135 955 1005 1538 1673 1190 840 960 928 965 1154 1494
0 0 0 0 0 0 0 0 0 0 0 0 0 0 0 0 11 95 436 721 739 646 482 307 355 407 420 455 494 621 1184 1115 1071 980 1110 1312 1647 1683 1317 1224 866 1114 745 1006
0 0 0 0 0 0 0 0 0 0 0 0 0 0 0 0 0 6 145 408 699 768 737 628 533 640 678 759 830 800 1041 1184 1081 1026 1261 1445 1601 812 860 1318 800 662 487 591
0 0 0 0 0 0 0 0 0 0 0 0 0 0 0 0 0 0 0 124 461 766 839 797 656 639 727 868 981 804 1038 1113 1075 970 1286 1387 1411 1351 1084 1537 1386 687 1100 457
0 0 0 0 0 0 0 0 0 0 0 0 0 0 0 0 0 0 0 0 75 415 627 852 890 884 865 721 946 952 1004 1126 1106 985 1055 952 1271 1324 1340 1290 1353 1342 1039 806
0 0 0 0 0 0 0 0 0 0 0 0 0 0 0 0 0 0 0 0 22 96 239 510 884 1151 935 712 842 915 911 1109 1103 992 996 1178 1211 1083 1083 910 1054 1317 1153 1092
0 0 0 0 0 0 0 0 0 2 0 0 0 0 0 0 0 0 0 0 0 84 164 252 401 746 962 1205 952 867 800 805 973 1033 1137 1178 1359 1425 974 1091 944 1024 1288 1134
1 3 0 0 0 0 0 0 0 0 0 4 7 0 0 0 0 0 0 0 0 74 148 212 228 701 993 1262 1258 1066 921 644 746 968 831 1172 1371 1213 1475 1521 1268 1023 1314 1336
28 3 0 0 0 0 0 0 0 0 0 0 1 1 0 0 0 0 0 0 0 12 102 232 239 337 805 1042 1350 1293 1124 717 660 782 905 1258 1450 1544 1514 1692 1613 1188 1396 1494
23 3 0 0 0 0 0 0 0 0 0 0 0 0 0 0 0 0 0 0 0 0 117 315 233 627 512 802 1324 1399 1323 1159 992 1068 1115 1312 1510 1621 1749 1804 1694 1404 1487 1560
9 4 7 0 0 0 0 0 0 0 0 0 0 0 0 0 0 0 0 0 9 35 0 90 298 609 702 513 999 1423 1430 1245 1251 1300 1314 1492 1662 1747 1802 1871 1819 1722 1460 1550
22 6 9 0 0 9 0 0 0 0 0 0 0 0 0 0 3 0 0 0 0 13 103 54 41 772 778 623 881 1283 1410 1338 1263 1417 1511 1737 1851 1849 1897 1892 2068 2188 2203 1901
7 5 7 0 0 1 0 0 0 0 0 0 0 0 0 26 0 0 0 0 0 0 1 185 332 15 623 518 535 1183 1223 1452 1362 1412 1495 1751 1913 1956 2027 2014 1880 2049 1721 2208
28 45 34 13 9 0 78 0 0 0 0 0 0 0 0 21 47 4 0 0 0 0 0 216 863 5 430 610 1074 1399 1474 1515 1525 1518 1606 1683 1875 2074 2203 2147 2138 2045 1871 1615
52 135 139 27 47 104 25 3 0 0 0 0 0 0 0 6 88 0 0 0 0 0 3 968 581 120 311 934 846 1559 1384 1703 1756 1806 1808 1888 1935 2071 2258 2414 2516 2607 2281 2128
23 49 38 50 53 46 18 9 0 14 1 0 0 0 0 0 0 0 0 0 0 1 204 1138 651 672 1324 1340 1369 1645 1771 1858 1812 1569 1710 2169 2215 2276 2367 2536 2673 2751 2537 2662
13 25 16 26 34 23 0 3 3 0 0 0 0 0 0 0 0 0 0 0 0 0 11 587 1280 823 852 1198 1514 1767 1905 1840 2178 2262 2141 2510 2657 2230 2024 2866 2669 2716 2896 2853
32 20 25 26 15 9 5 22 30 7 4 0 0 0 0 0 0 0 0 0 0 0 0 0 21 40 316 1616 1196 1303 1602 1603 2182 2514 2708 2646 2678 2533 2881 2939 3006 2717 2895 2692
8 12 12 12 11 16 5 19 16 13 8 2 0 0 0 0 0 0 0 0 0 0 0 0 0 0 0 0 40 468 1843 1794 1574 2060 2261 2409 2507 2758 2833 2616 2654 2684 2829 2959
13 11 11 6 6 12 21 6 16 8 2 0 0 0 0 0 0 0 0 0 0 0 0 0 0 0 0 0 0 0 33 2006 2301 1923 1735 1877 1983 2361 2659 2874 2699 2834 3338 2736
37 25 18 14 14 32 15 21 15 7 9 2 1 1 0 0 0 0 0 0 0 0 0 0 0 0 0 0 0 0 0 0 844 1729 2575 2043 2799 2594 2395 2314 2109 0 34 3

GFSCGP_con_sbcape_066.txt.gz
CAPE
0 0 0 0 0 0 0 0 0 0 0 4 157 346 633 710 723 868 948 829 559 579 525 362 328 283 192 189 448 579 499 599 556 396 266 461 778 1064 1191 1236 1452 1864 2079 2082
0 0 0 0 0 0 0 0 0 0 0 0 185 331 279 681 646 733 915 916 679 477 601 567 490 406 326 276 395 715 647 827 811 237 251 393 889 1051 1259 1373 1669 2050 2097 2249
0 0 0 0 0 0 0 0 0 0 0 0 5 208 255 245 670 555 673 896 751 487 494 631 604 488 493 421 407 698 986 1083 892 600 419 1055 1215 1433 1570 1506 1727 1893 2035 2076
0 0 0 0 0 0 0 0 0 0 0 0 0 67 171 212 413 539 623 844 820 682 442 592 597 575 598 641 569 697 1049 1211 977 938 1162 2005 1278 1082 853 1067 899 1237 1871 1893
0 0 0 0 0 0 0 0 0 0 0 0 0 1 53 182 215 671 588 662 736 674 574 455 672 660 601 707 762 915 1185 1575 1708 1591 1401 1316 1451 611 626 931 1469 1727 2117 2042
0 0 0 0 0 0 0 0 0 0 0 0 0 0 1 40 139 530 642 581 594 705 616 611 519 647 697 676 761 888 1437 2252 1992 1447 1266 1710 2128 1691 1044 1333 1208 1125 1176 1582
0 0 0 0 0 0 0 0 0 0 0 0 0 0 0 12 37 117 433 579 669 685 729 660 637 598 724 734 735 853 2113 2549 2376 1445 1430 1213 1739 2010 1868 1621 1187 1641 786 880
0 0 0 0 0 0 0 0 0 0 0 0 0 0 0 0 0 19 78 366 639 828 791 774 791 709 703 782 860 1088 2215 2295 2060 1741 2493 2504 2388 1048 1336 1679 1107 1018 729 687
0 0 0 0 0 0 1 0 0 0 0 0 0 0 0 0 0 0 0 84 241 694 904 895 794 869 858 808 1428 1728 2321 2777 2335 1651 2676 2690 2477 2162 1301 2592 2015 1148 1525 770
0 0 0 0 0 0 0 1 0 0 0 0 0 0 0 0 0 0 0 0 78 408 748 967 1039 953 1000 945 923 1089 1819 2636 2435 1552 1829 1702 2005 2018 2345 1876 2391 2099 1707 1362
0 0 0 0 0 0 0 1 8 7 0 0 0 0 0 0 0 0 0 0 0 155 525 824 1076 1148 1080 1050 1034 1034 1302 1592 1699 1790 2138 2505 1956 1728 1816 1572 1759 1994 1921 1683
0 0 0 0 0 0 0 18 24 51 7 0 0 3 0 0 0 0 0 0 0 2 85 386 644 1001 1086 1189 1163 1133 1103 1230 1390 1986 2529 2395 2235 2200 1510 1761 1697 1923 2020 2072
4 0 0 0 0 0 0 0 3 36 28 30 23 0 0 0 0 0 0 0 0 1 24 76 269 516 1155 1183 1704 1300 1177 1101 1231 1753 1525 1906 1894 1886 2158 1993 1909 1934 2062 2118
0 0 0 0 0 0 0 0 1 1 15 12 19 31 11 0 0 0 0 0 0 0 0 57 133 337 862 1546 2203 2116 1329 1113 1154 1352 1417 2317 2479 2487 1777 2516 2495 2077 2163 2210
28 26 12 0 0 0 0 0 0 0 0 6 6 29 27 6 0 0 0 0 0 0 0 45 230 341 724 1394 2487 2120 1460 1985 1624 2131 1865 2494 2925 2807 2942 2928 2738 2381 2493 2213
69 53 9 14 0 0 0 0 0 0 0 0 0 0 0 1 0 0 0 0 0 1 5 12 198 429 551 1078 1718 2363 2192 2084 2171 2553 2420 2766 3096 3200 3171 3249 3094 2991 2627 2481
92 77 49 17 4 0 0 0 0 0 0 0 0 0 0 0 0 0 31 36 7 0 27 141 108 244 659 1020 1473 2295 2561 2222 2399 2720 2705 3014 3280 3308 3387 3299 3349 3380 3285 2859
63 114 87 56 29 10 0 0 0 0 0 0 0 0 0 0 0 0 18 43 41 14 43 122 186 404 179 696 896 1380 1750 2622 2751 2908 2833 3032 3289 3336 3470 3497 3495 3619 3144 3143
87 175 101 78 42 4 0 15 64 99 49 0 53 1 0 0 19 0 0 0 0 31 98 191 366 462 789 259 766 1494 1546 2127 2247 2788 3013 3083 3232 3306 3358 3322 3373 3213 3155 3154
103 207 177 136 71 42 3 0 0 10 122 36 0 0 0 0 6 49 0 0 53 135 321 540 849 1025 1292 957 510 1194 1636 2549 2772 2807 2913 3141 3082 3353 3252 3481 3501 3358 2777 2682
222 200 180 218 130 39 2 0 0 35 93 9 3 0 2 61 0 0 0 0 0 29 387 1259 1908 1733 1384 657 760 2051 1977 2638 2465 1967 1964 2698 2941 3511 3596 3738 3544 3587 3269 3249
86 153 203 183 99 77 4 0 31 13 18 11 6 3 0 0 0 0 0 0 0 0 115 678 1855 1027 817 947 1842 2687 2739 2238 2896 2672 2356 2884 3225 2549 2481 3730 3584 3645 3908 3587
58 52 81 84 45 5 6 3 2 20 34 23 20 11 3 0 0 0 0 0 0 0 0 49 661 1354 1845 1476 1682 1859 2822 3213 2653 2776 2930 2876 3078 2720 3298 3406 3271 3071 3330 3015
3 5 15 11 7 11 16 10 1 7 7 16 15 3 0 0 0 0 0 0 0 0 0 0 0 0 56 247 979 1380 2348 2401 2462 2842 2813 2837 2940 2922 2747 2930 3037 2931 2861 2960
13 19 13 9 15 22 18 10 13 45 23 10 10 4 2 0 0 0 0 0 0 0 0 0 0 0 0 0 0 96 1504 2105 2364 2680 2769 2930 2957 2943 3075 3122 2780 2966 3599 2265
31 16 20 29 32 25 42 31 33 45 18 9 11 6 1 0 0 0 0 0 0 0 0 1 2 1 0 0 0 0 0 34 2535 2257 2258 2409 2423 2800 2779 2898 2903 49 208 81

GFSCGP_con_sbcape_069.txt.gz
CAPE
0 0 0 0 0 0 0 0 0 0 0 0 0 196 620 677 761 1019 1049 1000 586 793 579 490 354 328 188 92 69 264 836 2183 1036 673 766 876 620 972 2000 844 1582 1985 1732 1548
0 0 0 0 0 0 0 0 0 0 0 0 1 30 448 702 685 912 1038 1077 874 795 739 558 437 341 247 158 226 985 1397 2234 1277 680 1023 1037 1237 731 840 820 1806 1641 1734 1878
0 0 0 0 0 0 0 0 0 0 0 0 0 80 197 507 724 770 1004 1139 1028 630 896 623 529 453 345 237 359 1316 1885 2162 1695 1295 1023 1084 1399 1863 981 1947 1393 1863 1752 1908
0 0 0 0 0 0 0 0 0 0 0 0 0 0 156 132 764 615 770 983 1044 928 685 808 688 619 499 378 284 1365 1766 2202 1796 2023 770 1767 1031 853 831 1175 917 1480 1735 1696
0 0 0 0 0 0 0 0 0 0 0 0 0 0 34 275 306 781 702 796 941 1025 650 756 846 810 659 479 336 563 2025 2346 2110 1874 1627 1292 1706 688 730 657 2812 2831 3123 1726
0 0 0 0 0 0 0 0 0 0 0 0 0 0 0 61 389 368 619 650 871 1014 919 679 795 913 790 679 548 423 1987 2546 2575 2331 1918 2622 2123 1983 639 1020 1363 1058 1343 1655
0 0 0 0 0 0 0 0 0 0 0 0 0 0 0 0 30 211 542 649 726 875 1067 909 759 810 976 1011 1082 1168 1923 2810 2607 2640 1920 2290 3000 2841 2929 2544 1098 1335 651 686
0 0 0 0 0 0 0 0 0 0 0 0 0 0 0 0 5 22 229 582 670 705 964 1043 904 848 1047 1288 1719 1878 2393 2811 2961 2552 2558 2161 2625 1058 1177 2177 956 614 425 675
0 0 0 0 0 0 2 7 0 0 8 0 0 0 0 0 0 0 23 366 566 703 682 983 975 934 909 1378 1945 2115 2608 3137 3064 2530 2745 3107 2674 1656 1048 2307 3023 1464 1918 894
0 0 0 0 0 0 1 19 3 1 6 5 4 5 0 0 0 0 0 116 311 683 742 771 879 934 972 979 1390 2054 2458 3249 3255 2799 2760 2780 2968 2735 1997 2670 3327 2393 2919 2514
0 0 0 0 0 0 0 0 15 34 3 4 1 11 4 0 0 0 0 6 125 382 617 774 808 884 1040 1032 1044 1283 2063 2857 2870 2789 2928 2750 2650 2616 2223 2584 3020 3201 3394 3558
0 0 0 0 0 0 0 18 38 109 51 3 8 35 42 5 0 0 0 0 0 37 346 657 723 945 985 1159 1162 1230 1304 1583 2370 2585 3004 2876 3025 2763 2462 1919 2711 3284 3596 3842
9 2 0 0 0 0 0 0 0 14 60 75 19 2 46 15 10 1 0 0 1 4 76 324 508 1013 1202 1157 1913 1679 1418 1310 1538 2466 2311 2878 3132 2944 2655 2953 2925 3129 3541 3827
2 26 19 5 11 0 0 0 44 32 71 17 20 62 47 32 21 1 0 0 0 1 23 151 309 575 1249 1697 2338 2496 1671 1351 1412 1644 1873 2563 3040 3132 2941 3216 3341 3305 3696 3829
55 33 18 11 1 0 0 1 1 6 39 97 57 53 103 54 67 26 8 20 6 14 2 43 109 136 892 2277 2800 2804 2064 2298 1766 2175 2180 2498 3183 3337 3417 3167 3418 3382 3697 3693
109 89 45 47 30 3 0 0 0 0 0 0 0 0 0 2 0 40 31 47 39 73 17 0 1 70 263 753 2736 3074 2639 2661 2471 2604 2499 2725 3393 3535 3608 3237 3376 3675 3725 3915
105 137 97 89 28 19 22 0 0 0 0 0 0 0 0 0 0 4 61 140 38 16 0 57 130 214 409 507 1976 2669 2945 2617 3004 3162 3061 3210 3635 3729 3686 3403 3568 3818 3948 4032
159 175 185 142 77 63 6 0 0 9 6 0 0 0 0 0 0 0 10 56 158 118 151 172 187 148 198 480 692 1978 2167 2989 3310 3055 3747 3490 3936 3889 4010 3923 3884 4018 4039 4112
181 256 250 134 113 44 20 10 104 31 0 1 2 0 0 0 0 0 1 1 78 84 176 342 396 305 389 434 456 1770 2213 3042 3090 3523 3694 3620 3831 3982 4183 4154 4070 4154 4163 4164
136 210 380 189 130 91 54 158 14 15 1 5 5 0 0 0 0 0 20 215 132 245 443 596 780 974 922 810 837 1232 2299 3225 3263 3662 3484 3771 3885 4063 4197 4234 4322 4335 4256 4215
194 172 270 246 200 134 81 101 0 38 1 0 84 155 77 90 17 183 48 3 0 45 353 878 1296 2128 2074 1434 1280 1698 2044 2499 3394 2916 3398 3971 3975 4169 4268 4467 4470 4401 4239 3553
103 165 229 189 192 143 218 131 5 32 0 0 45 67 226 270 151 6 0 0 0 5 331 940 1771 2605 2821 1957 2843 2677 2817 2806 3964 3552 3637 3998 4137 3601 3478 4455 4496 4544 4444 4471
64 70 137 83 102 188 122 103 31 26 0 0 10 11 1 0 1 0 0 0 0 0 1 185 499 737 784 2040 1806 2354 4182 3720 4161 3980 4029 4093 4164 4098 3995 4309 4485 3943 4426 3188
11 4 28 31 11 0 0 3 8 14 16 0 5 0 1 9 0 6 4 2 0 4 0 0 0 0 0 0 314 2026 2566 3552 3709 3942 4155 4156 4128 4134 4182 3591 3577 3167 2988 3056
6 18 12 24 3 11 21 25 27 0 0 3 31 16 17 9 0 1 2 0 8 7 8 9 6 0 0 0 0 22 34 1672 3570 3756 3477 3947 3322 3536 3710 3457 3225 3102 3321 2468
36 16 15 25 23 14 18 32 22 38 31 23 27 9 5 2 2 0 1 2 5 11 16 18 28 11 2 0 0 0 0 9 2317 3126 3239 3078 3042 3154 3088 3019 2617 16 1000 679

GFSCGP_con_sbcape_072.txt.gz
CAPE
0 0 0 0 0 0 0 0 0 0 0 0 19 187 46 0 0 0 523 442 506 598 437 539 469 521 183 82 466 1112 1185 1672 1382 1677 1471 1517 1673 1808 2073 1315 2776 3023 2002 2774
0 0 0 0 0 0 0 0 0 0 0 0 2 67 96 20 15 0 11 590 458 575 607 657 552 567 297 206 412 763 1312 1808 1268 1830 1734 1770 2229 1321 1433 1699 2731 2722 2431 3045
0 0 0 0 0 0 0 0 0 0 0 0 0 44 178 18 79 149 9 800 290 751 552 661 488 519 446 337 492 618 1510 1857 1327 1544 1404 2251 2346 2354 1821 2665 2464 2297 2913 2842
0 0 0 0 0 0 0 0 0 0 0 0 0 0 266 657 603 77 263 643 407 515 677 616 398 590 468 454 578 800 1367 2089 1342 1856 1204 1839 1377 1740 1703 2099 1818 2325 3121 3016
0 0 0 0 0 0 0 0 0 0 0 0 0 0 0 123 141 38 5 439 491 278 723 624 533 490 514 536 588 990 1159 1968 1220 1266 1909 1617 1626 1491 2013 1498 2903 2578 3528 3494
0 0 0 0 0 0 0 0 0 0 0 0 0 0 0 26 525 54 1 65 527 469 408 809 759 663 654 570 468 1077 1265 1655 1608 1273 1556 1920 1346 2412 1942 1828 2215 2513 2315 2793
0 0 0 0 0 0 0 0 0 0 0 0 0 0 0 0 335 296 3 90 530 843 728 676 831 834 775 674 565 697 1382 1432 1596 1480 1062 2172 1417 1760 3130 2840 1908 1553 1825 1643
0 0 0 0 0 0 0 0 0 0 0 0 0 0 0 0 0 410 22 142 18 388 899 745 925 1006 1014 963 799 643 1465 1530 1529 1807 940 1403 2351 1391 1845 3105 1350 1983 1031 1606
0 0 0 0 0 0 0 6 0 0 0 0 0 0 0 0 0 0 185 11 7 21 1118 882 950 1033 1307 1166 1115 1003 1301 1698 1757 1617 1669 951 2015 2305 1339 2773 3246 1777 2491 2153
0 0 0 0 1 0 0 0 3 7 2 6 0 0 0 0 0 0 0 61 41 62 163 1035 898 1069 1294 1299 1459 1398 1497 1721 1966 1517 1945 1386 1218 1669 2076 1417 3169 2461 2996 2644
0 0 0 0 2 0 1 0 0 2 27 3 0 0 7 8 0 0 0 0 119 128 89 843 1000 1138 1234 1399 1441 1597 1722 1846 2094 2188 1830 1811 1364 1278 1152 1577 1416 2332 2530 4219
1 0 0 0 0 0 6 14 0 116 27 31 4 7 16 44 0 0 0 0 18 72 261 21 56 1169 1322 1442 1453 1696 1696 2235 2314 2340 2175 1870 2229 1664 1348 813 1566 2700 2619 3070
4 2 0 0 0 0 0 0 0 0 6 125 30 0 0 22 16 2 0 0 0 242 135 1 0 13 1221 1401 1501 1618 1730 1673 2424 2656 2522 2338 2073 2260 1985 1008 1578 1988 2490 3352
0 0 5 6 1 2 9 0 0 2 47 4 22 13 11 24 70 95 33 7 0 50 142 249 161 459 838 1417 1569 1696 1624 1720 1816 2457 2419 2461 2407 2184 2063 2174 1088 2437 2372 2449
16 37 7 0 0 0 0 0 0 0 14 37 0 25 30 3 4 129 114 66 75 83 57 168 289 901 668 1817 1850 1982 1920 1625 1811 2065 2433 2467 2621 2452 2440 2328 2012 1070 2505 2787
163 46 86 32 0 5 1 0 0 0 0 9 0 0 0 1 1 29 67 107 392 470 349 381 554 526 1188 1458 2093 2065 2171 1947 1879 1991 2270 2493 2701 2623 2654 2477 2379 2350 2134 2632
154 194 152 58 46 10 15 1 0 0 0 0 0 0 0 0 0 0 2 0 26 263 263 289 255 386 869 1343 1895 2501 2397 2327 2128 2298 2338 2455 2633 2771 2596 2653 2648 2841 2558 2636
196 221 98 127 69 64 0 1 0 0 0 0 0 0 0 0 0 0 0 0 2 98 122 121 101 256 275 281 1070 2823 2651 2526 2779 2419 2646 2519 2640 2652 2885 2875 2771 2740 2818 2727
42 300 209 59 102 17 20 21 41 42 0 0 0 0 0 0 0 0 0 0 10 47 70 121 110 155 854 938 717 1183 2962 2685 2526 3007 2684 2697 2583 2788 3063 2960 3019 2814 2890 2961
49 110 422 129 45 37 37 57 2 0 0 3 14 0 2 34 34 0 48 319 247 194 117 205 228 277 556 1087 957 861 2079 3287 2719 2539 2833 3247 2846 3181 3210 3191 3164 3000 2999 3011
201 320 295 202 111 20 51 6 0 1 20 111 41 1 0 10 13 315 318 112 32 49 32 230 643 1041 1546 2423 2284 2041 1294 2691 3212 2677 3187 2898 3670 3293 3497 3587 3554 3368 3358 3230
68 130 141 201 138 63 186 124 75 119 56 34 0 0 0 0 1 116 60 33 8 0 0 168 760 1072 938 728 789 2960 1777 2608 3657 3502 2904 3705 3822 3497 3651 3735 3882 3845 3690 3675
88 38 24 105 127 159 27 6 2 2 4 0 0 0 0 0 6 4 4 1 0 0 0 0 4 181 43 61 528 1442 2909 3357 3641 4067 3361 3921 3853 3739 3598 3734 3975 3937 3965 3794
36 6 30 19 0 0 1 0 0 3 11 1 0 0 0 0 0 0 1 3 1 0 0 0 0 0 0 1 3 50 144 350 3753 4082 3501 3984 3979 3707 3565 3759 3794 3900 3815 3804
7 14 20 19 13 4 0 8 12 0 0 3 4 0 0 10 2 3 0 0 0 1 1 6 3 2 1 1 3 2 0 185 4291 4070 3727 3885 3701 3367 3731 3367 3648 3742 3660 3509
16 7 16 25 13 17 11 26 27 40 23 41 1 0 0 3 0 0 10 6 12 22 16 10 12 5 5 1 3 9 2 9 580 3958 3901 3569 3376 3510 3543 3206 2398 72 1904 969

GFSCGP_con_sbcape_075.txt.gz
CAPE
0 0 0 0 0 0 0 0 0 0 0 0 0 361 590 404 219 289 51 0 267 223 181 129 5 0 0 60 4 44 10 477 888 707 416 583 598 118 903 1094 1525 1431 1364 1092
0 0 0 0 0 0 0 0 0 0 0 0 0 143 222 18 18 14 47 86 237 273 221 124 17 0 0 0 74 10 158 525 764 691 605 346 558 482 638 978 1485 1785 1045 1151
0 0 0 0 0 0 0 0 0 0 0 0 0 134 54 29 28 65 281 282 37 273 243 179 49 0 0 0 39 171 472 387 663 232 483 780 1062 257 440 855 1403 1424 1558 1482
0 0 0 0 0 0 0 0 0 0 0 0 0 0 74 52 67 122 184 126 60 1 185 238 69 0 0 0 0 371 559 399 276 343 100 473 710 460 738 823 1310 1203 1464 1574
0 0 0 0 0 0 0 0 0 0 0 0 0 0 0 96 115 68 84 0 0 0 26 177 111 53 0 0 0 111 721 345 130 441 28 260 311 433 468 838 1280 1089 1602 1721
0 0 0 0 0 0 0 0 0 0 0 0 0 0 0 95 136 133 105 0 13 0 6 246 169 95 5 0 0 0 738 244 172 106 557 199 148 365 792 641 1154 1178 1644 1970
0 0 0 0 0 0 0 0 0 0 0 0 0 0 0 0 356 365 162 0 0 0 38 332 178 159 109 27 14 0 340 649 166 108 188 800 57 185 949 649 1558 1149 1326 1208
0 0 0 0 0 0 0 0 0 0 0 0 0 0 0 0 184 155 73 0 0 181 128 339 276 175 189 129 137 90 73 557 407 34 32 437 340 108 472 1369 754 932 982 807
0 0 0 0 0 0 0 0 0 0 0 0 0 0 0 0 0 238 47 2 6 232 402 355 312 215 220 249 179 335 174 229 571 351 0 118 1015 17 330 721 1197 846 326 734
0 0 0 0 0 0 0 0 0 0 0 0 0 0 0 0 0 35 201 54 343 362 165 272 119 329 222 338 265 193 463 301 604 553 206 63 468 715 380 527 1242 1312 610 796
0 0 0 0 0 0 0 0 0 0 0 0 0 0 0 0 0 0 10 79 220 206 92 62 80 196 399 415 412 248 695 545 617 484 646 58 77 783 904 459 529 1336 1035 1987
0 0 0 0 0 0 0 0 0 0 0 0 0 0 0 0 0 0 0 332 340 131 56 33 70 253 233 475 595 444 594 751 733 553 709 630 30 333 707 670 218 664 1126 1237
0 0 0 0 0 0 0 0 0 0 0 0 0 0 0 0 0 0 0 9 382 260 189 85 23 54 54 348 721 659 577 810 919 892 556 877 681 43 489 408 421 74 1319 1036
0 0 0 0 0 0 0 0 0 0 0 0 0 0 0 0 0 0 0 4 68 533 345 188 111 94 137 15 724 812 678 891 1017 1081 956 812 827 799 106 143 43 571 1173 1903
0 0 0 0 0 0 0 0 0 0 0 0 0 0 0 0 0 0 0 0 1 267 146 50 26 68 94 223 55 68 801 833 1271 1349 1377 1193 991 852 1073 560 338 26 972 1340
0 0 0 0 0 0 0 0 0 0 0 0 0 0 0 0 0 0 0 5 0 0 231 209 104 0 91 146 135 0 0 963 1160 1726 1731 1639 1518 1194 1076 1188 1097 189 467 1124
12 4 2 0 9 13 0 0 0 0 0 0 0 0 0 0 0 0 0 0 0 0 0 95 42 182 319 7 0 0 0 447 1167 1257 1834 1812 1711 1719 1455 1314 1227 1150 308 789
3 42 15 0 28 6 0 0 0 0 0 0 0 0 0 0 0 0 0 0 0 39 66 96 141 90 222 86 275 198 160 598 1038 1170 1476 1774 1815 1778 1760 1629 1459 1365 1050 432
0 37 9 16 16 0 0 15 0 0 0 4 2 3 0 0 0 0 0 0 0 0 0 4 49 108 139 311 156 20 89 141 862 1390 1322 1806 1908 1893 1895 1746 1655 1494 1513 1472
0 0 21 9 19 0 34 0 1 0 0 0 0 0 0 0 0 0 0 3 0 0 0 0 35 323 258 69 187 727 566 405 701 1528 1747 1707 1727 1883 2012 1836 1802 1663 1544 1676
0 3 4 72 16 5 45 52 23 0 0 0 0 0 0 0 0 0 0 0 0 8 5 0 0 32 1 1 28 187 520 984 967 1693 1900 2019 1794 1825 1917 2075 1838 1903 1852 1742
27 11 63 16 13 14 0 15 4 0 0 0 0 0 0 0 0 0 0 0 0 0 0 0 0 0 0 0 0 0 7 0 40 2378 2045 2110 2062 1904 2083 2182 2188 2049 2077 1952
8 19 23 8 4 0 0 0 0 0 0 0 0 0 0 0 0 0 0 0 0 0 0 0 0 0 0 0 0 0 0 0 0 28 2224 2467 2511 2184 2295 2406 2440 2326 2261 2157
2 2 6 10 1 0 0 0 4 0 2 0 0 0 0 0 0 0 0 0 1 0 0 0 0 0 0 0 0 0 0 0 0 61 2527 2051 2364 2885 2400 2714 2617 2614 2606 2481
2 6 11 18 9 5 0 3 4 10 5 4 2 0 0 0 0 0 0 4 11 12 0 0 0 0 0 0 0 0 0 0 0 0 2771 2595 2794 2472 2810 2841 2767 2896 2779 2795
4 1 4 0 14 18 10 16 10 19 16 5 0 1 0 0 0 0 0 43 20 0 0 0 0 0 0 0 0 0 0 0 0 0 1286 2570 3069 2644 2797 2667 1804 73 1964 2715

GFSCGP_con_sbcape_078.txt.gz
CAPE
0 0 0 0 0 0 0 0 0 0 0 0 41 384 148 72 191 259 144 66 37 108 63 2 5 4 102 39 0 0 310 0 442 45 139 350 265 378 763 727 963 984 777 764
0 0 0 0 0 0 0 0 0 0 0 0 130 462 311 73 8 148 0 123 44 54 87 12 1 0 57 19 0 0 219 71 295 81 13 147 105 121 729 816 1020 1096 713 677
0 0 0 0 0 0 0 0 0 0 0 0 222 368 397 193 32 10 22 86 73 82 71 48 0 0 62 32 0 0 166 232 333 186 78 110 84 240 308 690 1065 1251 973 832
0 0 0 0 0 0 0 0 0 0 0 0 0 16 143 200 74 151 31 76 103 225 145 131 0 0 37 45 15 34 147 323 339 119 182 207 528 53 244 481 838 1181 1034 956
0 0 0 0 0 0 0 0 0 0 0 0 0 0 0 23 9 0 47 406 86 202 247 189 26 0 0 4 35 173 47 312 422 77 51 130 184 0 259 344 729 816 954 1013
0 0 0 0 0 0 0 0 0 0 0 0 0 0 0 17 35 14 9 272 139 42 4 5 104 1 0 0 40 223 103 158 314 105 0 10 4 127 306 431 771 588 895 1093
0 0 0 0 0 0 0 0 0 0 0 0 0 0 0 8 41 77 57 248 141 207 55 33 59 65 0 0 0 328 221 121 94 221 12 0 0 1 228 367 735 623 861 1190
0 0 0 0 0 0 0 0 0 0 0 0 0 0 0 0 47 148 112 169 19 0 0 35 120 166 5 0 0 215 352 164 64 114 292 0 0 0 160 353 623 751 702 903
0 0 0 0 0 0 0 0 0 0 0 0 0 0 0 0 0 153 146 12 0 0 2 61 195 206 43 9 0 9 345 210 132 62 0 238 249 0 3 540 589 712 560 548
0 0 0 0 0 0 0 0 0 0 0 0 0 0 0 0 0 34 316 127 19 15 60 188 309 250 162 46 5 5 61 272 216 79 0 0 255 450 0 123 642 553 419 395
0 0 0 0 0 0 0 0 0 0 0 0 0 0 0 0 0 0 0 0 41 12 125 351 408 317 206 134 79 30 1 110 364 269 23 0 0 387 93 51 164 905 360 303
0 0 0 0 0 0 0 0 0 0 0 0 0 0 0 0 0 0 0 0 0 49 100 449 470 323 247 220 164 148 114 28 247 409 276 0 0 38 592 379 98 565 649 863
0 0 0 0 0 0 0 0 0 0 0 0 0 0 0 0 0 0 0 10 23 67 294 521 532 358 456 316 236 197 281 246 97 379 387 297 0 2 251 681 391 12 723 694
0 0 0 0 0 0 0 0 0 0 0 0 0 0 0 0 0 0 0 0 196 106 108 19 14 19 26 14 54 99 229 499 377 344 385 479 290 0 5 324 311 295 36 525
0 0 0 0 0 0 0 0 0 0 0 0 0 0 0 0 0 0 0 0 0 13 6 80 64 78 18 0 0 0 280 440 636 562 420 468 615 330 0 0 271 93 145 345
0 0 0 0 0 0 0 0 0 0 0 0 0 0 0 0 0 0 0 0 0 10 0 170 104 77 56 10 36 46 174 534 729 800 717 419 623 740 487 1 0 39 79 513
0 0 0 0 0 0 0 0 0 0 0 0 0 0 0 0 0 0 0 0 5 2 4 0 5 0 3 71 21 156 25 5 725 970 940 980 588 803 791 768 135 108 7 4
0 0 0 0 0 0 0 0 0 0 0 0 0 0 0 0 0 0 0 0 0 1 0 0 105 63 152 131 78 89 225 302 478 708 1261 1220 1292 994 907 893 1052 698 416 13
0 0 0 0 0 0 0 0 31 1 7 0 0 0 0 0 0 0 0 0 1 0 0 12 250 0 0 4 187 322 327 403 399 543 1131 1697 1557 1518 1295 1093 1091 1145 1033 532
0 0 0 0 0 0 0 0 2 0 0 0 0 0 0 0 0 0 0 0 0 1 0 0 8 0 0 0 0 36 68 174 117 178 462 1086 1760 1679 1674 1556 1386 1280 1205 1100
0 0 0 2 22 1 2 0 0 1 0 0 0 0 0 0 0 0 0 0 0 0 0 0 0 0 0 0 0 0 0 0 0 1 123 437 1349 1824 1745 1711 1665 1544 1405 1280
4 0 0 9 68 1 0 0 0 1 0 0 0 0 0 0 0 0 0 0 0 0 0 0 0 0 0 0 0 0 0 0 0 0 0 123 1541 1790 1907 1793 1742 1656 1533 1379
3 0 0 0 0 0 0 0 1 0 0 0 1 0 0 0 0 0 0 0 0 0 0 0 0 0 0 0 0 0 0 0 1 2 1 68 1524 1762 1804 1834 1825 1683 1643 1577
1 0 4 0 0 0 0 4 0 1 4 1 1 0 1 1 0 0 0 0 0 0 0 0 0 0 0 0 0 0 0 0 1 1 0 0 1243 1729 1646 1794 1849 1819 1693 1724
0 2 0 0 0 0 0 2 12 9 4 2 4 2 0 0 0 0 0 0 0 0 0 0 0 0 0 0 0 0 0 1 0 1 0 0 1508 1839 1979 1917 1923 2015 1908 1849
0 0 0 0 0 0 0 0 12 14 19 19 20 4 2 1 0 0 0 0 1 0 0 0 0 0 0 0 0 0 0 0 0 1 1 0 0 2038 2422 2114 2236 50 1251 1725

GFSCGP_con_sbcape_081.txt.gz
CAPE
0 0 0 0 0 0 0 0 0 0 0 0 38 414 198 281 529 324 144 119 91 6 0 0 0 57 37 23 112 134 99 42 127 84 192 292 64 196 635 344 685 890 167 418
0 0 0 0 0 0 0 0 0 0 0 0 58 286 218 82 374 300 190 161 112 33 0 2 0 98 23 64 76 199 58 0 126 34 91 224 84 101 552 508 715 856 737 612
0 0 0 0 0 0 0 0 0 0 0 27 166 187 153 138 16 4 59 38 112 95 5 0 0 133 61 57 7 134 97 0 112 3 39 96 12 254 433 632 764 818 661 460
0 0 0 0 0 0 0 0 0 0 0 0 0 0 169 183 94 57 0 38 27 118 57 0 0 97 54 67 11 66 134 3 16 1 18 137 202 124 322 560 778 1045 854 796
0 0 0 0 0 0 0 0 0 0 0 0 0 0 0 235 263 87 1 46 34 65 84 5 0 7 37 47 28 0 16 54 54 27 22 33 158 0 44 254 652 870 784 916
0 0 0 0 0 0 0 0 0 0 0 0 0 0 0 92 292 111 19 27 69 95 96 92 1 0 19 26 22 0 7 28 59 26 9 22 58 74 43 152 432 499 675 852
0 0 0 0 0 0 0 0 0 0 0 0 0 0 0 0 0 135 59 79 25 186 85 183 0 0 0 38 27 25 4 47 97 26 0 2 13 2 32 106 369 476 623 956
0 0 0 0 0 0 0 0 0 0 0 0 0 0 0 0 0 0 1 51 0 205 116 148 22 0 0 2 40 76 0 66 133 97 0 0 0 0 0 39 265 489 500 906
0 0 0 0 0 0 0 0 0 0 0 0 0 0 0 0 0 0 0 0 16 119 149 152 64 17 0 0 18 59 36 0 78 154 30 0 0 0 0 42 161 497 356 544
0 0 0 0 0 0 0 0 0 0 0 0 0 0 0 0 0 0 0 3 0 0 0 0 25 62 11 0 0 41 81 44 0 96 139 58 0 0 0 0 520 453 421 307
0 0 0 0 0 0 0 0 0 0 0 0 0 0 0 0 0 0 0 0 0 0 0 0 6 83 52 18 3 4 136 91 29 4 61 103 61 46 0 0 0 383 360 194
0 0 0 0 0 0 0 0 0 0 0 0 0 0 0 0 0 0 0 0 0 0 0 0 9 47 155 48 52 10 32 166 78 55 9 0 0 22 95 0 0 0 391 121
0 0 0 0 0 0 0 0 0 0 0 0 0 0 0 0 0 0 0 0 0 2 0 23 125 146 173 92 79 50 5 60 98 83 36 0 0 0 53 174 16 0 127 364
0 0 0 0 0 0 0 0 0 0 0 0 0 0 0 0 0 0 0 0 0 20 8 80 29 4 1 15 47 68 62 0 0 131 89 23 0 0 0 0 209 24 10 216
0 0 0 0 0 0 0 0 0 0 0 0 0 0 0 0 0 0 0 0 2 150 57 36 36 10 13 9 0 2 7 117 1 77 145 121 58 0 0 0 0 213 78 73
0 0 0 0 0 0 0 0 0 0 0 0 0 0 0 0 0 0 0 0 0 0 0 0 145 106 83 20 16 0 0 1 266 103 198 220 186 117 0 0 0 16 114 119
0 0 0 0 0 0 0 0 0 0 0 0 0 0 0 0 0 0 0 0 0 0 0 7 127 2 1 70 8 54 1 0 131 373 294 279 245 290 200 2 0 0 7 10
0 0 0 0 0 0 0 0 0 0 0 0 0 0 0 0 0 0 0 0 0 0 0 43 3 0 0 0 164 146 42 43 235 529 535 452 292 300 398 289 6 0 0 0
0 0 0 0 0 0 0 0 0 0 0 0 0 0 0 0 0 0 0 0 0 0 0 2 0 0 0 0 0 0 12 144 212 310 454 544 571 309 386 514 464 214 0 0
0 0 0 0 0 0 0 0 0 0 0 0 0 0 0 0 0 0 0 0 0 0 0 0 0 0 0 0 0 0 0 2 1 0 0 18 582 953 557 511 544 627 386 342
0 0 0 0 0 0 0 0 0 2 0 0 0 0 0 0 0 0 0 0 0 0 0 0 0 0 0 0 0 0 0 1 5 6 1 0 0 307 1209 874 727 706 823 829
0 0 0 0 0 0 0 0 0 0 0 0 0 0 0 0 0 0 0 0 0 0 0 0 0 0 0 0 0 0 0 2 4 8 4 0 0 38 614 1424 1162 1044 957 930
1 0 0 0 0 0 0 0 0 1 1 0 1 0 0 0 0 0 0 0 0 0 0 0 0 0 0 0 0 0 0 0 1 4 1 2 0 0 118 1256 1483 1199 1227 1195
0 0 0 0 0 0 0 0 0 0 2 1 1 1 3 2 0 1 0 0 0 0 0 0 0 0 0 0 0 0 0 0 0 0 1 1 0 0 50 1332 1564 1510 1429 1415
0 0 0 0 0 0 0 0 0 5 6 5 8 15 11 7 4 7 1 0 0 0 0 0 0 0 0 0 0 0 0 0 0 0 0 1 1 0 2 1423 1575 1694 1657 1525
0 0 0 0 0 0 0 0 0 5 9 26 18 13 15 17 2 3 6 0 0 0 0 0 0 0 0 0 0 0 0 0 0 0 0 0 0 1 2 795 1511 346 419 1325

GFSCGP_con_sbcape_084.txt.gz
CAPE
0 0 0 0 0 0 0 0 0 0 0 0 0 0 43 255 402 378 268 117 80 3 0 10 0 0 19 12 4 0 0 0 35 38 40 0 0 7 367 309 416 419 412 397
0 0 0 0 0 0 0 0 0 0 0 0 0 3 158 267 371 300 359 145 76 71 0 0 0 0 0 1 1 7 0 0 42 45 10 89 0 5 333 261 570 784 413 369
0 0 0 0 0 0 0 0 0 0 0 35 44 0 171 121 52 79 346 191 116 91 0 0 0 0 0 0 35 54 19 0 72 0 0 0 44 82 299 443 594 743 728 680
0 0 0 0 0 0 0 0 0 0 0 0 0 0 0 124 180 146 2 84 69 79 9 0 0 0 35 39 85 131 72 0 101 0 20 43 63 106 187 440 595 730 772 661
0 0 0 0 0 0 0 0 0 0 0 0 0 0 0 19 250 145 108 7 14 4 51 0 0 27 51 46 66 106 127 10 75 0 0 0 6 5 52 203 573 598 694 814
0 0 0 0 0 0 0 0 0 0 0 0 0 0 0 109 218 189 108 106 17 25 44 29 0 0 19 17 24 91 164 64 0 0 0 0 52 0 32 77 338 431 639 687
0 0 0 0 0 0 0 0 0 0 0 0 0 0 0 0 0 37 86 51 53 46 31 61 2 0 0 0 13 28 59 131 37 0 0 0 0 0 0 11 153 263 442 688
0 0 0 0 0 0 0 0 0 0 0 0 0 0 0 0 0 0 7 0 3 0 21 41 82 0 0 0 0 17 0 73 70 1 0 0 0 0 0 0 51 226 361 696
0 0 0 0 0 0 0 0 0 0 0 0 0 0 0 0 0 0 0 0 0 0 57 44 61 17 0 0 7 2 0 14 68 71 1 0 0 0 0 0 55 256 323 562
0 0 0 0 0 0 0 0 0 0 0 0 0 0 0 0 0 0 0 0 0 0 46 135 98 44 0 0 0 7 22 22 52 86 44 1 0 0 0 0 25 227 401 337
0 0 0 0 0 0 0 0 0 0 0 0 0 0 0 0 0 0 0 0 0 3 0 12 143 116 3 0 0 0 0 0 27 118 107 55 0 0 0 0 9 231 351 307
0 0 0 0 0 0 0 0 0 0 0 0 0 0 0 0 0 0 0 0 0 0 15 0 0 102 46 0 0 9 3 0 19 53 128 115 26 0 0 0 0 28 401 281
0 0 0 0 0 0 0 0 0 0 0 0 0 0 0 0 0 0 0 0 0 0 49 16 5 3 110 25 0 0 30 32 1 0 12 75 79 19 3 0 0 0 7 159
0 0 0 0 0 0 0 0 0 0 0 0 0 0 0 0 0 0 0 0 0 0 0 19 16 27 4 33 9 0 0 38 40 3 0 0 0 3 22 17 0 0 0 19
0 0 0 0 0 0 0 0 0 0 0 0 0 0 0 0 0 0 0 0 0 0 2 235 177 92 103 64 2 17 0 0 26 29 20 2 0 0 0 0 20 0 0 0
0 0 0 0 0 0 0 0 0 0 0 0 0 0 0 0 0 0 0 0 0 0 0 51 5 1 13 140 88 0 24 44 0 63 105 63 11 0 0 0 0 59 57 3
0 0 0 0 0 0 0 0 0 0 0 0 0 0 0 0 0 0 0 0 0 0 1 13 13 4 0 1 180 56 12 0 80 23 106 217 153 88 20 0 0 0 50 84
0 0 0 0 0 0 0 0 0 0 0 0 0 0 0 0 0 0 0 0 0 0 0 1 9 2 0 0 0 3 109 50 115 282 312 275 241 180 151 69 0 0 0 7
0 0 0 0 0 0 0 0 0 0 0 0 0 0 0 0 0 0 0 0 0 0 0 0 9 0 0 0 0 0 0 1 0 1 20 169 406 321 313 263 200 0 0 0
0 0 0 0 0 0 0 0 0 0 0 0 0 0 0 0 0 0 0 0 0 0 0 0 0 8 0 0 0 0 0 0 0 0 1 2 0 54 451 431 460 256 27 1
0 0 0 0 0 0 0 0 0 0 0 0 0 0 0 0 0 0 0 0 0 0 0 0 0 1 0 0 0 0 0 0 0 0 1 0 1 3 7 593 541 557 429 345
0 0 0 0 0 0 0 0 0 0 0 0 0 0 0 0 0 0 0 0 0 0 0 0 0 0 0 0 0 0 0 0 0 0 0 1 1 1 6 100 938 682 539 567
0 0 0 0 0 0 0 0 0 0 0 0 0 0 2 0 0 0 0 0 0 0 0 0 0 0 0 0 0 0 0 0 0 0 0 0 0 2 0 3 62 1119 952 806
0 0 0 0 0 0 0 0 0 0 0 3 1 1 7 3 3 1 0 0 0 0 0 0 0 0 0 0 0 0 0 0 0 0 0 0 0 0 3 4 16 714 1451 1134
0 0 0 0 0 0 0 0 0 0 3 4 7 11 16 14 7 5 4 4 0 0 2 0 0 0 0 0 0 0 0 0 0 0 0 0 0 0 1 3 3 204 1500 1404
0 0 0 0 0 0 0 0 0 0 0 10 9 11 13 20 13 17 9 0 1 0 2 0 0 0 0 0 0 0 0 0 0 0 0 0 0 0 4 4 3 0 114 568

GFSCGP_con_sbcape_087.txt.gz
CAPE
0 0 0 0 0 0 0 0 0 0 0 0 0 0 24 425 733 605 514 278 166 110 146 252 296 177 65 59 226 381 387 737 888 824 771 893 1110 1202 1307 1648 1622 1048 1712 1560
0 0 0 0 0 0 0 0 0 0 0 0 0 14 334 529 651 737 496 373 269 148 156 268 302 239 166 178 166 347 432 759 906 920 1016 1040 1154 1050 1409 1724 1727 1479 1529 1442
0 0 0 0 0 0 0 0 0 0 0 33 0 20 351 469 475 706 523 468 350 301 210 230 205 206 228 226 207 297 576 707 935 974 987 972 1000 1138 1418 1705 1781 1878 1895 1425
0 0 0 0 0 0 0 0 0 0 0 0 0 0 0 460 650 624 667 599 406 384 350 277 241 201 236 275 265 358 616 717 870 1011 1040 1237 1098 1025 1123 1602 1690 2040 1967 1842
0 0 0 0 0 0 0 0 0 0 0 0 0 0 0 224 355 658 690 721 550 397 411 299 288 213 212 283 280 383 659 772 915 951 1370 1259 1332 1186 1172 1486 2038 2157 2236 2020
0 0 0 0 0 0 0 0 0 0 0 0 0 0 0 0 0 0 279 665 536 452 402 283 232 233 235 283 291 334 645 1106 970 1019 1076 1322 1456 1408 1267 1411 1741 1680 1918 2161
0 0 0 0 0 0 0 0 0 0 0 0 0 0 0 0 0 0 0 233 592 518 443 426 212 154 220 290 288 352 1005 1233 901 947 1027 1050 1388 1519 1689 1826 1585 1660 1754 1878
0 0 0 0 0 0 0 0 0 0 0 0 0 0 0 0 0 0 4 107 241 482 526 408 370 177 162 298 356 378 842 1293 803 834 1449 1446 1380 1052 1110 1596 1301 1419 1501 1718
0 0 0 0 0 0 0 0 0 0 0 0 0 0 0 0 0 0 0 2 11 108 297 505 403 311 162 349 616 656 932 1285 1027 767 1438 1358 1140 1237 1115 1535 1557 1276 1671 1623
0 0 0 0 0 0 0 0 0 0 0 0 0 0 0 0 0 0 0 0 103 94 147 74 372 438 250 288 471 490 861 1051 1336 947 1015 909 910 944 1122 1089 1471 1528 1536 1773
0 0 0 0 0 0 0 0 0 0 0 0 0 0 0 0 0 0 0 0 49 285 329 276 85 355 413 192 333 458 561 620 661 743 1306 1364 936 692 741 672 1053 1456 1790 1949
0 0 0 0 0 0 0 0 0 0 0 0 0 0 0 0 0 0 0 0 0 158 543 462 37 23 552 515 214 417 435 454 528 995 1321 1038 1012 718 633 696 717 1014 1421 1871
0 0 0 0 0 0 0 0 0 0 0 0 0 0 0 0 0 0 0 0 4 5 251 594 629 470 338 600 399 285 393 445 487 570 731 1022 893 776 738 791 763 743 1264 1599
0 0 0 0 0 0 0 0 0 0 0 0 0 0 0 0 0 0 0 0 6 7 2 38 18 80 564 562 585 275 326 331 521 511 521 920 1188 1322 797 1104 1011 752 831 1229
0 0 0 0 0 0 0 0 0 0 0 0 0 0 0 0 0 0 0 0 0 0 2 9 8 7 4 85 651 357 284 471 528 644 574 693 1046 1038 1009 1352 1295 797 828 1052
0 0 0 0 0 0 0 0 0 0 0 0 0 0 0 0 0 0 0 0 0 0 0 1 11 0 0 2 6 569 464 348 578 696 655 796 723 705 949 897 1102 1089 960 867
0 0 0 0 0 0 0 0 0 0 0 0 0 0 0 0 0 0 0 0 0 0 0 0 0 17 2 0 2 22 651 567 533 736 789 811 840 714 790 536 875 947 1166 1136
0 0 0 0 0 0 0 0 0 0 0 0 0 0 0 0 0 0 0 0 0 0 0 0 0 0 13 1 0 1 9 193 399 622 636 628 832 868 741 806 661 979 748 1035
0 0 0 0 0 0 0 0 0 0 0 0 0 0 0 0 0 0 0 0 0 0 0 0 0 0 0 13 0 0 0 0 0 17 70 122 567 935 940 884 835 708 586 637
0 0 0 0 0 0 0 0 0 0 0 0 0 0 0 0 0 0 0 0 0 0 0 0 0 0 0 0 7 0 0 0 0 0 0 0 0 0 481 1147 1139 1053 776 664
0 0 0 0 0 0 0 0 0 0 0 0 0 0 0 0 0 0 0 0 0 0 0 0 0 0 0 0 4 3 0 0 0 1 1 0 0 0 1 90 452 917 1173 898
0 1 3 2 0 0 0 0 0 0 0 0 0 0 0 0 0 0 0 0 0 0 0 0 0 0 0 0 0 7 0 0 0 0 0 1 0 2 61 144 294 517 803 891
1 0 0 0 0 0 0 0 0 0 0 0 0 0 2 2 4 7 6 1 0 0 0 0 0 0 0 0 0 2 4 0 0 0 0 0 0 0 3 16 128 343 360 831
0 0 1 0 0 0 0 0 0 0 0 0 0 0 1 7 8 6 9 12 9 3 0 1 3 0 0 0 0 2 6 2 0 0 0 0 0 0 0 1 32 119 319 507
0 3 1 0 0 0 0 0 0 0 0 0 1 2 14 13 12 12 11 6 17 16 10 11 13 8 9 5 0 1 11 1 1 0 0 0 0 0 0 0 0 12 79 19
0 0 0 0 0 0 0 0 0 0 0 6 10 14 16 15 18 16 12 21 15 21 12 5 1 1 16 11 5 13 18 2 1 0 0 0 0 0 0 0 0 0 0 0

GFSCGP_con_sbcape_090.txt.gz
CAPE
0 0 0 0 0 0 6 26 1 23 97 68 241 35 752 832 1057 877 677 435 140 4 13 185 245 115 0 11 161 474 673 1022 1157 1099 990 1147 1397 2057 1630 1656 1848 1327 1331 1397
0 0 0 0 0 0 0 0 21 0 0 0 0 0 40 604 676 1064 988 770 309 181 97 349 448 449 264 72 111 394 624 1106 1493 1265 1261 1134 1346 1739 1567 1794 1926 1774 1427 1442
0 0 0 0 0 0 0 4 1 0 0 0 0 5 143 333 548 818 1031 832 723 484 172 454 580 612 521 389 129 336 681 943 1411 1367 1672 2011 1832 1760 1814 2146 1833 1931 1789 1323
0 0 0 0 0 0 0 0 3 0 0 0 0 43 24 455 541 830 1085 1052 858 672 436 328 594 680 646 609 223 255 742 1011 1375 1657 1566 1821 1388 1158 1154 1698 1678 2056 2078 1968
0 0 0 0 0 0 4 0 0 0 0 0 0 0 19 46 333 666 907 1118 979 833 675 464 572 631 604 653 620 330 788 1237 1249 1653 1899 1805 1918 1021 1355 1361 2553 2092 2461 2084
0 0 0 0 1 0 0 0 0 0 0 0 0 0 2 9 0 16 83 1002 1191 973 915 755 580 550 660 718 752 695 907 1687 1608 1638 2006 2047 1730 1407 1044 1496 1477 3334 2040 2054
0 0 0 0 8 0 0 0 0 0 0 0 0 0 8 0 14 83 4 236 1089 1221 981 1005 884 759 737 829 884 898 1097 1634 1939 1690 1791 2029 2175 2058 1758 2050 1331 2762 2634 1534
0 0 0 0 0 0 0 0 0 0 0 0 0 0 0 0 7 67 162 300 511 1085 1085 1028 1046 882 866 891 1008 1093 1186 1638 1823 1764 1938 2086 2238 1910 1645 1345 1050 1336 1272 1586
0 0 0 0 0 0 0 1 0 0 0 0 0 0 0 0 0 83 182 389 382 611 1010 1097 1100 1068 919 902 1083 1300 1402 1824 1882 1693 1960 2128 2249 2168 1505 1309 1500 1236 1461 1670
0 0 0 0 0 0 0 0 0 0 0 0 0 0 0 0 0 30 61 197 571 687 602 573 840 1130 1147 980 986 1217 1403 1682 1878 1748 1717 1840 2044 2160 2056 1706 1620 1320 1195 1573
0 0 0 0 0 0 0 0 0 0 0 0 5 0 0 0 0 0 52 165 639 622 985 805 275 490 1009 1142 968 960 1248 1500 1737 1745 1766 1758 1799 1882 1968 1755 1572 1629 1611 1706
0 1 1 0 0 0 0 0 0 1 0 0 14 0 0 0 1 0 43 325 90 139 138 401 984 663 528 838 1020 864 995 1174 1439 1626 1802 1821 1881 1840 1737 1770 1366 1381 1508 1794
0 0 0 0 0 0 0 0 0 0 0 5 0 0 0 0 3 0 3 72 6 7 18 25 30 68 655 978 1352 1032 815 1039 1181 1447 1503 1731 1851 1869 1780 1725 1693 1438 1467 1559
0 0 0 8 0 0 0 0 0 0 0 5 1 0 0 0 1 3 3 7 2 2 1 4 1 0 3 42 168 1219 896 879 1041 1181 1326 1599 1779 1885 1798 1754 1771 1736 1629 1621
0 0 0 0 0 0 0 0 0 0 0 0 3 0 6 1 0 0 3 5 0 0 0 0 1 2 0 0 1 100 1232 857 981 1067 1266 1440 1636 1767 1817 1820 1738 1772 1749 1649
0 0 0 0 0 0 0 0 0 0 0 0 0 0 0 0 0 0 0 0 0 0 0 0 0 0 3 0 0 0 4 1102 1014 1147 1113 1393 1480 1648 1871 1914 1876 1824 1795 1766
0 0 0 0 0 0 0 0 0 0 0 0 0 0 0 0 0 0 0 0 0 0 0 0 0 0 0 3 0 0 1 29 957 1072 1206 1201 1381 1546 1653 1668 1805 1885 1838 1814
0 0 0 0 0 0 0 0 0 0 0 0 0 0 0 0 0 0 0 0 0 0 0 0 0 0 0 0 4 1 0 0 4 224 977 1135 1190 1427 1623 1479 1624 1615 1594 1737
0 0 0 0 0 0 0 0 0 0 0 0 0 0 0 0 0 0 0 0 0 0 0 0 0 0 0 0 0 2 1 0 5 4 5 55 917 1271 1458 1451 1407 1829 1736 1453
0 0 0 0 0 0 0 0 0 0 0 0 0 0 0 0 0 16 0 0 0 0 0 0 0 0 0 0 0 0 0 0 1 0 1 2 7 42 774 1333 1987 1778 1667 1467
5 3 3 3 1 0 0 0 0 0 1 0 0 0 0 0 0 0 0 0 0 0 0 0 0 0 0 0 0 0 0 0 0 0 0 0 8 9 94 314 271 908 2091 2319
14 25 13 15 11 3 0 0 0 0 0 0 0 0 0 0 0 0 0 0 0 0 0 0 0 0 0 0 0 0 0 0 0 0 0 0 0 1 40 246 548 795 1023 1603
10 5 25 4 22 0 0 0 0 0 0 0 0 0 0 0 0 0 0 0 1 2 1 0 0 0 0 0 0 0 0 0 1 0 0 0 0 0 2 25 137 327 440 966
0 0 4 0 0 0 0 0 0 0 0 0 0 0 0 0 0 0 1 1 2 5 10 10 6 4 3 2 3 2 2 3 3 1 0 0 0 0 0 0 0 2 65 75
1 1 0 0 0 0 0 0 0 0 0 0 0 0 0 0 0 2 4 9 10 12 23 28 17 16 24 25 16 9 8 3 14 6 0 0 0 0 0 0 0 0 0 1
0 0 1 20 0 0 0 0 0 0 0 0 0 1 4 6 3 5 8 12 17 24 14 22 11 13 1 11 30 34 24 20 26 10 1 0 0 0 0 0 0 0 0 0

GFSCGP_con_sbcape_093.txt.gz
CAPE
0 0 0 0 0 0 3 178 115 149 191 187 366 536 1379 990 844 951 647 301 217 307 158 3 3 3 2 31 425 534 569 1292 1187 1136 772 893 1195 2367 2468 2030 2097 1822 1563 1684
0 0 0 0 0 0 4 71 122 151 179 166 343 600 682 1183 1143 668 982 730 469 304 63 14 17 11 7 20 287 613 802 1456 1354 1076 1485 911 1711 1472 1408 1515 1797 1688 1602 1804
0 0 0 0 0 0 1 66 132 195 0 6 38 155 253 296 680 1140 1131 886 482 151 37 172 154 102 52 58 154 539 1088 1579 1858 1735 1910 1530 2029 1635 1562 2585 1798 1816 1855 1697
0 0 0 0 0 0 2 6 79 31 9 87 20 134 262 268 422 818 1188 1214 571 252 93 232 241 307 269 145 60 373 883 1408 1750 1734 2462 2173 1936 1354 1760 1878 2237 1951 1822 1781
0 0 0 0 0 0 0 0 56 47 0 94 52 46 74 413 418 709 842 1051 860 512 416 334 365 573 489 298 2 203 910 1535 2063 2154 2365 2081 2136 1429 1799 2239 2345 2182 2708 2237
0 0 0 0 0 0 14 8 12 29 17 52 38 62 165 156 210 193 610 920 1037 745 703 485 524 614 651 371 309 120 981 2050 1995 1918 2138 2352 1736 2128 2416 1966 1904 1707 1943 2093
10 0 0 0 3 6 51 27 5 1 4 23 11 14 174 99 71 89 61 779 888 1026 830 703 650 760 821 515 510 707 1765 2480 2114 1879 2148 2330 2276 1749 1721 1821 1576 1496 1503 1745
9 0 0 0 15 30 34 20 18 3 1 6 25 138 110 83 131 237 301 498 811 931 1069 1002 889 969 947 968 1113 734 2664 2809 2067 1905 2915 3356 3016 2094 1556 1749 1567 1295 1152 1558
43 28 0 0 0 3 43 24 12 51 28 19 145 77 86 118 231 392 522 874 1027 741 1119 1228 844 1198 1138 1139 1545 1097 2367 3426 2723 2325 3209 3324 3448 3116 2271 1888 2157 1891 2499 1431
21 17 0 0 0 0 0 21 35 30 72 60 93 56 136 192 236 295 692 986 752 922 1014 950 874 1216 1332 1373 1233 1391 1655 2726 2273 2380 2380 2398 2608 2818 2686 2311 2218 2001 1700 2058
3 17 0 0 0 0 0 0 35 85 40 125 92 138 64 158 160 406 391 427 427 505 473 864 1051 597 1117 1579 1407 1307 1624 1956 2146 2357 2932 3052 2643 2449 2655 2341 2203 2258 2009 2292
0 2 1 0 0 0 0 11 73 61 36 7 36 2 58 145 123 562 177 47 51 75 149 222 415 722 997 1025 1106 1450 1445 1531 1760 2157 2515 2374 2405 2505 2363 2478 2266 2310 2717 2808
0 0 39 0 0 0 0 0 0 38 54 107 79 1 100 192 105 252 212 136 7 7 26 85 87 73 100 383 833 624 1096 1227 1506 1769 2019 2236 2379 2379 2510 2780 2701 2521 3116 2951
0 5 19 17 19 0 0 0 0 1 20 72 141 73 155 160 107 161 99 50 28 42 24 5 20 47 32 47 72 179 453 1035 1311 1835 1786 2647 2504 2691 2433 2887 3299 2740 3271 3232
2 25 0 1 0 0 3 0 0 0 0 68 244 200 115 40 36 36 24 12 3 3 0 0 1 4 32 13 0 0 40 348 1357 1401 2035 2394 2737 2862 2998 3330 3342 2644 3158 3052
4 51 14 4 0 0 0 0 0 0 0 6 241 21 29 4 0 2 2 1 0 0 0 0 0 0 0 8 0 0 0 10 588 877 1090 1922 2148 3010 2910 2770 2770 3355 3250 3465
18 72 43 17 5 0 0 0 0 0 0 0 91 23 0 0 0 0 0 0 0 0 0 0 0 0 0 0 1 0 0 0 37 128 18 75 1916 1782 2202 2716 2837 3286 3431 3110
0 8 22 29 2 0 0 0 0 0 0 0 0 0 1 0 0 0 0 0 0 0 0 0 0 0 0 0 0 0 1 0 0 0 0 4 3 426 1541 1973 2175 2608 2792 3182
0 0 0 15 33 0 0 0 0 0 0 0 0 0 0 0 0 0 0 0 0 0 0 0 0 0 0 0 0 0 0 1 0 0 0 0 5 20 79 782 1624 1774 2213 2456
0 0 0 2 0 13 10 0 0 0 5 0 0 0 0 0 0 9 0 0 0 0 0 0 0 0 0 0 0 0 0 0 0 0 0 0 0 6 19 138 463 1379 2497 2188
0 0 1 11 2 64 0 0 0 0 0 0 0 0 0 0 0 0 0 0 0 0 0 0 0 0 0 0 0 0 0 0 0 0 0 0 0 0 0 17 559 943 1512 2031
26 32 20 21 40 33 0 0 0 0 0 0 0 0 0 0 0 0 0 0 0 0 0 0 0 0 0 0 0 0 0 0 0 1 0 0 0 0 0 0 24 426 759 1079
40 56 216 59 76 28 0 0 0 0 0 0 0 0 0 0 0 0 0 0 0 0 0 0 0 0 0 1 4 0 0 3 0 0 3 0 0 0 0 0 0 13 349 329
2 6 0 9 13 1 0 0 0 0 0 0 0 0 0 0 0 0 0 0 0 0 0 2 9 9 7 8 13 20 8 3 6 1 1 4 0 0 0 0 0 0 0 16
38 17 3 3 14 2 0 0 0 0 0 0 0 0 0 0 0 0 0 0 1 4 7 6 7 11 15 24 26 25 35 22 16 8 2 4 1 0 0 0 0 0 0 0
2 8 55 106 30 7 9 0 0 0 0 0 0 0 0 0 0 0 0 2 6 5 7 4 16 15 15 16 19 30 14 34 44 35 14 3 4 0 0 0 0 0 0 0

GFSCGP_con_sbcape_096.txt.gz
CAPE
0 0 0 0 0 0 0 3 202 63 9 264 3 0 475 852 545 345 193 22 20 22 37 9 18 32 8 470 763 1380 2110 2297 2077 2040 1740 2701 2121 2462 2216 621 1686 2388 2940 2570
0 0 0 0 0 0 0 2 196 7 24 235 9 40 361 944 840 555 233 158 173 136 61 15 25 18 19 538 808 1412 2284 2212 2411 1881 2741 2538 1567 1952 2113 437 1523 2703 2427 2874
0 0 0 0 0 0 0 0 172 41 1 282 474 179 1 974 795 916 731 452 246 205 150 1 12 10 21 409 778 1275 2296 2060 2294 2508 2948 1001 715 562 1894 2013 2705 2526 2751 2382
0 0 0 0 0 0 0 0 15 197 163 44 95 344 893 1046 530 98 606 831 700 423 333 13 10 9 17 192 531 1306 2116 2112 2020 2710 2766 2305 1542 908 1529 2152 2484 2228 2260 2603
0 0 0 0 0 0 0 0 82 85 70 15 23 271 377 370 492 0 47 943 604 206 17 45 22 26 19 73 167 1002 1630 2334 2296 2770 2477 2231 2195 1321 683 1705 660 2006 3549 2780
0 0 0 0 0 0 0 0 0 42 30 1 15 16 226 356 36 70 12 924 566 469 95 116 120 295 241 70 37 779 1484 2078 2822 2533 2826 2804 1017 520 1085 1488 1395 2217 2334 2807
0 0 0 0 0 0 0 3 11 60 23 0 11 42 188 39 4 115 633 894 252 51 203 271 378 397 308 62 0 713 1561 1964 2421 2437 2460 2845 2251 2251 667 1132 1013 2146 2152 1339
0 8 0 0 0 2 0 27 25 31 5 1 10 244 87 71 145 69 425 547 697 26 22 405 576 764 475 514 110 617 1609 2134 2034 2393 2550 2894 3203 2244 1884 1445 2461 2131 2115 1504
68 41 0 0 0 23 37 36 46 17 0 23 286 208 23 23 142 303 1120 1083 686 749 631 44 354 821 577 602 667 699 1552 2037 2215 2155 2666 3117 3074 3219 2581 3061 3419 2195 2678 914
21 18 12 0 0 0 9 41 42 76 81 122 432 179 178 106 719 899 823 840 818 706 782 353 57 47 29 167 410 1598 1843 2236 2195 2186 2421 2615 2913 3028 3154 3627 3206 2658 2594 864
0 0 0 0 0 0 0 0 0 25 71 86 440 231 246 375 764 641 354 196 145 241 261 442 193 19 6 619 789 1395 2247 2762 2809 2725 2702 2481 2709 2927 3091 3095 3078 3057 2914 2251
7 1 5 0 0 0 0 20 26 63 34 50 167 182 16 392 545 252 73 40 20 7 51 126 118 149 284 564 141 631 526 1358 2530 2640 3038 2941 2879 2738 2873 2907 3082 3032 3135 2848
1 9 50 2 0 0 0 0 0 33 84 147 64 168 189 366 227 152 35 0 0 0 1 20 43 54 152 166 112 29 221 574 448 1862 2681 2483 2851 2795 2776 3069 3090 3228 3088 3141
0 0 3 2 18 0 0 0 0 0 42 46 61 112 323 163 63 88 55 1 0 0 0 0 1 34 17 3 1 6 2 331 995 272 874 2036 2528 2579 2801 3002 3165 3255 3405 3110
0 0 6 1 0 0 0 0 0 0 0 301 244 581 298 246 28 2 3 5 0 0 0 0 0 0 5 17 0 0 6 17 286 268 296 552 412 1970 2675 3122 3455 3202 3280 3283
0 16 23 6 0 0 0 0 4 0 0 258 215 241 16 8 5 4 5 10 1 0 0 0 0 0 0 0 0 0 0 0 0 7 4 72 506 594 2121 2379 2830 3216 3350 3318
5 14 63 0 0 0 0 0 0 0 0 463 259 31 3 0 0 2 4 2 0 0 0 0 0 0 0 0 0 0 0 0 0 0 0 1 155 357 164 1667 2205 2675 2891 3045
55 64 59 77 34 2 0 0 0 0 1 249 282 100 0 0 0 1 0 0 0 0 0 0 0 0 0 0 0 0 0 7 0 0 0 0 0 26 150 295 795 1734 2094 2255
0 3 32 44 40 3 1 0 0 0 33 30 63 8 3 0 0 0 0 0 0 0 0 0 0 0 0 0 0 0 0 0 0 0 0 0 0 0 1 48 201 435 1138 1708
0 0 3 9 33 21 2 0 0 0 64 0 0 0 0 0 4 0 0 0 0 0 0 0 0 0 0 0 0 0 0 0 0 0 0 0 0 0 0 0 0 321 834 1527
0 0 0 4 51 151 0 0 0 0 105 3 0 0 0 0 0 0 0 0 0 0 0 0 0 0 0 0 0 0 0 0 0 0 1 0 0 0 0 0 0 141 147 657
34 13 7 3 55 131 0 0 0 3 5 0 0 0 0 0 0 0 0 0 0 0 0 0 0 0 0 0 0 0 5 8 8 10 0 8 2 0 0 0 0 0 45 268
156 45 210 107 304 23 1 1 0 0 0 0 0 0 0 0 0 0 0 0 0 0 0 0 0 0 0 0 0 0 4 2 10 4 19 2 15 3 0 0 0 0 0 196
6 3 113 117 157 49 0 0 0 0 0 0 0 0 0 0 0 0 0 0 0 0 0 0 0 0 1 3 5 20 20 18 27 20 19 17 1 13 1 0 0 0 0 0
137 29 6 32 26 3 4 0 0 0 0 0 0 0 0 0 0 0 0 0 0 0 0 0 1 1 3 4 7 3 14 23 11 17 14 12 11 0 11 3 0 0 0 0
48 20 228 71 32 42 20 1 0 0 0 0 0 0 0 0 0 0 0 0 0 0 0 1 1 1 2 3 6 21 3 20 10 7 12 4 0 1 7 17 8 0 0 0

GFSCGP_con_sbcape_099.txt.gz
CAPE
0 0 0 0 0 0 0 0 0 56 359 264 201 112 468 397 116 22 2 3 4 3 0 17 10 0 91 238 13 569 345 813 269 667 845 864 943 210 356 749 751 1011 1158 1331
0 0 0 0 0 0 0 0 127 147 113 155 34 276 579 638 262 70 7 0 2 2 2 3 4 0 0 157 189 565 785 582 259 498 1132 1031 957 742 697 586 791 1101 1233 1392
0 0 0 0 0 0 0 0 54 176 139 147 58 79 24 167 457 118 22 19 5 7 9 3 0 0 4 148 412 909 698 759 940 648 409 386 25 14 504 95 630 1374 1442 1335
0 0 0 0 0 0 0 0 0 152 32 294 453 72 0 65 536 286 49 39 15 26 32 7 0 0 51 115 389 1049 883 584 689 1396 554 132 27 0 288 791 967 1502 1460 1201
0 0 0 0 0 0 0 0 125 99 42 44 31 84 14 31 187 453 569 197 89 43 38 0 0 0 105 143 253 891 870 621 485 1314 1031 412 497 440 747 736 923 1124 1381 1298
0 0 0 0 0 0 0 0 119 170 69 10 3 6 51 80 254 37 252 542 384 239 22 2 0 0 44 110 216 536 1193 858 772 1080 1078 842 453 289 470 353 67 697 933 1135
0 0 0 0 0 0 0 0 0 14 9 2 0 79 211 228 28 1 15 0 61 302 187 8 0 0 0 16 243 409 982 1153 980 1101 1020 1239 372 193 397 270 198 688 774 1191
0 0 0 0 0 0 0 0 0 36 21 7 74 232 86 42 127 50 16 12 79 13 50 93 86 42 0 16 177 410 640 964 868 1526 1523 1767 1054 362 419 380 425 653 972 929
2 0 0 0 0 0 0 0 0 0 1 0 219 183 147 7 1 216 6 81 153 194 245 232 28 41 46 45 77 355 630 730 807 1693 1404 1696 1571 673 306 25 569 939 1231 1199
0 0 0 0 0 0 0 0 1 0 45 45 327 171 158 278 695 751 650 638 591 512 0 25 94 82 8 407 304 258 728 828 945 1031 1575 1857 1811 1809 1585 1102 1411 1115 843 908
0 0 0 0 0 0 0 0 0 0 1 12 197 101 285 512 189 200 154 143 316 6 0 0 59 60 34 96 18 243 294 609 1380 1105 1526 1787 1890 1872 1591 2038 1637 1609 624 358
0 0 0 0 0 0 0 0 0 0 0 116 92 54 188 219 26 5 7 0 36 117 211 187 226 193 68 49 0 67 215 594 466 460 1294 1808 2060 2023 1916 1803 1838 1611 726 420
0 0 3 1 0 0 0 0 0 0 0 79 7 4 402 66 37 46 1 0 0 19 66 123 40 61 32 15 12 70 41 493 170 351 556 578 1965 2124 1804 1906 2111 1914 1512 1147
0 0 0 0 0 0 0 0 0 0 0 45 125 456 374 179 236 56 1 0 0 0 0 10 1 0 0 5 8 69 176 437 194 297 155 181 571 772 1792 2011 2246 2564 2075 2065
0 0 0 0 0 0 0 0 0 0 159 100 1 313 269 113 2 0 0 0 0 0 0 0 0 0 0 0 0 2 5 33 24 8 73 556 576 241 269 1153 1988 2138 2571 2136
0 0 0 0 0 0 0 0 0 0 251 134 270 96 121 9 0 0 0 0 0 0 0 0 0 0 0 0 0 0 0 0 0 0 26 195 212 75 132 220 820 1270 1707 2139
0 0 2 0 0 0 0 0 0 315 545 426 143 66 17 4 0 0 0 0 0 0 0 0 0 0 0 0 0 0 0 0 0 0 0 9 92 107 149 310 470 856 1111 1169
0 5 2 0 0 0 0 0 0 51 292 139 85 14 19 0 0 0 0 0 0 0 0 0 0 0 0 0 0 0 0 0 0 0 0 0 0 7 103 72 128 250 323 772
0 0 0 0 0 0 0 0 0 125 326 175 42 0 0 0 0 0 0 0 0 0 0 0 0 0 0 0 0 0 0 0 0 0 0 0 0 0 0 0 2 76 198 586
0 0 0 6 16 1 0 0 0 1 0 108 0 0 0 0 0 0 0 0 0 0 0 0 0 0 0 0 0 0 0 0 0 0 0 0 0 0 0 0 0 0 66 92
0 0 0 0 18 27 0 0 0 0 0 3 0 0 0 0 0 0 0 0 0 0 0 0 0 0 0 0 0 0 0 0 0 0 0 0 0 0 0 0 0 0 0 7
58 0 1 0 1 30 0 0 0 1 0 0 0 0 0 0 0 0 0 0 0 0 0 0 0 0 0 0 0 0 0 0 0 0 0 0 0 0 0 0 0 0 0 0
23 33 51 69 64 0 0 0 0 0 0 0 0 0 0 0 0 0 0 0 0 0 0 0 0 0 0 0 0 0 0 0 0 0 0 0 0 0 0 0 0 0 0 0
13 8 23 48 82 9 0 0 0 0 0 0 0 0 0 0 0 0 0 0 0 0 0 0 0 0 0 0 0 0 0 0 0 0 0 0 0 0 0 0 0 0 0 0
159 26 9 26 20 0 1 0 0 0 0 0 0 0 0 0 0 0 0 0 0 0 0 0 0 0 0 0 0 0 0 0 1 0 0 0 0 0 0 0 0 0 0 0
91 134 62 43 134 47 7 0 0 0 0 0 0 0 0 0 0 0 0 0 0 0 0 0 0 0 0 0 0 0 0 0 0 0 0 0 0 0 0 0 0 0 0 0

GFSCGP_con_sbcape_102.txt.gz
CAPE
0 0 0 0 0 0 0 0 139 327 212 114 45 0 13 17 144 333 0 0 4 30 19 13 147 288 231 98 0 58 399 46 110 567 601 258 68 41 20 86 565 985 980 1109
0 0 0 0 0 0 0 0 162 111 115 149 162 183 290 190 238 135 0 0 0 10 28 19 20 114 0 10 166 185 387 66 80 526 618 630 608 325 370 458 670 808 986 913
0 0 0 0 0 0 0 0 94 131 56 83 128 44 88 74 183 11 0 0 0 0 11 14 52 108 0 122 246 303 427 125 55 539 352 101 33 293 398 315 484 973 1006 1041
0 0 0 0 0 0 0 0 51 158 150 160 116 0 0 0 29 111 57 2 0 0 5 2 49 94 89 230 278 383 381 265 427 446 250 153 89 55 328 261 492 1059 1161 1151
0 0 0 0 0 0 0 0 2 126 88 190 124 4 0 1 149 265 228 26 10 0 3 3 28 81 112 313 474 354 330 344 648 1069 372 81 28 78 437 877 724 1037 1241 911
0 0 0 0 0 0 0 19 97 13 8 2 0 20 14 32 236 334 247 47 119 62 6 0 1 126 145 269 615 366 287 239 235 890 883 361 210 385 780 655 581 635 887 1050
0 0 0 0 0 0 0 0 0 1 6 1 0 1 5 110 334 447 506 429 300 108 107 0 0 159 191 181 437 771 359 309 355 721 827 541 279 297 591 413 117 402 685 823
0 0 0 0 0 0 0 0 0 0 0 0 10 10 97 63 53 156 131 121 133 149 330 33 9 65 184 162 322 818 643 403 528 906 745 856 299 86 254 326 180 252 522 693
0 0 0 0 0 0 0 0 0 0 0 20 37 37 2 109 39 12 14 208 255 112 174 51 40 283 372 315 276 391 810 601 581 1014 928 987 591 233 271 281 228 169 584 792
0 0 0 0 0 0 0 0 0 0 0 16 31 46 32 63 639 538 67 219 234 9 106 214 138 100 154 78 102 276 595 571 611 835 1001 1088 1179 551 310 73 120 622 764 979
0 0 0 0 0 0 0 0 0 0 0 5 101 24 413 532 486 447 509 284 65 18 14 27 39 219 99 102 89 163 49 685 826 591 1021 1114 1262 1303 1085 929 807 584 660 743
0 0 0 0 0 0 0 0 0 0 0 26 11 104 246 113 69 60 136 67 76 93 105 148 0 17 258 21 13 15 42 191 316 409 759 687 1084 1360 1124 1071 1352 885 615 329
0 0 0 0 0 0 0 0 0 0 0 0 4 47 200 89 55 19 50 88 89 14 0 5 15 56 70 93 8 61 37 32 154 248 118 66 137 664 1203 1390 1179 1197 684 268
0 0 0 0 0 0 0 0 0 0 0 6 59 150 269 82 41 28 0 0 0 2 2 0 0 1 6 23 124 65 105 293 149 174 111 85 125 258 136 494 991 1239 1093 583
0 0 0 0 0 0 0 0 0 0 6 0 194 209 324 121 5 0 0 0 0 0 0 0 0 0 0 0 2 20 10 2 172 85 98 139 94 181 20 21 165 772 1028 1299
0 0 0 0 0 0 0 0 0 56 271 179 193 144 32 0 0 0 0 0 0 0 0 0 0 0 0 0 0 0 0 0 0 2 60 317 244 61 25 4 40 349 806 1141
0 0 0 0 0 0 0 0 24 221 206 276 205 70 1 0 0 0 0 0 0 0 0 0 0 0 0 0 0 0 0 0 0 0 0 0 80 154 227 92 108 249 253 308
0 0 0 0 0 0 0 0 21 284 169 152 84 34 0 0 0 0 0 0 0 0 0 0 0 0 0 0 0 0 0 0 0 0 0 0 0 0 11 17 32 144 264 379
0 0 0 0 0 0 0 0 2 203 140 155 15 0 0 0 0 0 0 0 0 0 0 0 0 0 0 0 0 0 0 0 0 0 0 0 0 0 0 0 0 8 60 74
0 0 0 0 0 0 0 0 0 0 160 15 0 0 0 0 0 0 0 0 0 0 0 0 0 0 0 0 0 0 0 0 0 0 0 0 0 0 0 0 0 0 0 0
0 0 0 0 0 0 0 0 0 0 0 4 0 0 0 0 0 0 0 0 0 0 0 0 0 0 0 0 0 0 0 0 0 0 0 0 0 0 0 0 0 0 0 0
0 0 0 0 0 0 0 0 0 0 0 0 0 0 0 0 0 0 0 0 0 0 0 0 0 0 0 0 0 0 0 0 0 0 0 0 0 0 0 0 0 0 0 0
0 0 0 0 0 0 0 0 0 0 0 0 0 0 0 0 0 0 0 0 0 0 0 0 0 0 0 0 0 0 0 0 0 0 0 0 0 0 0 0 0 0 0 0
0 0 0 0 0 0 0 0 0 0 0 0 0 0 0 0 0 0 0 0 0 0 0 0 0 0 0 0 0 0 0 0 0 0 0 0 0 0 0 0 0 0 0 0
0 0 0 0 0 0 0 0 0 0 0 0 0 0 0 0 0 0 0 0 0 0 0 0 0 0 0 0 0 0 0 0 0 0 0 0 0 0 0 0 0 0 0 0
0 0 0 0 0 0 0 0 0 0 0 0 0 0 0 0 0 0 0 0 0 0 0 0 0 0 0 0 0 0 0 0 0 0 0 0 0 0 0 0 0 0 0 0

GFSCGP_con_sbcape_105.txt.gz
CAPE
0 0 0 0 0 0 0 0 298 268 67 8 12 24 34 65 107 247 300 0 12 15 43 91 175 340 286 236 110 320 210 49 365 400 248 142 3 13 10 75 533 801 714 985
0 0 0 0 0 0 0 11 163 167 188 73 3 19 56 74 130 168 266 0 1 12 69 123 206 303 192 151 87 198 265 0 261 331 287 281 181 125 128 109 475 641 835 716
0 0 0 0 0 0 0 0 175 159 77 138 93 49 60 58 111 179 278 0 1 6 46 151 254 295 145 80 100 183 210 0 48 472 252 109 200 246 272 287 449 666 794 754
0 0 0 0 0 0 0 0 67 172 37 4 89 1 46 127 167 235 131 0 11 5 7 94 220 198 67 68 159 115 182 2 0 309 357 381 461 356 294 247 280 597 884 892
0 0 0 0 0 0 0 0 30 179 128 99 156 0 0 150 177 185 161 0 1 6 11 50 141 108 13 208 175 229 185 27 203 188 150 113 44 11 167 294 250 660 891 787
0 0 0 0 0 0 0 7 19 0 0 17 60 11 0 53 135 131 124 31 1 23 16 43 121 86 37 325 192 265 186 87 375 420 115 70 8 68 521 561 382 599 782 804
0 0 0 0 0 0 0 2 11 44 22 9 0 6 0 3 92 143 142 40 5 3 15 29 68 89 92 343 240 224 159 68 202 608 608 235 58 89 392 478 422 497 653 695
0 0 0 0 0 0 0 0 0 0 0 0 0 0 0 24 52 155 297 189 271 211 25 1 34 93 109 262 399 265 137 60 80 358 627 449 128 108 185 313 110 213 501 611
0 0 0 0 0 0 0 0 0 0 0 3 0 0 1 69 2 215 123 235 365 190 121 66 17 73 143 193 255 613 349 143 173 356 481 604 326 93 86 227 80 21 151 421
0 0 0 0 0 0 0 0 0 0 0 1 0 16 11 280 92 0 159 55 67 137 145 190 238 123 154 206 203 129 408 325 304 400 562 619 713 280 110 108 148 155 184 433
0 0 0 0 0 0 0 0 0 0 0 2 29 6 243 219 558 404 192 44 55 134 97 125 156 110 116 143 128 70 6 286 401 415 629 837 841 868 389 195 106 106 271 366
0 0 0 0 0 0 0 0 0 0 0 0 0 32 308 366 353 233 99 62 19 0 0 22 51 184 138 104 54 37 56 96 123 191 310 486 412 445 630 647 696 974 788 377
0 0 0 0 0 0 0 0 0 0 0 0 9 34 242 225 134 156 107 44 37 69 83 20 10 81 36 54 29 7 22 62 109 139 2 0 173 161 286 486 531 653 736 342
0 0 0 0 0 0 0 0 0 0 0 1 0 272 368 198 10 0 4 17 3 2 1 2 4 25 71 45 47 56 58 46 65 126 26 95 78 80 0 0 152 507 653 439
0 0 0 0 0 0 0 0 0 0 0 1 100 204 279 276 75 0 0 0 0 0 0 0 0 0 1 4 4 27 34 100 94 25 19 68 72 92 89 1 0 14 257 707
0 0 0 0 0 0 0 0 3 55 191 104 206 156 196 83 0 0 0 0 0 0 0 0 0 0 0 0 0 0 0 1 75 96 114 181 180 109 71 5 0 3 112 244
0 0 0 0 0 0 0 0 0 141 155 302 249 243 51 0 0 0 0 0 0 0 0 0 0 0 0 0 0 0 0 1 0 0 0 3 155 175 175 136 27 39 207 228
0 0 0 0 0 0 0 0 217 199 185 153 101 56 0 0 0 0 0 0 0 0 0 0 0 0 0 0 0 0 0 0 0 0 0 0 0 0 20 28 35 76 92 90
0 0 0 0 0 0 0 0 0 64 170 158 43 0 0 0 0 0 0 0 0 0 0 0 0 0 0 0 0 0 0 0 0 0 0 0 0 0 0 0 0 0 0 5
0 0 0 0 0 0 0 0 0 27 96 0 0 0 0 0 0 0 0 0 0 0 0 0 0 0 0 0 0 0 0 0 0 0 0 0 0 0 0 0 0 0 0 0
0 0 0 0 0 0 0 0 0 0 0 0 0 0 0 0 0 0 0 0 0 0 0 0 0 0 0 0 0 0 0 0 0 0 0 0 0 0 0 0 0 0 0 0
0 0 0 0 0 0 0 0 0 0 0 0 0 0 0 0 0 0 0 0 0 0 0 0 0 0 0 0 0 0 0 0 0 0 0 0 0 0 0 0 0 0 0 0
0 0 0 0 0 0 0 0 0 0 0 0 0 0 0 0 0 0 0 0 0 0 0 0 0 0 0 0 0 0 0 0 0 0 0 0 0 0 0 0 0 0 0 0
0 0 0 0 0 0 0 0 0 0 0 0 0 0 0 0 0 0 0 0 0 0 0 0 0 0 0 0 0 0 0 0 0 0 0 0 0 0 0 0 0 0 0 0
0 0 0 0 0 0 0 0 0 0 0 0 0 0 0 0 0 0 0 0 0 0 0 0 0 0 0 0 0 0 0 0 0 0 0 0 0 0 0 0 0 0 0 0
0 0 0 0 0 0 0 0 0 0 0 0 0 0 0 0 0 0 0 0 0 0 0 0 0 0 0 0 0 0 0 0 0 0 0 0 0 0 0 0 0 0 0 0

GFSCGP_con_sbcape_108.txt.gz
CAPE
0 0 0 0 0 0 0 99 205 268 59 31 9 1 60 82 125 159 0 0 15 47 40 84 146 297 245 175 150 193 130 103 253 223 117 68 1 0 23 147 625 704 785 967
0 0 0 0 0 0 0 143 197 217 242 14 2 12 88 101 148 171 172 0 0 31 49 56 183 302 284 192 122 163 88 88 291 238 184 135 54 46 23 75 488 762 803 867
0 0 0 0 0 0 0 41 188 136 192 45 31 47 110 140 104 145 193 0 0 14 66 110 184 279 187 150 61 147 65 44 180 213 179 126 185 196 151 190 434 641 852 822
0 0 0 0 0 0 0 0 197 233 25 11 12 0 55 97 105 106 134 1 0 1 78 114 168 258 131 108 51 90 75 0 40 198 252 331 402 286 186 226 290 501 824 889
0 0 0 0 0 0 0 0 186 100 16 24 122 0 0 81 87 68 96 2 0 6 55 102 149 265 177 96 69 47 66 0 0 193 230 267 212 105 134 187 283 486 737 808
0 0 0 0 0 0 0 16 12 0 4 12 31 13 0 85 73 42 27 51 0 7 37 86 142 240 213 113 96 77 38 0 9 80 67 129 60 33 254 270 181 421 725 838
0 0 0 0 0 0 0 0 18 17 4 0 0 0 0 3 63 80 34 59 0 6 11 45 139 170 104 209 147 140 41 7 101 128 16 31 39 9 173 372 249 367 642 775
0 0 0 0 0 0 0 0 0 1 0 0 0 3 0 1 0 64 15 70 0 0 3 24 113 114 45 261 176 226 12 3 85 320 317 82 40 29 117 272 242 221 587 670
0 0 0 0 0 0 0 0 0 0 0 0 0 0 1 27 69 86 141 147 14 0 13 49 96 198 105 265 348 168 43 1 0 164 277 300 40 65 94 170 164 72 187 442
0 0 0 0 0 0 0 0 0 0 0 0 0 0 0 61 65 242 255 342 160 18 14 48 40 128 266 207 261 419 209 130 107 107 171 297 185 48 10 66 110 77 63 237
0 0 0 0 0 0 0 0 0 0 0 0 4 0 182 94 37 212 268 317 199 101 70 18 73 106 148 135 58 57 98 249 276 214 353 491 570 264 15 95 62 68 45 178
0 0 0 0 0 0 0 0 0 0 0 0 0 0 419 399 508 99 92 129 63 53 181 224 117 138 174 157 88 12 22 136 70 98 220 355 370 444 535 530 365 282 257 228
0 0 0 0 0 0 0 0 0 0 0 10 4 0 394 348 259 236 85 56 5 9 28 86 211 265 178 80 36 13 12 99 184 47 19 65 65 87 196 290 394 486 606 538
0 0 0 0 0 0 0 0 0 0 0 0 0 98 485 324 295 269 226 79 56 57 17 16 19 116 44 10 0 3 37 75 109 57 0 23 69 11 0 0 14 82 456 634
0 0 0 0 0 0 0 0 0 0 0 2 5 191 283 297 152 137 110 71 17 2 0 2 3 4 37 24 24 57 47 67 43 40 5 31 65 73 31 0 0 0 103 353
0 0 0 0 0 0 0 0 0 96 1 98 180 311 337 158 7 23 28 0 0 0 0 0 0 1 1 3 2 1 1 4 161 45 3 47 214 89 47 0 0 0 38 219
0 0 0 0 0 0 0 2 0 56 135 280 293 298 180 14 12 0 0 0 0 0 0 0 0 2 2 1 0 0 0 0 0 0 0 0 7 105 151 113 17 32 183 213
0 0 0 0 0 0 0 25 71 131 118 116 322 367 62 0 0 0 0 0 0 0 0 0 0 0 0 0 0 0 0 0 0 0 0 0 0 0 0 0 0 3 25 40
0 0 0 0 0 0 0 0 0 41 90 107 285 79 0 0 0 0 0 0 0 0 0 0 0 0 0 0 0 0 0 0 0 0 0 0 0 0 0 0 0 0 0 0
0 0 0 0 0 0 0 0 0 0 31 61 8 0 0 0 0 0 0 0 0 0 0 0 0 0 0 0 0 0 0 0 0 0 0 0 0 0 0 0 0 0 0 0
0 0 0 0 0 0 0 0 0 0 0 0 0 0 0 0 0 0 0 0 0 0 0 0 0 0 0 0 0 0 0 0 0 0 0 0 0 0 0 0 0 0 0 0
0 0 0 0 0 0 0 0 0 0 0 0 0 0 0 0 0 0 0 0 0 0 0 0 0 0 0 0 0 0 0 0 0 0 0 0 0 0 0 0 0 0 0 0
0 0 0 0 0 0 0 0 0 0 0 0 0 0 0 0 0 0 0 0 0 0 0 0 0 0 0 0 0 0 0 0 0 0 0 0 0 0 0 0 0 0 0 0
0 0 0 0 0 0 0 0 0 0 0 0 0 0 0 0 0 0 0 0 0 0 0 0 0 0 0 0 0 0 0 0 0 0 0 0 0 0 0 0 0 0 0 0
0 0 0 0 0 0 0 0 0 0 0 0 0 0 0 0 0 0 0 0 0 0 0 0 0 0 0 0 0 0 0 0 0 0 0 0 0 0 0 0 0 0 0 0
0 0 0 0 0 0 0 0 0 0 0 0 0 0 0 0 0 0 0 0 0 0 0 0 0 0 0 0 0 0 0 0 0 0 0 0 0 0 0 0 0 0 0 0

GFSCGP_con_sbcape_111.txt.gz
CAPE
0 0 0 0 0 0 0 4 308 237 207 220 27 5 37 133 137 143 159 159 176 206 253 277 334 389 490 649 836 920 854 1097 1069 1106 1090 872 952 1099 1083 1520 1742 1773 1557 1820
0 0 0 0 0 0 401 343 347 315 124 114 38 92 91 144 176 110 146 179 213 255 259 302 338 452 554 734 870 938 824 942 1209 1202 1241 1034 871 800 895 1226 1682 1711 1793 1963
0 0 0 0 0 0 0 35 332 303 196 111 162 125 205 194 175 199 133 116 169 241 253 341 380 521 579 725 859 892 1002 1068 1246 1151 1227 1148 1117 1092 660 915 1569 1697 1823 1790
0 0 0 0 0 0 0 3 336 245 79 146 0 1 30 239 213 166 130 92 21 163 276 357 420 567 612 711 770 830 1028 1016 1133 1329 1241 1341 2058 1409 1304 944 1439 1602 1832 1798
0 0 0 0 0 0 0 0 359 186 152 77 12 18 12 126 218 138 154 140 39 84 194 299 419 559 571 697 667 704 940 811 1015 1318 1429 2267 1827 2085 1178 1094 1640 1815 2007 1942
0 0 0 0 0 0 0 230 219 144 163 0 0 15 52 168 79 159 141 159 157 16 123 242 392 526 517 653 631 613 955 852 885 1243 1364 1422 1310 1478 1328 1317 1917 2395 2364 2463
0 0 0 0 0 0 0 11 34 39 40 0 5 65 13 116 127 150 129 182 136 111 109 246 376 513 550 515 597 631 887 1108 856 892 1146 1313 1314 1281 1518 1758 1342 1358 1767 2115
0 0 0 0 0 0 21 0 0 0 0 2 52 78 65 125 79 204 146 97 116 123 120 242 431 512 403 531 390 642 747 1000 912 820 1017 1134 1209 1070 1138 1540 1465 1177 1599 2621
0 0 0 0 0 0 0 0 0 2 0 14 103 71 111 247 133 233 215 116 81 100 173 238 396 410 425 649 564 680 774 824 853 926 1355 1283 1235 1082 1012 1076 1388 1392 1471 1586
0 0 0 0 0 0 0 0 0 0 7 0 71 107 219 342 401 187 281 213 193 154 194 255 498 434 485 639 486 780 782 913 793 931 1193 1501 1537 1277 1174 1091 1251 1143 1145 1223
0 0 0 0 0 0 0 0 0 0 0 4 90 163 225 382 534 550 491 384 324 163 278 585 411 265 299 543 395 641 941 930 798 777 946 1098 1341 1454 1339 1251 1211 1094 1144 1284
0 0 0 0 0 0 0 0 0 0 15 60 127 289 507 728 599 681 518 577 363 271 347 332 263 530 558 323 244 510 789 916 1046 1015 1173 1214 1501 1605 1484 1467 1416 1246 1027 1257
0 2 5 0 0 0 0 0 0 16 97 255 77 182 677 846 676 672 392 439 356 405 351 341 219 341 472 227 144 81 459 719 755 890 1195 1333 1367 1636 1711 1753 1702 1697 1802 1800
0 0 17 15 0 0 0 0 0 0 12 103 91 376 683 722 934 382 352 327 259 266 261 345 507 526 468 147 62 74 54 83 190 228 368 664 717 791 949 1240 1381 1614 1843 1967
0 0 0 0 0 0 22 0 0 0 0 16 104 484 707 799 808 613 351 310 231 152 108 231 344 253 176 101 78 27 74 187 210 190 196 247 551 447 400 426 527 614 1081 1429
0 22 0 0 0 0 36 55 131 109 23 221 339 588 903 715 586 378 366 211 47 32 44 64 82 21 2 2 2 5 26 143 237 161 112 127 344 195 290 210 276 239 461 893
1 45 59 26 0 0 6 178 229 228 289 439 508 598 852 576 473 197 74 12 1 4 4 4 3 3 2 3 3 2 0 1 1 1 31 24 2 326 480 435 333 267 451 802
0 0 3 15 8 29 0 119 114 510 429 407 588 741 680 285 30 10 8 0 0 1 2 2 2 1 1 0 0 0 0 0 0 0 1 0 0 0 0 23 38 91 272 386
0 0 0 0 0 0 0 5 22 42 263 433 649 369 27 0 0 0 0 0 0 0 1 0 0 0 0 0 0 0 0 0 0 0 0 0 0 0 0 0 0 0 1 4
0 0 0 0 19 0 3 0 0 0 3 348 539 163 0 1 111 12 0 0 0 0 0 0 0 0 0 0 0 0 0 0 0 0 0 0 0 0 0 0 0 0 6 4
0 0 0 0 0 0 0 0 0 0 16 347 400 183 15 191 193 0 0 0 0 1 0 0 0 0 0 0 0 0 0 0 0 0 0 0 0 0 0 0 0 0 0 0
1 0 0 0 0 0 0 0 0 0 0 78 241 191 155 16 0 0 0 0 0 0 0 0 0 0 0 0 0 0 0 0 0 0 0 0 0 0 0 0 0 0 0 0
70 2 84 0 0 0 0 0 0 0 0 2 282 157 8 0 0 0 0 0 0 0 0 0 0 0 0 0 0 0 0 0 0 0 0 0 0 0 0 0 0 0 0 0
0 0 13 12 0 0 0 0 0 0 0 0 68 1 0 0 0 0 0 0 0 0 0 0 0 0 0 0 0 0 0 0 0 0 0 0 0 0 0 0 0 0 0 0
0 0 0 0 0 0 0 0 0 0 0 0 0 0 0 0 0 0 0 0 0 0 0 0 0 0 0 0 0 0 0 0 0 0 0 0 0 0 0 0 0 0 0 0
0 0 7 0 0 2 0 0 0 0 0 0 0 0 0 0 0 0 0 0 0 0 0 0 0 0 0 0 0 0 0 0 0 0 0 0 0 0 0 0 0 0 0 0

GFSCGP_con_sbcape_114.txt.gz
CAPE
0 0 0 1 17 0 0 0 339 311 218 293 154 43 217 162 97 90 57 127 202 253 365 337 273 303 493 660 930 1075 1180 1432 1451 1493 989 986 1036 1196 1210 1378 1833 1945 1757 1988
0 0 0 0 12 0 5 5 389 403 617 270 221 221 245 179 40 169 119 112 188 207 234 482 412 435 573 880 968 1072 1258 1541 1904 1519 1485 1114 1032 1089 1120 1372 1780 1736 1692 2012
0 0 0 0 0 0 259 175 340 302 370 308 206 283 353 149 108 155 148 216 159 157 297 508 542 535 621 922 1155 1199 1350 1537 1689 1156 2211 1332 2056 1452 1321 1415 1440 1668 1807 1761
0 0 0 0 0 0 1 12 273 557 348 234 431 13 314 259 263 224 154 204 230 191 197 378 559 600 630 818 1111 1279 1404 1678 1421 1766 1436 1602 1815 1299 934 992 1270 1412 1647 1585
0 0 0 0 0 0 0 9 196 291 201 252 209 0 88 451 341 188 210 137 92 112 111 227 415 601 610 770 935 1124 1480 1770 1490 1484 1533 1105 929 911 994 1169 1822 1637 1981 1753
2 0 0 0 0 0 0 12 67 69 173 30 103 154 242 518 429 465 228 205 90 100 80 197 256 448 750 732 871 922 1371 1739 1625 1759 1489 1248 1092 959 1147 1719 1857 1343 1306 1370
0 0 0 0 0 0 0 75 61 26 33 95 9 2 143 180 176 357 363 230 315 67 55 98 279 442 859 780 901 841 1302 1644 1581 1578 1527 1430 1078 1093 982 1287 1051 1027 1547 1330
0 0 0 0 0 0 0 41 36 46 119 139 144 31 108 136 150 234 359 271 377 286 105 122 340 571 786 837 1063 951 1363 1601 1456 1351 1448 1649 1650 879 822 1171 1706 1281 1690 1024
1 7 0 0 0 0 0 1 29 45 93 130 178 183 241 282 311 278 412 384 211 366 215 240 343 595 981 945 1134 1204 1373 1620 1536 1327 1560 1560 1552 1372 1861 1150 1188 1378 1712 1202
5 7 0 0 0 0 0 2 44 33 101 96 191 151 482 609 519 447 396 421 231 269 258 382 488 721 984 478 1210 1100 1461 1664 1446 1234 1435 1121 1311 1534 1390 1879 1763 1613 1806 1929
6 0 1 0 0 0 0 0 1 36 12 123 149 210 833 994 831 756 652 338 321 336 293 513 649 1045 1135 1110 1124 1187 1437 1460 1280 1051 1254 955 1134 1132 1536 1423 1570 1857 2078 2178
0 11 67 0 0 0 0 0 0 4 36 9 145 830 869 1033 984 743 911 683 471 758 436 618 1130 1134 1245 1160 839 965 1225 1212 1319 1357 1528 1485 1372 1339 1204 1347 1534 1713 1790 1983
54 11 82 61 0 0 0 0 0 3 25 70 69 302 1231 1218 1163 1127 1044 915 724 556 949 972 752 540 571 768 917 848 662 942 1124 1383 1303 1469 1177 1340 1333 1483 1140 1383 1629 1796
4 100 109 75 60 14 0 0 0 17 53 63 111 541 1220 1288 1136 765 842 815 789 920 978 621 642 525 845 734 392 539 835 900 1036 1278 1396 1611 1631 1588 1392 1445 1587 1677 1876 1691
43 158 123 37 61 31 9 3 0 1 10 69 65 78 723 1274 1359 783 630 802 824 613 679 717 440 354 487 280 171 142 205 121 170 347 665 976 1269 1378 1685 1745 1685 1654 1734 1555
52 114 151 83 8 123 107 71 32 24 21 53 42 574 1238 1326 1196 1065 743 476 431 488 505 428 728 657 833 578 213 101 107 73 171 243 338 469 811 834 892 1048 1185 1255 1358 1559
27 129 194 191 55 42 290 356 278 222 285 414 117 988 1328 1274 992 809 454 225 167 79 66 4 3 3 10 64 123 49 14 205 445 258 229 312 318 273 541 605 684 639 798 1060
46 132 144 216 126 189 178 152 91 375 549 502 621 908 1312 977 586 428 181 115 19 7 9 5 3 2 2 1 1 4 4 4 42 138 162 222 217 4 1 235 479 625 715 930
145 52 0 111 131 35 34 84 55 101 499 478 898 1114 892 643 434 83 12 55 34 7 5 5 2 3 5 1 2 1 2 1 0 0 3 38 1 0 0 0 11 122 373 376
11 17 96 5 142 105 46 0 0 0 364 682 934 883 690 721 975 200 25 2 3 1 0 0 0 0 0 0 0 0 1 0 0 2 1 3 7 1 0 0 19 94 167 182
149 128 73 69 156 122 0 0 0 154 169 45 791 800 636 769 682 139 2 3 0 0 0 0 0 0 0 0 0 0 0 0 0 0 0 0 2 0 0 4 13 16 10 7
242 144 75 41 38 41 0 0 130 34 2 8 483 596 487 166 134 145 40 43 2 0 0 0 0 0 0 0 0 0 0 0 0 2 1 0 0 0 0 0 0 0 0 0
283 254 398 170 224 2 0 0 0 0 72 47 257 498 578 271 180 110 15 28 14 10 5 0 0 0 0 0 0 0 0 0 0 0 1 0 0 0 2 1 0 0 0 0
51 108 271 197 62 9 0 0 0 0 59 192 213 505 443 312 176 45 12 10 9 2 0 0 0 0 0 0 0 0 0 0 0 0 0 0 0 0 0 0 0 0 0 0
25 28 39 123 104 42 0 0 0 0 5 143 278 312 335 256 198 21 14 5 0 0 0 0 0 0 0 0 0 0 0 0 0 0 0 0 0 0 0 0 0 0 0 0
3 0 0 12 109 12 119 0 0 0 0 40 144 228 225 271 182 48 9 1 0 0 0 0 0 0 0 0 0 0 0 0 0 0 0 0 0 0 0 0 0 0 0 0

GFSCGP_con_sbcape_117.txt.gz
CAPE
0 0 0 0 110 63 13 43 241 222 250 72 80 111 35 38 15 53 79 94 111 128 128 107 195 207 232 420 1152 1209 1246 1410 2213 1344 1168 1368 1577 1760 1308 983 1433 1657 1525 1700
0 0 0 0 112 102 2 45 456 209 170 10 109 230 113 0 7 165 70 72 90 122 137 146 239 194 209 347 736 1417 1443 1513 1474 1195 1520 2635 1887 2274 1720 1891 1220 1352 1436 1792
0 0 0 0 38 78 7 118 345 326 211 81 128 220 236 12 0 3 108 79 118 138 161 165 333 255 407 507 542 914 1591 1530 1799 1920 1649 1610 1920 2029 1699 1733 1579 2292 1483 1463
0 0 0 0 8 53 63 207 132 227 458 266 269 270 403 308 6 31 68 94 46 159 88 352 264 231 483 495 714 697 1416 1695 1748 1734 1792 1711 1406 1063 1661 1663 1874 1859 2254 1920
0 0 0 0 6 42 15 1 50 25 346 105 317 166 568 375 16 11 50 130 98 69 199 212 299 474 271 439 644 745 1022 1648 2035 2300 1523 1222 1647 1204 890 1784 2269 3032 1787 2606
0 0 0 0 0 52 2 0 129 239 214 267 171 156 744 116 11 23 224 180 186 178 111 162 253 359 439 331 507 676 1049 1575 1728 1605 1300 1433 1565 1572 1631 1823 1424 1137 1620 1430
0 0 0 0 0 45 0 8 128 150 125 114 245 168 256 479 267 294 201 183 151 115 134 172 157 193 784 338 375 617 1112 1577 1450 1467 1437 1488 1419 1650 1310 1804 1431 900 734 1174
0 0 0 0 1 14 4 83 217 193 146 178 114 113 346 452 558 463 220 337 158 164 141 140 259 455 374 520 291 494 1396 1632 1583 1200 1314 1494 1467 1212 1134 1508 2077 900 824 925
1 0 0 0 0 3 12 68 212 171 126 28 205 514 398 290 328 472 569 367 163 153 82 113 210 246 374 564 992 563 1471 1774 1449 1503 2075 1590 1511 1227 1101 1641 1681 1453 1895 1138
24 22 10 0 0 0 0 33 149 194 168 125 244 17 475 444 370 393 455 643 473 396 420 126 270 250 736 777 905 888 1397 1603 1401 1261 1582 1509 1376 1312 1129 1341 1363 1925 2494 1956
11 18 12 0 0 0 0 0 32 128 129 33 148 175 679 689 668 470 503 651 610 492 344 533 234 822 581 1019 1274 1212 1479 1724 1393 1042 1121 1099 948 1036 1214 1139 1220 1467 1905 2405
0 23 7 4 0 0 0 0 21 110 123 40 3 91 924 986 752 722 606 849 706 599 395 361 463 500 1176 1415 1563 1030 2024 1695 1414 1079 1576 1337 1132 913 961 929 1466 1463 1723 3163
87 9 52 41 11 0 0 0 0 9 44 90 64 617 449 1192 1048 921 849 578 600 493 637 485 562 1211 1818 2014 1527 1498 1375 1302 1475 2112 1626 1625 1423 1263 1037 1032 1203 1593 1693 1916
24 80 56 107 77 26 0 0 0 7 24 21 113 1262 1400 1472 1529 1449 1316 1103 858 940 962 1273 1345 2100 1680 1437 1446 1111 959 888 1078 1219 2152 2202 1820 1567 1248 957 1267 1343 1599 1909
89 120 104 37 80 70 10 0 3 8 14 55 64 350 1191 1387 1515 1187 1239 1281 1017 1205 1399 1288 1077 1355 1289 842 1193 952 730 352 94 540 1245 1378 1537 1752 1702 1608 1761 1486 1635 1530
281 271 183 3 0 50 35 7 16 14 5 18 17 45 590 1218 1321 1049 915 1170 1112 1023 1044 1137 1148 315 432 549 509 401 337 239 72 81 376 939 1149 1280 1476 1783 1777 1743 1782 1621
154 146 276 157 45 48 57 119 73 72 81 135 426 613 615 1681 1620 946 854 633 854 470 412 777 683 788 742 744 636 452 317 225 41 286 472 615 634 991 1208 1205 1311 1250 1342 1483
129 181 183 266 307 88 317 78 214 418 413 335 370 894 775 1429 1010 837 732 458 105 64 14 8 4 2 63 281 210 69 211 437 389 411 385 428 559 426 441 627 762 893 1121 1093
148 71 127 147 0 98 148 8 126 291 535 455 755 1204 1254 1118 867 530 460 372 334 131 4 4 3 4 3 2 2 9 42 153 275 180 263 289 335 356 152 1 0 15 357 297
71 126 180 186 115 218 458 23 1 60 380 308 968 887 835 719 922 673 273 214 102 20 3 2 1 2 2 2 0 2 1 3 1 0 65 180 55 35 5 0 10 183 237 101
232 177 99 87 107 106 28 0 2 161 275 118 1000 931 930 848 937 481 276 155 93 32 7 2 0 0 0 0 0 0 0 0 0 0 0 29 31 28 28 76 69 57 56 41
386 353 236 151 207 71 2 53 282 205 142 96 557 825 801 641 530 334 217 142 42 14 4 1 0 0 0 0 0 0 0 0 0 1 5 2 0 1 6 20 33 173 93 35
205 562 754 552 502 111 33 109 50 92 216 231 222 597 833 536 355 223 82 56 7 3 1 0 0 0 0 0 0 0 1 0 0 0 0 17 6 10 6 4 6 4 3 7
142 262 204 354 177 61 32 15 15 31 98 248 331 532 739 567 380 269 188 128 34 2 1 0 0 0 0 0 0 0 0 0 5 9 5 0 4 2 0 0 0 1 4 3
290 250 132 319 434 211 53 15 0 0 3 159 418 476 476 597 282 189 156 115 26 16 7 1 1 0 0 0 0 0 0 0 0 0 0 0 0 0 0 0 0 0 0 0
80 0 65 332 317 205 325 91 0 0 1 35 227 500 550 371 307 193 188 71 11 8 0 0 0 0 0 0 0 0 0 0 0 0 0 0 0 0 0 0 0 0 0 0

GFSCGP_con_sbcape_120.txt.gz
CAPE
0 0 0 0 0 21 32 123 185 130 121 61 85 93 58 218 52 49 69 75 81 67 67 51 88 430 441 532 849 1348 1127 1842 2125 1869 508 1711 2041 2720 2105 2186 2635 3272 2580 2495
0 0 0 0 0 3 40 363 233 196 163 85 77 88 84 97 76 56 60 84 71 96 59 74 132 302 840 1122 397 1356 1676 2136 1595 1605 1537 815 2602 2048 2401 2539 2685 2117 2200 2170
0 0 0 0 0 0 114 241 271 219 43 17 60 92 122 50 5 38 92 128 86 67 42 195 111 77 335 1393 1226 1633 1807 2125 1676 348 531 912 1913 929 2166 1572 2197 2654 2170 2203
0 0 0 0 0 0 103 290 297 235 67 77 79 90 96 17 0 0 65 110 69 62 61 101 95 160 177 590 1658 2195 2264 2129 1838 1973 1395 679 830 1175 1681 2077 2299 1652 2071 2192
0 0 0 0 0 0 159 354 357 246 237 122 120 183 195 48 0 0 0 77 39 31 78 133 117 266 112 430 562 2255 2333 2089 2263 2253 1414 1640 2617 1882 319 2093 2158 2546 3022 2023
0 0 0 0 0 0 36 246 189 75 78 30 99 218 576 272 198 0 4 78 76 45 102 57 132 209 332 373 443 1038 2335 2242 2500 1859 2052 2287 1914 1247 1688 1632 2091 1980 2501 2538
0 0 0 0 0 0 41 4 63 123 69 69 134 247 210 437 244 2 4 41 41 57 131 53 37 257 274 501 766 844 2076 2294 2148 2146 2219 2062 2467 1299 2430 2098 2194 1443 1430 1609
0 0 0 0 0 0 86 16 126 153 113 134 151 52 95 574 171 0 0 75 112 100 17 134 67 454 258 515 1002 844 2007 2133 2007 2138 2248 2164 1982 1892 2051 2757 2252 2591 1060 1521
3 0 0 0 0 0 51 0 23 142 88 107 174 18 568 325 41 0 13 85 100 120 16 139 432 203 88 411 597 1477 2019 1837 1991 1759 2326 2399 2969 1942 1174 2473 1383 2871 1799 2127
0 4 0 0 0 0 0 15 35 38 173 123 82 217 210 185 136 109 220 300 200 158 231 153 255 366 139 191 213 1721 2276 2071 1982 1757 1853 1777 2100 2044 1796 1958 2349 2276 2034 3078
1 7 10 18 0 0 0 0 0 35 58 112 152 113 462 40 19 678 569 316 361 164 353 682 451 557 133 100 359 1890 2278 2132 1826 2037 1784 1918 1719 1884 1953 2020 2224 2664 2502 2153
20 10 27 7 6 0 0 0 0 0 1 6 32 168 2 0 63 43 643 828 282 343 456 792 340 369 299 789 295 1892 1613 1918 1637 1441 1865 2042 2084 1958 1533 1845 2074 2567 2995 1922
32 1 0 12 12 6 0 0 0 0 0 64 114 316 75 152 556 762 501 878 549 1202 586 138 189 296 87 2 113 678 490 56 1437 1832 1762 1716 1841 1721 2179 1810 2132 2283 2791 2646
7 2 31 61 59 35 0 0 0 0 0 1 7 612 595 366 1175 995 911 1054 1200 1026 257 86 52 840 64 237 621 1035 855 563 878 1402 531 1031 1943 1996 1853 2269 2636 2512 2392 2906
44 86 136 39 42 27 58 0 0 0 0 1 245 529 664 155 789 999 948 1126 1098 1039 993 628 303 729 16 1 305 1142 1260 939 491 280 1000 412 607 1011 2064 1819 2058 2222 2173 2152
154 186 216 125 56 23 35 14 0 0 0 0 22 509 0 0 0 230 1168 968 1042 1028 747 1317 1447 1112 238 329 879 652 621 610 673 363 541 427 364 857 1216 1371 1354 1873 2088 2270
271 415 386 342 155 23 58 277 240 52 48 48 355 919 3 0 0 24 717 1048 1281 1400 1505 1328 1060 660 528 346 782 806 568 395 306 110 149 124 179 316 509 1452 1881 1392 1685 1266
187 400 149 278 208 40 181 220 116 299 460 631 993 771 2 4 348 688 703 233 232 127 95 33 100 349 657 507 604 696 570 356 203 148 150 194 141 164 217 785 997 1153 1290 1001
58 162 155 217 201 13 48 131 12 0 464 41 684 0 210 616 457 439 449 284 168 1 2 3 3 7 3 2 35 173 336 471 335 302 264 223 319 232 123 58 95 114 246 48
10 270 129 200 140 67 24 18 0 0 159 70 21 340 377 710 463 271 306 149 56 4 0 3 4 2 6 5 3 1 0 0 1 48 133 232 307 139 93 62 107 89 20 0
104 206 214 17 51 30 0 12 0 67 197 92 664 729 140 479 498 413 336 198 22 2 0 0 0 2 3 8 1 0 2 0 0 0 0 49 229 232 82 41 71 4 3 0
44 101 331 108 26 80 4 22 176 185 164 24 432 662 731 814 743 559 361 107 9 2 1 0 0 0 0 0 0 0 0 1 0 0 0 0 16 37 57 203 234 91 8 20
71 0 322 506 320 167 86 108 95 140 292 187 63 675 455 631 521 338 183 44 2 1 1 2 0 4 1 0 0 0 0 0 0 0 0 0 8 17 4 72 30 12 182 9
109 115 585 703 295 77 18 11 14 5 54 83 193 561 665 612 469 251 129 32 0 0 1 1 0 0 1 1 0 0 0 0 0 0 0 0 0 0 0 0 0 0 0 0
321 188 10 580 446 228 42 7 0 0 0 12 84 172 654 638 566 249 214 65 0 0 0 0 0 0 0 0 0 0 0 0 0 0 0 0 0 0 0 0 0 0 0 0
0 0 0 365 651 470 261 110 0 0 0 0 26 149 428 523 441 318 330 268 146 12 16 11 0 0 0 0 0 0 0 0 4 0 0 0 0 0 0 0 0 0 0 0